<?xml version='1.0' encoding='UTF-8'?><gpx version="1.1" creator="JPX - https://github.com/jenetics/jpx" xmlns="http://www.topografix.com/GPX/1/1"><trk><trkseg><trkpt lat="43.50514312607618" lon="10.621168930024691"><ele>299.2</ele><time>2026-03-22T13:08:00.002Z</time></trkpt><trkpt lat="43.505084150028814" lon="10.62113419412757"><ele>300.4</ele><time>2026-03-22T13:09:10.999Z</time></trkpt><trkpt lat="43.50506114099729" lon="10.620999201571601"><ele>301.59999999999997</ele><time>2026-03-22T13:09:12.999Z</time></trkpt><trkpt lat="43.50501743824128" lon="10.620883386506588"><ele>302.8</ele><time>2026-03-22T13:09:14.999Z</time></trkpt><trkpt lat="43.504951516462455" lon="10.620756266891458"><ele>304.0</ele><time>2026-03-22T13:09:16.999Z</time></trkpt><trkpt lat="43.50488208926957" lon="10.620637971193274"><ele>304.0</ele><time>2026-03-22T13:09:18.999Z</time></trkpt><trkpt lat="43.50481182496479" lon="10.620547772183148"><ele>304.0</ele><time>2026-03-22T13:09:20.999Z</time></trkpt><trkpt lat="43.504746871092614" lon="10.620451588093607"><ele>304.0</ele><time>2026-03-22T13:09:22.999Z</time></trkpt><trkpt lat="43.50473148064663" lon="10.620352012848755"><ele>304.0</ele><time>2026-03-22T13:09:24.999Z</time></trkpt><trkpt lat="43.50474640347093" lon="10.620247413814889"><ele>304.0</ele><time>2026-03-22T13:09:26.998Z</time></trkpt><trkpt lat="43.50481027011578" lon="10.620135065509858"><ele>304.0</ele><time>2026-03-22T13:09:29.998Z</time></trkpt><trkpt lat="43.50488780321883" lon="10.620050016549042"><ele>305.0</ele><time>2026-03-22T13:09:31.998Z</time></trkpt><trkpt lat="43.50493526529193" lon="10.619992421888439"><ele>306.0</ele><time>2026-03-22T13:09:32.998Z</time></trkpt><trkpt lat="43.50500698627489" lon="10.619850611997153"><ele>307.0</ele><time>2026-03-22T13:09:34.998Z</time></trkpt><trkpt lat="43.50504699508694" lon="10.619770611652594"><ele>308.0</ele><time>2026-03-22T13:09:35.998Z</time></trkpt><trkpt lat="43.505094699326065" lon="10.619644090479044"><ele>309.0</ele><time>2026-03-22T13:09:37.998Z</time></trkpt><trkpt lat="43.50515297323955" lon="10.619495258321589"><ele>309.59999999999997</ele><time>2026-03-22T13:09:40Z</time></trkpt><trkpt lat="43.50522059734234" lon="10.619362815415442"><ele>310.2</ele><time>2026-03-22T13:09:42Z</time></trkpt><trkpt lat="43.50531704036426" lon="10.619335940620516"><ele>310.79999999999995</ele><time>2026-03-22T13:09:44Z</time></trkpt><trkpt lat="43.50537864995291" lon="10.619393549510042"><ele>311.4</ele><time>2026-03-22T13:09:45Z</time></trkpt><trkpt lat="43.505461665583084" lon="10.619395796089798"><ele>312.0</ele><time>2026-03-22T13:09:46Z</time></trkpt><trkpt lat="43.505543660797336" lon="10.619426586071436"><ele>310.0</ele><time>2026-03-22T13:09:47Z</time></trkpt><trkpt lat="43.50561631366308" lon="10.619456328542643"><ele>308.0</ele><time>2026-03-22T13:09:48Z</time></trkpt><trkpt lat="43.50568335014052" lon="10.619503941458419"><ele>306.0</ele><time>2026-03-22T13:09:49Z</time></trkpt><trkpt lat="43.50576021101958" lon="10.619526124585253"><ele>304.0</ele><time>2026-03-22T13:09:50Z</time></trkpt><trkpt lat="43.50583500998132" lon="10.619495558909179"><ele>302.0</ele><time>2026-03-22T13:09:51Z</time></trkpt><trkpt lat="43.50590548877419" lon="10.61945443175119"><ele>300.0</ele><time>2026-03-22T13:09:52Z</time></trkpt><trkpt lat="43.505980085283085" lon="10.619428561768668"><ele>300.0</ele><time>2026-03-22T13:09:53Z</time></trkpt><trkpt lat="43.506065429844" lon="10.619421262268993"><ele>300.0</ele><time>2026-03-22T13:09:54Z</time></trkpt><trkpt lat="43.5061435223436" lon="10.619396068831014"><ele>300.0</ele><time>2026-03-22T13:09:55Z</time></trkpt><trkpt lat="43.50621344317161" lon="10.619355136046872"><ele>300.0</ele><time>2026-03-22T13:09:56Z</time></trkpt><trkpt lat="43.506282151320356" lon="10.619339647196107"><ele>300.0</ele><time>2026-03-22T13:09:57Z</time></trkpt><trkpt lat="43.506348000374985" lon="10.619351734641803"><ele>300.0</ele><time>2026-03-22T13:09:58Z</time></trkpt><trkpt lat="43.506430642507596" lon="10.61935523443676"><ele>297.8</ele><time>2026-03-22T13:09:59Z</time></trkpt><trkpt lat="43.506517013352656" lon="10.61936686348932"><ele>295.6</ele><time>2026-03-22T13:10:00Z</time></trkpt><trkpt lat="43.50658810059413" lon="10.619352992062522"><ele>293.4</ele><time>2026-03-22T13:10:01Z</time></trkpt><trkpt lat="43.5067025270427" lon="10.619311036609083"><ele>291.2</ele><time>2026-03-22T13:10:03Z</time></trkpt><trkpt lat="43.50676603656889" lon="10.61928461747487"><ele>289.0</ele><time>2026-03-22T13:10:04Z</time></trkpt><trkpt lat="43.50686971992696" lon="10.619234344137858"><ele>289.0</ele><time>2026-03-22T13:10:06Z</time></trkpt><trkpt lat="43.50697148490567" lon="10.619144417148553"><ele>289.0</ele><time>2026-03-22T13:10:08Z</time></trkpt><trkpt lat="43.507013909835614" lon="10.619065285632942"><ele>289.0</ele><time>2026-03-22T13:10:09Z</time></trkpt><trkpt lat="43.50706507110789" lon="10.618992947138809"><ele>289.0</ele><time>2026-03-22T13:10:10Z</time></trkpt><trkpt lat="43.507118714008435" lon="10.618932245327393"><ele>289.0</ele><time>2026-03-22T13:10:11Z</time></trkpt><trkpt lat="43.50718335000249" lon="10.618872367861826"><ele>289.0</ele><time>2026-03-22T13:10:12Z</time></trkpt><trkpt lat="43.50724753148344" lon="10.618821134810831"><ele>288.2</ele><time>2026-03-22T13:10:13Z</time></trkpt><trkpt lat="43.50730740338991" lon="10.61878318860216"><ele>287.4</ele><time>2026-03-22T13:10:14Z</time></trkpt><trkpt lat="43.50749202727999" lon="10.61873143002735"><ele>286.6</ele><time>2026-03-22T13:10:16Z</time></trkpt><trkpt lat="43.50757034438523" lon="10.618697164646125"><ele>285.8</ele><time>2026-03-22T13:10:17Z</time></trkpt><trkpt lat="43.50764862911507" lon="10.618651780115197"><ele>285.0</ele><time>2026-03-22T13:10:18Z</time></trkpt><trkpt lat="43.50772907327991" lon="10.618574778678997"><ele>285.0</ele><time>2026-03-22T13:10:19Z</time></trkpt><trkpt lat="43.50778963283845" lon="10.61849339829718"><ele>285.0</ele><time>2026-03-22T13:10:20Z</time></trkpt><trkpt lat="43.50785849444848" lon="10.618404943796708"><ele>285.0</ele><time>2026-03-22T13:10:21Z</time></trkpt><trkpt lat="43.50791491164739" lon="10.618293918012592"><ele>285.0</ele><time>2026-03-22T13:10:22Z</time></trkpt><trkpt lat="43.50796565967656" lon="10.618183101157221"><ele>285.0</ele><time>2026-03-22T13:10:23Z</time></trkpt><trkpt lat="43.50802358900788" lon="10.618066471065037"><ele>285.8</ele><time>2026-03-22T13:10:24Z</time></trkpt><trkpt lat="43.50806914305074" lon="10.61793365761962"><ele>286.6</ele><time>2026-03-22T13:10:25Z</time></trkpt><trkpt lat="43.50812093791828" lon="10.61780474432907"><ele>287.4</ele><time>2026-03-22T13:10:26Z</time></trkpt><trkpt lat="43.50816995445028" lon="10.617676268605459"><ele>288.2</ele><time>2026-03-22T13:10:27Z</time></trkpt><trkpt lat="43.50821105594031" lon="10.617540855527267"><ele>289.0</ele><time>2026-03-22T13:10:28Z</time></trkpt><trkpt lat="43.50825523899687" lon="10.617411187720935"><ele>289.0</ele><time>2026-03-22T13:10:29Z</time></trkpt><trkpt lat="43.508294774291635" lon="10.617277509484468"><ele>289.0</ele><time>2026-03-22T13:10:30Z</time></trkpt><trkpt lat="43.50834690197758" lon="10.61715977264089"><ele>289.0</ele><time>2026-03-22T13:10:31Z</time></trkpt><trkpt lat="43.5084196399136" lon="10.617036750683326"><ele>289.0</ele><time>2026-03-22T13:10:32Z</time></trkpt><trkpt lat="43.50848943725002" lon="10.616918811619522"><ele>289.0</ele><time>2026-03-22T13:10:33Z</time></trkpt><trkpt lat="43.50857685056833" lon="10.616820973614173"><ele>289.59999999999997</ele><time>2026-03-22T13:10:34Z</time></trkpt><trkpt lat="43.50865955919439" lon="10.616714951293991"><ele>290.2</ele><time>2026-03-22T13:10:34.999Z</time></trkpt><trkpt lat="43.50874710675762" lon="10.616615646309707"><ele>290.79999999999995</ele><time>2026-03-22T13:10:35.999Z</time></trkpt><trkpt lat="43.50882114966965" lon="10.61653368004629"><ele>291.4</ele><time>2026-03-22T13:10:36.999Z</time></trkpt><trkpt lat="43.50889019903203" lon="10.61646073151602"><ele>292.0</ele><time>2026-03-22T13:10:37.999Z</time></trkpt><trkpt lat="43.508962901207916" lon="10.616380839067226"><ele>292.0</ele><time>2026-03-22T13:10:38.999Z</time></trkpt><trkpt lat="43.509016143171095" lon="10.616329670942518"><ele>292.0</ele><time>2026-03-22T13:10:39.999Z</time></trkpt><trkpt lat="43.50911686532447" lon="10.616332848897807"><ele>292.0</ele><time>2026-03-22T13:10:41.999Z</time></trkpt><trkpt lat="43.5090933319733" lon="10.616116176604212"><ele>292.0</ele><time>2026-03-22T13:10:42.999Z</time></trkpt><trkpt lat="43.50906214554447" lon="10.616014991003816"><ele>292.0</ele><time>2026-03-22T13:10:43.999Z</time></trkpt><trkpt lat="43.509012715054666" lon="10.6159227528889"><ele>292.4</ele><time>2026-03-22T13:10:44.999Z</time></trkpt><trkpt lat="43.508942944481554" lon="10.615822574016669"><ele>292.79999999999995</ele><time>2026-03-22T13:10:45.999Z</time></trkpt><trkpt lat="43.50890476957447" lon="10.615693412162313"><ele>293.2</ele><time>2026-03-22T13:10:46.999Z</time></trkpt><trkpt lat="43.50888230773194" lon="10.615544809488817"><ele>293.59999999999997</ele><time>2026-03-22T13:10:47.999Z</time></trkpt><trkpt lat="43.5088521901436" lon="10.615399057127618"><ele>294.0</ele><time>2026-03-22T13:10:48.999Z</time></trkpt><trkpt lat="43.50880802472322" lon="10.61527738185021"><ele>294.4</ele><time>2026-03-22T13:10:49.999Z</time></trkpt><trkpt lat="43.50874295281481" lon="10.615168345202132"><ele>294.79999999999995</ele><time>2026-03-22T13:10:50.999Z</time></trkpt><trkpt lat="43.508685489271635" lon="10.61509295626718"><ele>295.20000000000005</ele><time>2026-03-22T13:10:51.999Z</time></trkpt><trkpt lat="43.508630127329795" lon="10.61501924148887"><ele>295.6</ele><time>2026-03-22T13:10:52.999Z</time></trkpt><trkpt lat="43.508529401767625" lon="10.615065023860673"><ele>296.0</ele><time>2026-03-22T13:10:53.999Z</time></trkpt><trkpt lat="43.508484673446375" lon="10.615258489649205"><ele>298.0</ele><time>2026-03-22T13:10:54.999Z</time></trkpt><trkpt lat="43.508438769922535" lon="10.615358190504372"><ele>300.0</ele><time>2026-03-22T13:10:55.999Z</time></trkpt><trkpt lat="43.50837831177455" lon="10.615449559801096"><ele>302.0</ele><time>2026-03-22T13:10:56.999Z</time></trkpt><trkpt lat="43.50831121092247" lon="10.615514153856207"><ele>304.0</ele><time>2026-03-22T13:10:57.999Z</time></trkpt><trkpt lat="43.508214391187" lon="10.61556067152379"><ele>306.0</ele><time>2026-03-22T13:10:58.999Z</time></trkpt><trkpt lat="43.508113075703506" lon="10.615584697732938"><ele>306.0</ele><time>2026-03-22T13:10:59.999Z</time></trkpt><trkpt lat="43.50800941574429" lon="10.615620034410991"><ele>306.0</ele><time>2026-03-22T13:11:00.999Z</time></trkpt><trkpt lat="43.50788756843658" lon="10.615669154127973"><ele>306.0</ele><time>2026-03-22T13:11:01.999Z</time></trkpt><trkpt lat="43.507776821467424" lon="10.615693837679702"><ele>306.0</ele><time>2026-03-22T13:11:02.999Z</time></trkpt><trkpt lat="43.507667896708824" lon="10.615742408146396"><ele>308.5</ele><time>2026-03-22T13:11:03.999Z</time></trkpt><trkpt lat="43.507572411891196" lon="10.615851500836783"><ele>311.0</ele><time>2026-03-22T13:11:04.999Z</time></trkpt><trkpt lat="43.50746490651789" lon="10.615897641759549"><ele>313.5</ele><time>2026-03-22T13:11:05.999Z</time></trkpt><trkpt lat="43.50736260068815" lon="10.615946916615826"><ele>316.0</ele><time>2026-03-22T13:11:06.999Z</time></trkpt><trkpt lat="43.5072459058255" lon="10.615990850254066"><ele>316.0</ele><time>2026-03-22T13:11:07.999Z</time></trkpt><trkpt lat="43.50714646584973" lon="10.616000157274811"><ele>316.0</ele><time>2026-03-22T13:11:08.999Z</time></trkpt><trkpt lat="43.507028346603555" lon="10.616015486591948"><ele>316.0</ele><time>2026-03-22T13:11:09.999Z</time></trkpt><trkpt lat="43.50690654664948" lon="10.616050747363566"><ele>316.0</ele><time>2026-03-22T13:11:10.999Z</time></trkpt><trkpt lat="43.50680792574701" lon="10.616039480154257"><ele>316.0</ele><time>2026-03-22T13:11:11.999Z</time></trkpt><trkpt lat="43.506728196215626" lon="10.61602155278084"><ele>317.4</ele><time>2026-03-22T13:11:12.999Z</time></trkpt><trkpt lat="43.50665516674646" lon="10.61595847499857"><ele>318.8</ele><time>2026-03-22T13:11:13.999Z</time></trkpt><trkpt lat="43.506629097111194" lon="10.615870229446914"><ele>320.2</ele><time>2026-03-22T13:11:14.999Z</time></trkpt><trkpt lat="43.50655394852788" lon="10.61576348012472"><ele>321.59999999999997</ele><time>2026-03-22T13:11:15.999Z</time></trkpt><trkpt lat="43.50649144144243" lon="10.615667850115116"><ele>323.0</ele><time>2026-03-22T13:11:16.999Z</time></trkpt><trkpt lat="43.50642063932572" lon="10.615576444466937"><ele>323.0</ele><time>2026-03-22T13:11:17.999Z</time></trkpt><trkpt lat="43.5063685462444" lon="10.615452705440799"><ele>323.0</ele><time>2026-03-22T13:11:18.999Z</time></trkpt><trkpt lat="43.50631832638896" lon="10.615332693332993"><ele>323.0</ele><time>2026-03-22T13:11:19.999Z</time></trkpt><trkpt lat="43.50626773397303" lon="10.615243445853679"><ele>323.0</ele><time>2026-03-22T13:11:20.999Z</time></trkpt><trkpt lat="43.50623864129232" lon="10.615152439703971"><ele>323.0</ele><time>2026-03-22T13:11:21.999Z</time></trkpt><trkpt lat="43.50619358067265" lon="10.615064345495407"><ele>323.0</ele><time>2026-03-22T13:11:22.999Z</time></trkpt><trkpt lat="43.50615392299344" lon="10.614996484560963"><ele>324.5</ele><time>2026-03-22T13:11:23.999Z</time></trkpt><trkpt lat="43.506101527261855" lon="10.61491048251041"><ele>326.0</ele><time>2026-03-22T13:11:25.999Z</time></trkpt><trkpt lat="43.50601938138647" lon="10.614944806555645"><ele>327.5</ele><time>2026-03-22T13:11:26.999Z</time></trkpt><trkpt lat="43.50590688523449" lon="10.61492682393565"><ele>329.0</ele><time>2026-03-22T13:11:28.999Z</time></trkpt><trkpt lat="43.50584910118892" lon="10.614851823045475"><ele>330.5</ele><time>2026-03-22T13:11:29.999Z</time></trkpt><trkpt lat="43.50578265677855" lon="10.61481906744823"><ele>332.0</ele><time>2026-03-22T13:11:30.999Z</time></trkpt><trkpt lat="43.50569982716177" lon="10.614782295747357"><ele>332.0</ele><time>2026-03-22T13:11:31.999Z</time></trkpt><trkpt lat="43.505624809547925" lon="10.61477478972835"><ele>332.0</ele><time>2026-03-22T13:11:32.999Z</time></trkpt><trkpt lat="43.50556017963216" lon="10.61481994683559"><ele>332.0</ele><time>2026-03-22T13:11:33.999Z</time></trkpt><trkpt lat="43.505524423527504" lon="10.614907295536064"><ele>332.0</ele><time>2026-03-22T13:11:34.999Z</time></trkpt><trkpt lat="43.50546642412342" lon="10.614975803550236"><ele>332.0</ele><time>2026-03-22T13:11:35.999Z</time></trkpt><trkpt lat="43.505394564513814" lon="10.615053508462331"><ele>332.0</ele><time>2026-03-22T13:11:36.999Z</time></trkpt><trkpt lat="43.505320571637064" lon="10.615128554842762"><ele>333.6</ele><time>2026-03-22T13:11:37.999Z</time></trkpt><trkpt lat="43.505250959004506" lon="10.61519151707183"><ele>335.20000000000005</ele><time>2026-03-22T13:11:38.999Z</time></trkpt><trkpt lat="43.50519580940175" lon="10.615244849566047"><ele>336.8</ele><time>2026-03-22T13:11:39.999Z</time></trkpt><trkpt lat="43.5051241638017" lon="10.615343438735552"><ele>338.4</ele><time>2026-03-22T13:11:41.999Z</time></trkpt><trkpt lat="43.50502962306267" lon="10.6154414189562"><ele>340.0</ele><time>2026-03-22T13:11:43.999Z</time></trkpt><trkpt lat="43.504939626238595" lon="10.61550803110086"><ele>344.5</ele><time>2026-03-22T13:11:46Z</time></trkpt><trkpt lat="43.504638280912204" lon="10.615099819000788"><ele>349.0</ele><time>2026-03-22T13:11:47Z</time></trkpt><trkpt lat="43.504564043724166" lon="10.615038183830245"><ele>351.8333333333333</ele><time>2026-03-22T13:11:48Z</time></trkpt><trkpt lat="43.504491703312326" lon="10.614993346361812"><ele>354.66666666666663</ele><time>2026-03-22T13:11:49Z</time></trkpt><trkpt lat="43.50441585862107" lon="10.614959751203681"><ele>357.5</ele><time>2026-03-22T13:11:50Z</time></trkpt><trkpt lat="43.50435112509926" lon="10.614918038746856"><ele>360.3333333333333</ele><time>2026-03-22T13:11:51Z</time></trkpt><trkpt lat="43.504290858939626" lon="10.614850351657328"><ele>363.1666666666667</ele><time>2026-03-22T13:11:52Z</time></trkpt><trkpt lat="43.50425016533945" lon="10.614761128063694"><ele>366.0</ele><time>2026-03-22T13:11:53Z</time></trkpt><trkpt lat="43.50419155695798" lon="10.614694428802778"><ele>366.0</ele><time>2026-03-22T13:11:54Z</time></trkpt><trkpt lat="43.50412009196599" lon="10.614655103797226"><ele>366.0</ele><time>2026-03-22T13:11:55Z</time></trkpt><trkpt lat="43.5040250593384" lon="10.614662381305465"><ele>366.0</ele><time>2026-03-22T13:11:56Z</time></trkpt><trkpt lat="43.50393736895807" lon="10.614691510314112"><ele>366.0</ele><time>2026-03-22T13:11:57Z</time></trkpt><trkpt lat="43.50385930737711" lon="10.614746402609581"><ele>366.0</ele><time>2026-03-22T13:11:58Z</time></trkpt><trkpt lat="43.5037755503608" lon="10.61477516686823"><ele>366.0</ele><time>2026-03-22T13:11:59Z</time></trkpt><trkpt lat="43.50369326888296" lon="10.614816588060318"><ele>369.20000000000005</ele><time>2026-03-22T13:12:00Z</time></trkpt><trkpt lat="43.503571252087355" lon="10.614861219458673"><ele>372.40000000000003</ele><time>2026-03-22T13:12:02Z</time></trkpt><trkpt lat="43.50352124996234" lon="10.614938354879975"><ele>375.6</ele><time>2026-03-22T13:12:03Z</time></trkpt><trkpt lat="43.503488581002564" lon="10.61506279697408"><ele>378.8</ele><time>2026-03-22T13:12:04Z</time></trkpt><trkpt lat="43.50345453023555" lon="10.615177446566307"><ele>382.0</ele><time>2026-03-22T13:12:05Z</time></trkpt><trkpt lat="43.503421026452784" lon="10.615289415451953"><ele>382.0</ele><time>2026-03-22T13:12:06Z</time></trkpt><trkpt lat="43.503389497431286" lon="10.615390777832793"><ele>382.0</ele><time>2026-03-22T13:12:07Z</time></trkpt><trkpt lat="43.503334128639004" lon="10.615465796432913"><ele>382.0</ele><time>2026-03-22T13:12:08Z</time></trkpt><trkpt lat="43.50324406708088" lon="10.615520707146704"><ele>382.0</ele><time>2026-03-22T13:12:09Z</time></trkpt><trkpt lat="43.503151267694896" lon="10.615523775909933"><ele>382.0</ele><time>2026-03-22T13:12:10Z</time></trkpt><trkpt lat="43.5030684935812" lon="10.615550441566247"><ele>382.0</ele><time>2026-03-22T13:12:11Z</time></trkpt><trkpt lat="43.50299879364022" lon="10.615598025198123"><ele>382.0</ele><time>2026-03-22T13:12:12Z</time></trkpt><trkpt lat="43.502938399612454" lon="10.615669157104433"><ele>382.0</ele><time>2026-03-22T13:12:13Z</time></trkpt><trkpt lat="43.502896032762315" lon="10.615787338738862"><ele>382.0</ele><time>2026-03-22T13:12:14Z</time></trkpt><trkpt lat="43.502829159332585" lon="10.615881173031998"><ele>382.0</ele><time>2026-03-22T13:12:15Z</time></trkpt><trkpt lat="43.50275886473571" lon="10.6159287084299"><ele>382.0</ele><time>2026-03-22T13:12:16Z</time></trkpt><trkpt lat="43.5026965563844" lon="10.615954852163146"><ele>382.0</ele><time>2026-03-22T13:12:17Z</time></trkpt><trkpt lat="43.50258402806427" lon="10.615836444018148"><ele>383.5</ele><time>2026-03-22T13:12:26Z</time></trkpt><trkpt lat="43.502518182814704" lon="10.615767948984582"><ele>385.0</ele><time>2026-03-22T13:12:27Z</time></trkpt><trkpt lat="43.502433811282636" lon="10.615681990329858"><ele>386.5</ele><time>2026-03-22T13:12:28Z</time></trkpt><trkpt lat="43.50228753408809" lon="10.61561931903662"><ele>388.0</ele><time>2026-03-22T13:12:29Z</time></trkpt><trkpt lat="43.50216120771752" lon="10.615637117958777"><ele>389.4</ele><time>2026-03-22T13:12:30Z</time></trkpt><trkpt lat="43.50206205826997" lon="10.615663365882803"><ele>390.79999999999995</ele><time>2026-03-22T13:12:31Z</time></trkpt><trkpt lat="43.50195438586576" lon="10.615668703440017"><ele>392.2</ele><time>2026-03-22T13:12:32Z</time></trkpt><trkpt lat="43.50186441899848" lon="10.615675344961987"><ele>393.6</ele><time>2026-03-22T13:12:33Z</time></trkpt><trkpt lat="43.501768509102035" lon="10.615674016854847"><ele>395.0</ele><time>2026-03-22T13:12:34Z</time></trkpt><trkpt lat="43.501675626488776" lon="10.615697777770174"><ele>395.0</ele><time>2026-03-22T13:12:35Z</time></trkpt><trkpt lat="43.501601094301826" lon="10.615748598466038"><ele>395.0</ele><time>2026-03-22T13:12:36Z</time></trkpt><trkpt lat="43.50153667056803" lon="10.615844482393785"><ele>395.0</ele><time>2026-03-22T13:12:37Z</time></trkpt><trkpt lat="43.50146942793074" lon="10.615924126400733"><ele>395.0</ele><time>2026-03-22T13:12:38Z</time></trkpt><trkpt lat="43.50140013250485" lon="10.61602335215541"><ele>395.0</ele><time>2026-03-22T13:12:39Z</time></trkpt><trkpt lat="43.501333338839316" lon="10.616142551072066"><ele>393.2</ele><time>2026-03-22T13:12:40Z</time></trkpt><trkpt lat="43.50126342683362" lon="10.616231154290414"><ele>391.4</ele><time>2026-03-22T13:12:40.999Z</time></trkpt><trkpt lat="43.50118514491363" lon="10.61627569684169"><ele>389.6</ele><time>2026-03-22T13:12:41.999Z</time></trkpt><trkpt lat="43.501110608599525" lon="10.616292013967318"><ele>387.8</ele><time>2026-03-22T13:12:42.999Z</time></trkpt><trkpt lat="43.50099895627945" lon="10.616293688674732"><ele>386.0</ele><time>2026-03-22T13:12:43.999Z</time></trkpt><trkpt lat="43.50087132612621" lon="10.616312793766756"><ele>386.0</ele><time>2026-03-22T13:12:44.999Z</time></trkpt><trkpt lat="43.5007741809001" lon="10.616328469225317"><ele>386.0</ele><time>2026-03-22T13:12:45.999Z</time></trkpt><trkpt lat="43.50067554791238" lon="10.616321071775857"><ele>386.0</ele><time>2026-03-22T13:12:46.999Z</time></trkpt><trkpt lat="43.500583051353146" lon="10.616274635403965"><ele>386.0</ele><time>2026-03-22T13:12:47.999Z</time></trkpt><trkpt lat="43.500504114215225" lon="10.616191121822627"><ele>386.0</ele><time>2026-03-22T13:12:48.999Z</time></trkpt><trkpt lat="43.500424647943404" lon="10.616084120296861"><ele>388.0</ele><time>2026-03-22T13:12:49.999Z</time></trkpt><trkpt lat="43.50033964501738" lon="10.616093144862624"><ele>390.0</ele><time>2026-03-22T13:12:50.999Z</time></trkpt><trkpt lat="43.50026235249184" lon="10.616147665893774"><ele>392.0</ele><time>2026-03-22T13:12:51.999Z</time></trkpt><trkpt lat="43.500181367688135" lon="10.61620406021083"><ele>394.0</ele><time>2026-03-22T13:12:52.999Z</time></trkpt><trkpt lat="43.50009982834035" lon="10.616291074059905"><ele>396.0</ele><time>2026-03-22T13:12:53.999Z</time></trkpt><trkpt lat="43.50001636876676" lon="10.616371627218463"><ele>395.8</ele><time>2026-03-22T13:12:54.999Z</time></trkpt><trkpt lat="43.499926216911" lon="10.616427320389793"><ele>395.6</ele><time>2026-03-22T13:12:55.999Z</time></trkpt><trkpt lat="43.49983412263126" lon="10.616447660520834"><ele>395.4</ele><time>2026-03-22T13:12:56.999Z</time></trkpt><trkpt lat="43.49975073450775" lon="10.616382569748675"><ele>395.2</ele><time>2026-03-22T13:12:57.999Z</time></trkpt><trkpt lat="43.49965652044056" lon="10.616321867026521"><ele>395.0</ele><time>2026-03-22T13:12:58.999Z</time></trkpt><trkpt lat="43.49956495476345" lon="10.616280140589879"><ele>395.0</ele><time>2026-03-22T13:12:59.999Z</time></trkpt><trkpt lat="43.49946190090929" lon="10.616276527654142"><ele>395.0</ele><time>2026-03-22T13:13:00.999Z</time></trkpt><trkpt lat="43.49934934412336" lon="10.616291180884359"><ele>395.0</ele><time>2026-03-22T13:13:01.999Z</time></trkpt><trkpt lat="43.49924984567629" lon="10.616294692840885"><ele>395.0</ele><time>2026-03-22T13:13:02.999Z</time></trkpt><trkpt lat="43.49914356440494" lon="10.616230869038851"><ele>395.0</ele><time>2026-03-22T13:13:03.999Z</time></trkpt><trkpt lat="43.499050612605146" lon="10.616159540605818"><ele>397.2</ele><time>2026-03-22T13:13:04.999Z</time></trkpt><trkpt lat="43.49897292220349" lon="10.616102012769598"><ele>399.4</ele><time>2026-03-22T13:13:05.999Z</time></trkpt><trkpt lat="43.49893464796475" lon="10.616000225143617"><ele>401.6</ele><time>2026-03-22T13:13:07.999Z</time></trkpt><trkpt lat="43.4990200185974" lon="10.61594285279881"><ele>403.8</ele><time>2026-03-22T13:14:30Z</time></trkpt><trkpt lat="43.49909075062959" lon="10.615812240550348"><ele>406.0</ele><time>2026-03-22T13:14:32Z</time></trkpt><trkpt lat="43.499132759494856" lon="10.615723558730254"><ele>406.00000000000006</ele><time>2026-03-22T13:14:33Z</time></trkpt><trkpt lat="43.49917815174338" lon="10.615600340093518"><ele>406.0</ele><time>2026-03-22T13:14:34Z</time></trkpt><trkpt lat="43.499209511825434" lon="10.615491137846007"><ele>406.0</ele><time>2026-03-22T13:14:35Z</time></trkpt><trkpt lat="43.49920133964024" lon="10.61539182151425"><ele>406.0</ele><time>2026-03-22T13:14:36Z</time></trkpt><trkpt lat="43.499159065192856" lon="10.615301067578345"><ele>406.00000000000006</ele><time>2026-03-22T13:14:37Z</time></trkpt><trkpt lat="43.49909817234511" lon="10.615229542231997"><ele>406.0</ele><time>2026-03-22T13:14:38Z</time></trkpt><trkpt lat="43.49903107753731" lon="10.61516694394713"><ele>406.83333333333337</ele><time>2026-03-22T13:14:39Z</time></trkpt><trkpt lat="43.498951047458775" lon="10.615116934278356"><ele>407.6666666666667</ele><time>2026-03-22T13:14:40Z</time></trkpt><trkpt lat="43.49886036483001" lon="10.61509132368887"><ele>408.5</ele><time>2026-03-22T13:14:41Z</time></trkpt><trkpt lat="43.49875568409887" lon="10.615091571997253"><ele>409.33333333333337</ele><time>2026-03-22T13:14:42Z</time></trkpt><trkpt lat="43.498682824866464" lon="10.615096451432798"><ele>410.1666666666667</ele><time>2026-03-22T13:14:43Z</time></trkpt><trkpt lat="43.49862247435397" lon="10.615062625526647"><ele>411.0</ele><time>2026-03-22T13:14:44Z</time></trkpt><trkpt lat="43.4985672780449" lon="10.614984231230993"><ele>412.8</ele><time>2026-03-22T13:14:44.999Z</time></trkpt><trkpt lat="43.49852043395994" lon="10.614863467506437"><ele>414.6</ele><time>2026-03-22T13:14:45.999Z</time></trkpt><trkpt lat="43.49849712085246" lon="10.614714445067532"><ele>416.4</ele><time>2026-03-22T13:14:46.999Z</time></trkpt><trkpt lat="43.49846462758342" lon="10.614568125908674"><ele>418.2</ele><time>2026-03-22T13:14:47.999Z</time></trkpt><trkpt lat="43.498416864809194" lon="10.614423546200106"><ele>420.0</ele><time>2026-03-22T13:14:48.999Z</time></trkpt><trkpt lat="43.498368765214984" lon="10.614298693804663"><ele>420.0</ele><time>2026-03-22T13:14:49.999Z</time></trkpt><trkpt lat="43.49829414224124" lon="10.614178291151628"><ele>420.0</ele><time>2026-03-22T13:14:50.999Z</time></trkpt><trkpt lat="43.49824130772952" lon="10.614048267923618"><ele>420.0</ele><time>2026-03-22T13:14:51.999Z</time></trkpt><trkpt lat="43.49820838639183" lon="10.61392090629495"><ele>420.0</ele><time>2026-03-22T13:14:52.999Z</time></trkpt><trkpt lat="43.49818256932143" lon="10.613791918015322"><ele>420.0</ele><time>2026-03-22T13:14:53.999Z</time></trkpt><trkpt lat="43.49814623463198" lon="10.613666777789383"><ele>419.8333333333333</ele><time>2026-03-22T13:14:54.999Z</time></trkpt><trkpt lat="43.49811151798602" lon="10.613555805147664"><ele>419.66666666666663</ele><time>2026-03-22T13:14:55.999Z</time></trkpt><trkpt lat="43.49806070147953" lon="10.613463654026722"><ele>419.5</ele><time>2026-03-22T13:14:56.999Z</time></trkpt><trkpt lat="43.49801520107643" lon="10.613396465199441"><ele>419.3333333333333</ele><time>2026-03-22T13:14:57.999Z</time></trkpt><trkpt lat="43.49791708853651" lon="10.613323713177405"><ele>419.16666666666663</ele><time>2026-03-22T13:14:59.999Z</time></trkpt><trkpt lat="43.497824507247955" lon="10.613337515695601"><ele>419.0</ele><time>2026-03-22T13:15:01.999Z</time></trkpt><trkpt lat="43.49769539029474" lon="10.613363377044838"><ele>419.66666666666663</ele><time>2026-03-22T13:15:03.999Z</time></trkpt><trkpt lat="43.49763214726071" lon="10.613358269958052"><ele>420.3333333333333</ele><time>2026-03-22T13:15:04.999Z</time></trkpt><trkpt lat="43.49756033381838" lon="10.613327360852631"><ele>421.0</ele><time>2026-03-22T13:15:06.999Z</time></trkpt><trkpt lat="43.497493933246375" lon="10.613307060929461"><ele>421.66666666666663</ele><time>2026-03-22T13:15:09.999Z</time></trkpt><trkpt lat="43.49740366523724" lon="10.613279634516047"><ele>422.3333333333333</ele><time>2026-03-22T13:15:12.999Z</time></trkpt><trkpt lat="43.49730242101243" lon="10.613207740200476"><ele>423.0</ele><time>2026-03-22T13:15:14.999Z</time></trkpt><trkpt lat="43.49721457114751" lon="10.613148861058582"><ele>423.0</ele><time>2026-03-22T13:15:16.999Z</time></trkpt><trkpt lat="43.49715814901112" lon="10.61309854417045"><ele>423.0</ele><time>2026-03-22T13:17:17.999Z</time></trkpt><trkpt lat="43.497077370134996" lon="10.613002618129412"><ele>423.0</ele><time>2026-03-22T13:17:19.999Z</time></trkpt><trkpt lat="43.49700192407129" lon="10.612933278147908"><ele>423.0</ele><time>2026-03-22T13:17:20.999Z</time></trkpt><trkpt lat="43.49693747544661" lon="10.612840915749159"><ele>423.0</ele><time>2026-03-22T13:17:21.999Z</time></trkpt><trkpt lat="43.49686126797145" lon="10.612741677745426"><ele>423.59999999999997</ele><time>2026-03-22T13:17:22.999Z</time></trkpt><trkpt lat="43.49679722963797" lon="10.612629974724841"><ele>424.2</ele><time>2026-03-22T13:17:23.999Z</time></trkpt><trkpt lat="43.49673161177785" lon="10.612531413808636"><ele>424.8</ele><time>2026-03-22T13:17:24.999Z</time></trkpt><trkpt lat="43.496664107815576" lon="10.612450901994999"><ele>425.4</ele><time>2026-03-22T13:17:25.999Z</time></trkpt><trkpt lat="43.49658930660443" lon="10.612382073066742"><ele>426.0</ele><time>2026-03-22T13:17:26.999Z</time></trkpt><trkpt lat="43.496504667889646" lon="10.612304494364926"><ele>426.0</ele><time>2026-03-22T13:17:27.999Z</time></trkpt><trkpt lat="43.49641168640956" lon="10.612223134626685"><ele>426.0</ele><time>2026-03-22T13:17:28.999Z</time></trkpt><trkpt lat="43.49632113421427" lon="10.6121487567759"><ele>426.0</ele><time>2026-03-22T13:17:29.999Z</time></trkpt><trkpt lat="43.496251753591395" lon="10.612086001609864"><ele>426.0</ele><time>2026-03-22T13:17:30.999Z</time></trkpt><trkpt lat="43.49619830522508" lon="10.612028474701225"><ele>426.0</ele><time>2026-03-22T13:17:31.999Z</time></trkpt><trkpt lat="43.49611084985366" lon="10.611888420044904"><ele>426.20000000000005</ele><time>2026-03-22T13:17:33.999Z</time></trkpt><trkpt lat="43.49604190381842" lon="10.611773594047405"><ele>426.40000000000003</ele><time>2026-03-22T13:17:34.999Z</time></trkpt><trkpt lat="43.49598875559126" lon="10.61167653726765"><ele>426.6</ele><time>2026-03-22T13:17:35.999Z</time></trkpt><trkpt lat="43.495888565828885" lon="10.611545599206222"><ele>426.8</ele><time>2026-03-22T13:17:37.999Z</time></trkpt><trkpt lat="43.49583217109295" lon="10.61146420205768"><ele>427.0</ele><time>2026-03-22T13:17:38.999Z</time></trkpt><trkpt lat="43.49574315538421" lon="10.61133820922523"><ele>427.00000000000006</ele><time>2026-03-22T13:17:40.999Z</time></trkpt><trkpt lat="43.495682073728204" lon="10.611276552135667"><ele>427.0</ele><time>2026-03-22T13:17:41.999Z</time></trkpt><trkpt lat="43.495629538162746" lon="10.611197387860946"><ele>427.0</ele><time>2026-03-22T13:17:42.999Z</time></trkpt><trkpt lat="43.49557013426237" lon="10.611102098013513"><ele>427.0</ele><time>2026-03-22T13:17:43.999Z</time></trkpt><trkpt lat="43.4955119296729" lon="10.611015620565965"><ele>427.00000000000006</ele><time>2026-03-22T13:17:44.999Z</time></trkpt><trkpt lat="43.495434869783566" lon="10.610927843634471"><ele>427.0</ele><time>2026-03-22T13:17:46.999Z</time></trkpt><trkpt lat="43.49547229033381" lon="10.610857673672685"><ele>428.50000000000006</ele><time>2026-03-22T13:17:54.999Z</time></trkpt><trkpt lat="43.4955689330771" lon="10.610771579819493"><ele>430.0</ele><time>2026-03-22T13:17:56.999Z</time></trkpt><trkpt lat="43.495605872665685" lon="10.610685417208472"><ele>431.5</ele><time>2026-03-22T13:17:57.999Z</time></trkpt><trkpt lat="43.49560713162807" lon="10.610588056261196"><ele>433.0</ele><time>2026-03-22T13:17:58.999Z</time></trkpt><trkpt lat="43.49558437047741" lon="10.610476192847925"><ele>434.50000000000006</ele><time>2026-03-22T13:17:59.999Z</time></trkpt><trkpt lat="43.495570508786955" lon="10.610357792055444"><ele>436.0</ele><time>2026-03-22T13:18:00.999Z</time></trkpt><trkpt lat="43.495550832433274" lon="10.610248126830076"><ele>434.1666666666667</ele><time>2026-03-22T13:18:01.999Z</time></trkpt><trkpt lat="43.49551968437805" lon="10.610171974010374"><ele>432.33333333333337</ele><time>2026-03-22T13:18:03Z</time></trkpt><trkpt lat="43.49549072713612" lon="10.610068337332974"><ele>430.5</ele><time>2026-03-22T13:18:04Z</time></trkpt><trkpt lat="43.49544594493909" lon="10.609980391648646"><ele>428.66666666666663</ele><time>2026-03-22T13:18:05Z</time></trkpt><trkpt lat="43.495406300261216" lon="10.609904579469147"><ele>426.8333333333333</ele><time>2026-03-22T13:18:06Z</time></trkpt><trkpt lat="43.495353602251754" lon="10.609742086731899"><ele>425.0</ele><time>2026-03-22T13:18:08Z</time></trkpt><trkpt lat="43.495327038972775" lon="10.609656908651148"><ele>425.0</ele><time>2026-03-22T13:18:09Z</time></trkpt><trkpt lat="43.49529841906956" lon="10.609574568081712"><ele>425.0</ele><time>2026-03-22T13:18:10Z</time></trkpt><trkpt lat="43.49526015677808" lon="10.609420593517962"><ele>425.0</ele><time>2026-03-22T13:18:12Z</time></trkpt><trkpt lat="43.495247848466725" lon="10.609331789428676"><ele>425.0</ele><time>2026-03-22T13:18:13Z</time></trkpt><trkpt lat="43.49518862848857" lon="10.60920520214681"><ele>425.0</ele><time>2026-03-22T13:18:15Z</time></trkpt><trkpt lat="43.495167783978076" lon="10.609060599448517"><ele>427.4</ele><time>2026-03-22T13:18:17Z</time></trkpt><trkpt lat="43.495160619136705" lon="10.608908322462183"><ele>429.8</ele><time>2026-03-22T13:18:19Z</time></trkpt><trkpt lat="43.495230792533" lon="10.60874410655312"><ele>432.20000000000005</ele><time>2026-03-22T13:18:21Z</time></trkpt><trkpt lat="43.495300243721935" lon="10.608688710892258"><ele>434.6</ele><time>2026-03-22T13:18:22Z</time></trkpt><trkpt lat="43.49537728727227" lon="10.608677635185295"><ele>437.0</ele><time>2026-03-22T13:18:23Z</time></trkpt><trkpt lat="43.49545229203854" lon="10.608664536956946"><ele>441.0</ele><time>2026-03-22T13:18:24Z</time></trkpt><trkpt lat="43.49551505602697" lon="10.60861099397929"><ele>445.00000000000006</ele><time>2026-03-22T13:18:25Z</time></trkpt><trkpt lat="43.49556721792397" lon="10.608546149636998"><ele>449.00000000000006</ele><time>2026-03-22T13:18:26Z</time></trkpt><trkpt lat="43.49566996382499" lon="10.608434563334288"><ele>453.0</ele><time>2026-03-22T13:18:28Z</time></trkpt><trkpt lat="43.49570302019762" lon="10.60835441182905"><ele>457.0</ele><time>2026-03-22T13:18:29Z</time></trkpt><trkpt lat="43.495767878909945" lon="10.608212852983623"><ele>457.00000000000006</ele><time>2026-03-22T13:18:31Z</time></trkpt><trkpt lat="43.495828693246025" lon="10.608078256630058"><ele>457.0</ele><time>2026-03-22T13:18:33Z</time></trkpt><trkpt lat="43.49586682233936" lon="10.607995205191537"><ele>457.0</ele><time>2026-03-22T13:18:34Z</time></trkpt><trkpt lat="43.49589458228351" lon="10.607908430901483"><ele>457.0</ele><time>2026-03-22T13:18:35Z</time></trkpt><trkpt lat="43.4959010925019" lon="10.607818085883494"><ele>457.00000000000006</ele><time>2026-03-22T13:18:36Z</time></trkpt><trkpt lat="43.49589920169827" lon="10.607727056907402"><ele>457.0</ele><time>2026-03-22T13:18:37Z</time></trkpt><trkpt lat="43.495897694572356" lon="10.607631684552144"><ele>457.6666666666667</ele><time>2026-03-22T13:18:38Z</time></trkpt><trkpt lat="43.495899035577565" lon="10.607518801189402"><ele>458.33333333333337</ele><time>2026-03-22T13:18:39Z</time></trkpt><trkpt lat="43.49590591410676" lon="10.607416891570072"><ele>459.0</ele><time>2026-03-22T13:18:40Z</time></trkpt><trkpt lat="43.495944559488" lon="10.607325936695897"><ele>459.66666666666663</ele><time>2026-03-22T13:18:41Z</time></trkpt><trkpt lat="43.495991497668406" lon="10.607222660461128"><ele>460.3333333333333</ele><time>2026-03-22T13:18:42Z</time></trkpt><trkpt lat="43.496028096039815" lon="10.607076730044383"><ele>461.0</ele><time>2026-03-22T13:18:44Z</time></trkpt><trkpt lat="43.49610084802849" lon="10.60698068366963"><ele>462.16666666666663</ele><time>2026-03-22T13:18:46Z</time></trkpt><trkpt lat="43.49601454508112" lon="10.606857015543927"><ele>463.3333333333333</ele><time>2026-03-22T13:18:48Z</time></trkpt><trkpt lat="43.49594614063477" lon="10.60684625900846"><ele>464.5</ele><time>2026-03-22T13:18:49Z</time></trkpt><trkpt lat="43.49588285857513" lon="10.606840760462841"><ele>465.66666666666663</ele><time>2026-03-22T13:18:50Z</time></trkpt><trkpt lat="43.49581371170304" lon="10.606852510575788"><ele>466.8333333333333</ele><time>2026-03-22T13:18:51Z</time></trkpt><trkpt lat="43.49572776694483" lon="10.606799861369659"><ele>468.0</ele><time>2026-03-22T13:18:53Z</time></trkpt><trkpt lat="43.49567483769241" lon="10.606738530553905"><ele>468.0</ele><time>2026-03-22T13:18:55Z</time></trkpt><trkpt lat="43.49561074467154" lon="10.606633699223616"><ele>468.0</ele><time>2026-03-22T13:19:00.999Z</time></trkpt><trkpt lat="43.49560062008145" lon="10.606540497658749"><ele>468.0</ele><time>2026-03-22T13:19:01.999Z</time></trkpt><trkpt lat="43.495598754647474" lon="10.60644380322005"><ele>468.0</ele><time>2026-03-22T13:19:02.999Z</time></trkpt><trkpt lat="43.49562126512673" lon="10.606360749152289"><ele>468.0</ele><time>2026-03-22T13:19:03.999Z</time></trkpt><trkpt lat="43.495709241596536" lon="10.606233553880061"><ele>468.0</ele><time>2026-03-22T13:19:05.999Z</time></trkpt><trkpt lat="43.49574506695791" lon="10.606104281026308"><ele>467.4</ele><time>2026-03-22T13:19:07.999Z</time></trkpt><trkpt lat="43.495714973005676" lon="10.606007676729535"><ele>466.79999999999995</ele><time>2026-03-22T13:19:08.999Z</time></trkpt><trkpt lat="43.495669216467114" lon="10.605894695817831"><ele>466.2</ele><time>2026-03-22T13:19:09.999Z</time></trkpt><trkpt lat="43.49560664359928" lon="10.605779367993408"><ele>465.6</ele><time>2026-03-22T13:19:10.999Z</time></trkpt><trkpt lat="43.49554576508008" lon="10.605652908357209"><ele>465.0</ele><time>2026-03-22T13:19:11.999Z</time></trkpt><trkpt lat="43.495508892065544" lon="10.605518135090511"><ele>465.0</ele><time>2026-03-22T13:19:12.999Z</time></trkpt><trkpt lat="43.49547740969862" lon="10.605378799256254"><ele>465.0</ele><time>2026-03-22T13:19:13.999Z</time></trkpt><trkpt lat="43.49543704524178" lon="10.605226032235453"><ele>465.0</ele><time>2026-03-22T13:19:14.999Z</time></trkpt><trkpt lat="43.49542292502785" lon="10.605083649438296"><ele>465.0</ele><time>2026-03-22T13:19:15.999Z</time></trkpt><trkpt lat="43.49543060972229" lon="10.604928962992032"><ele>465.0</ele><time>2026-03-22T13:19:16.999Z</time></trkpt><trkpt lat="43.49542316320054" lon="10.6047851248372"><ele>464.6</ele><time>2026-03-22T13:19:17.999Z</time></trkpt><trkpt lat="43.49541440753743" lon="10.604654686002018"><ele>464.2</ele><time>2026-03-22T13:19:18.999Z</time></trkpt><trkpt lat="43.49540147051786" lon="10.604529552042248"><ele>463.79999999999995</ele><time>2026-03-22T13:19:19.999Z</time></trkpt><trkpt lat="43.49535972605034" lon="10.60439650479012"><ele>463.4</ele><time>2026-03-22T13:19:20.999Z</time></trkpt><trkpt lat="43.495313002876024" lon="10.604272064592825"><ele>463.0</ele><time>2026-03-22T13:19:21.999Z</time></trkpt><trkpt lat="43.49524538624041" lon="10.604162085292682"><ele>464.2</ele><time>2026-03-22T13:19:22.999Z</time></trkpt><trkpt lat="43.49516174684289" lon="10.604089738139095"><ele>465.4</ele><time>2026-03-22T13:19:23.999Z</time></trkpt><trkpt lat="43.49506023242553" lon="10.604051295177527"><ele>466.59999999999997</ele><time>2026-03-22T13:19:24.999Z</time></trkpt><trkpt lat="43.49494956832523" lon="10.604048893418435"><ele>467.79999999999995</ele><time>2026-03-22T13:19:25.999Z</time></trkpt><trkpt lat="43.49484865131549" lon="10.604070300348775"><ele>469.0</ele><time>2026-03-22T13:19:26.999Z</time></trkpt><trkpt lat="43.49475592131722" lon="10.604086272363329"><ele>469.0</ele><time>2026-03-22T13:19:27.999Z</time></trkpt><trkpt lat="43.494660518952884" lon="10.604083867241762"><ele>469.0</ele><time>2026-03-22T13:19:28.999Z</time></trkpt><trkpt lat="43.494565845249966" lon="10.604049066586024"><ele>469.0</ele><time>2026-03-22T13:19:29.999Z</time></trkpt><trkpt lat="43.494488232562844" lon="10.6039917957472"><ele>469.0</ele><time>2026-03-22T13:19:30.999Z</time></trkpt><trkpt lat="43.49441155084958" lon="10.603903725076883"><ele>469.0</ele><time>2026-03-22T13:19:31.999Z</time></trkpt><trkpt lat="43.49433739384786" lon="10.603809173930271"><ele>469.0</ele><time>2026-03-22T13:19:32.999Z</time></trkpt><trkpt lat="43.49428231759894" lon="10.603690207360383"><ele>469.0</ele><time>2026-03-22T13:19:33.999Z</time></trkpt><trkpt lat="43.49422067564039" lon="10.603591279589596"><ele>469.0</ele><time>2026-03-22T13:19:34.999Z</time></trkpt><trkpt lat="43.494142115315135" lon="10.603475657397459"><ele>469.0</ele><time>2026-03-22T13:19:35.999Z</time></trkpt><trkpt lat="43.49407131943566" lon="10.603351136076101"><ele>469.0</ele><time>2026-03-22T13:19:36.999Z</time></trkpt><trkpt lat="43.49401157364432" lon="10.603207764706315"><ele>469.0</ele><time>2026-03-22T13:19:37.999Z</time></trkpt><trkpt lat="43.49395479407946" lon="10.603067888566837"><ele>469.0</ele><time>2026-03-22T13:19:38.999Z</time></trkpt><trkpt lat="43.49390004537365" lon="10.602953857173638"><ele>469.0</ele><time>2026-03-22T13:19:39.999Z</time></trkpt><trkpt lat="43.4938495663638" lon="10.602848995398713"><ele>469.0</ele><time>2026-03-22T13:19:40.999Z</time></trkpt><trkpt lat="43.49382994869578" lon="10.602704384543589"><ele>469.0</ele><time>2026-03-22T13:19:41.999Z</time></trkpt><trkpt lat="43.49380740932858" lon="10.60253321687606"><ele>469.33333333333337</ele><time>2026-03-22T13:19:42.999Z</time></trkpt><trkpt lat="43.493802811548065" lon="10.602396170710334"><ele>469.6666666666667</ele><time>2026-03-22T13:19:43.999Z</time></trkpt><trkpt lat="43.49379684647084" lon="10.602271657460165"><ele>470.0</ele><time>2026-03-22T13:19:44.999Z</time></trkpt><trkpt lat="43.493733144377" lon="10.602165639706987"><ele>470.33333333333337</ele><time>2026-03-22T13:19:46.999Z</time></trkpt><trkpt lat="43.49366510294422" lon="10.6021985673599"><ele>470.6666666666667</ele><time>2026-03-22T13:19:48.999Z</time></trkpt><trkpt lat="43.493595898950446" lon="10.602249207737572"><ele>471.0</ele><time>2026-03-22T13:19:50.999Z</time></trkpt><trkpt lat="43.49353779314177" lon="10.602174422419935"><ele>469.1666666666667</ele><time>2026-03-22T13:19:53.999Z</time></trkpt><trkpt lat="43.4934396186869" lon="10.602195450402757"><ele>467.33333333333337</ele><time>2026-03-22T13:19:55.999Z</time></trkpt><trkpt lat="43.49337477620242" lon="10.6022131223268"><ele>465.5</ele><time>2026-03-22T13:19:56.999Z</time></trkpt><trkpt lat="43.49329222654597" lon="10.602233479652176"><ele>463.6666666666667</ele><time>2026-03-22T13:19:57.999Z</time></trkpt><trkpt lat="43.49320547781746" lon="10.602258057177501"><ele>461.83333333333337</ele><time>2026-03-22T13:19:58.999Z</time></trkpt><trkpt lat="43.49312256587274" lon="10.602275194048035"><ele>460.0</ele><time>2026-03-22T13:19:59.999Z</time></trkpt><trkpt lat="43.49304522664038" lon="10.602295721385138"><ele>460.0</ele><time>2026-03-22T13:20:00.999Z</time></trkpt><trkpt lat="43.492969062402224" lon="10.602334011789129"><ele>460.0</ele><time>2026-03-22T13:20:01.999Z</time></trkpt><trkpt lat="43.49289856135436" lon="10.602371862647612"><ele>460.0</ele><time>2026-03-22T13:20:02.999Z</time></trkpt><trkpt lat="43.492834408547026" lon="10.602399399613875"><ele>460.0</ele><time>2026-03-22T13:20:03.999Z</time></trkpt><trkpt lat="43.492686460873465" lon="10.602354238065198"><ele>460.0</ele><time>2026-03-22T13:20:05.999Z</time></trkpt><trkpt lat="43.49259435245078" lon="10.60232184327203"><ele>459.50000000000006</ele><time>2026-03-22T13:20:06.999Z</time></trkpt><trkpt lat="43.49250839927698" lon="10.602275398889722"><ele>459.0</ele><time>2026-03-22T13:20:07.999Z</time></trkpt><trkpt lat="43.49243133205137" lon="10.602250525073384"><ele>458.5</ele><time>2026-03-22T13:20:09Z</time></trkpt><trkpt lat="43.492358184867165" lon="10.60220196380979"><ele>458.0</ele><time>2026-03-22T13:20:10Z</time></trkpt><trkpt lat="43.492307723618005" lon="10.60214225037232"><ele>457.50000000000006</ele><time>2026-03-22T13:20:11Z</time></trkpt><trkpt lat="43.49227263398816" lon="10.602065703630231"><ele>457.0</ele><time>2026-03-22T13:20:12Z</time></trkpt><trkpt lat="43.492259616113756" lon="10.60196659019086"><ele>457.00000000000006</ele><time>2026-03-22T13:20:13Z</time></trkpt><trkpt lat="43.49218516646401" lon="10.601898962345095"><ele>457.0</ele><time>2026-03-22T13:20:14Z</time></trkpt><trkpt lat="43.49209124797165" lon="10.601849869080457"><ele>457.0</ele><time>2026-03-22T13:20:15Z</time></trkpt><trkpt lat="43.4920000387574" lon="10.601790473116221"><ele>457.0</ele><time>2026-03-22T13:20:16Z</time></trkpt><trkpt lat="43.49192446491453" lon="10.60173047841711"><ele>457.00000000000006</ele><time>2026-03-22T13:20:17Z</time></trkpt><trkpt lat="43.491874316672416" lon="10.60167310434001"><ele>457.0</ele><time>2026-03-22T13:20:18Z</time></trkpt><trkpt lat="43.49181261019317" lon="10.60163655716063"><ele>455.0</ele><time>2026-03-22T13:20:19Z</time></trkpt><trkpt lat="43.49172779898397" lon="10.601622102156504"><ele>453.00000000000006</ele><time>2026-03-22T13:20:20Z</time></trkpt><trkpt lat="43.49165080118558" lon="10.601654780902296"><ele>451.00000000000006</ele><time>2026-03-22T13:20:21Z</time></trkpt><trkpt lat="43.49157595632868" lon="10.601717168310106"><ele>449.0</ele><time>2026-03-22T13:20:22Z</time></trkpt><trkpt lat="43.49148672121822" lon="10.60179706303841"><ele>447.0</ele><time>2026-03-22T13:20:23Z</time></trkpt><trkpt lat="43.491377249620626" lon="10.601876206300808"><ele>447.0</ele><time>2026-03-22T13:20:24Z</time></trkpt><trkpt lat="43.49129984119679" lon="10.60195182135391"><ele>447.00000000000006</ele><time>2026-03-22T13:20:25Z</time></trkpt><trkpt lat="43.49124157603703" lon="10.602053441765893"><ele>447.00000000000006</ele><time>2026-03-22T13:20:26Z</time></trkpt><trkpt lat="43.491182066875055" lon="10.602170666728243"><ele>447.0</ele><time>2026-03-22T13:20:27Z</time></trkpt><trkpt lat="43.49113052840735" lon="10.602307408665032"><ele>447.0</ele><time>2026-03-22T13:20:28Z</time></trkpt><trkpt lat="43.49106724708404" lon="10.60243772445023"><ele>446.6</ele><time>2026-03-22T13:20:29Z</time></trkpt><trkpt lat="43.49099875563958" lon="10.602549185450249"><ele>446.20000000000005</ele><time>2026-03-22T13:20:30Z</time></trkpt><trkpt lat="43.49093150827523" lon="10.602669007693708"><ele>445.8</ele><time>2026-03-22T13:20:31Z</time></trkpt><trkpt lat="43.49084617382634" lon="10.602750734395302"><ele>445.4</ele><time>2026-03-22T13:20:32Z</time></trkpt><trkpt lat="43.49076011684937" lon="10.602823849037021"><ele>445.0</ele><time>2026-03-22T13:20:33Z</time></trkpt><trkpt lat="43.49067196349699" lon="10.602887844108098"><ele>445.00000000000006</ele><time>2026-03-22T13:20:34Z</time></trkpt><trkpt lat="43.49058875919448" lon="10.602932586057465"><ele>445.0</ele><time>2026-03-22T13:20:35Z</time></trkpt><trkpt lat="43.490522052323634" lon="10.602974429174957"><ele>445.0</ele><time>2026-03-22T13:20:36Z</time></trkpt><trkpt lat="43.490445107215066" lon="10.602988912269447"><ele>445.0</ele><time>2026-03-22T13:20:39Z</time></trkpt><trkpt lat="43.490410460503945" lon="10.60287215971576"><ele>445.00000000000006</ele><time>2026-03-22T13:20:52Z</time></trkpt><trkpt lat="43.49044345792073" lon="10.60279697774299"><ele>445.0</ele><time>2026-03-22T13:20:53Z</time></trkpt><trkpt lat="43.490470474409726" lon="10.602664603846605"><ele>446.4</ele><time>2026-03-22T13:20:55Z</time></trkpt><trkpt lat="43.49042916405021" lon="10.602496364592922"><ele>447.8</ele><time>2026-03-22T13:20:57Z</time></trkpt><trkpt lat="43.49041803901961" lon="10.60239598480746"><ele>449.20000000000005</ele><time>2026-03-22T13:20:58Z</time></trkpt><trkpt lat="43.49040884219019" lon="10.602297977611736"><ele>450.6</ele><time>2026-03-22T13:20:59Z</time></trkpt><trkpt lat="43.490407250665875" lon="10.60214490694959"><ele>452.0</ele><time>2026-03-22T13:21:00.999Z</time></trkpt><trkpt lat="43.49040085826661" lon="10.602020996149522"><ele>455.3333333333333</ele><time>2026-03-22T13:21:02.999Z</time></trkpt><trkpt lat="43.49036362586543" lon="10.601866603179984"><ele>458.66666666666663</ele><time>2026-03-22T13:21:04.999Z</time></trkpt><trkpt lat="43.49034453145531" lon="10.601722343158984"><ele>462.0</ele><time>2026-03-22T13:21:06.999Z</time></trkpt><trkpt lat="43.49031364957783" lon="10.60164120081457"><ele>465.33333333333337</ele><time>2026-03-22T13:21:07.999Z</time></trkpt><trkpt lat="43.4902793948316" lon="10.601551781505455"><ele>468.6666666666667</ele><time>2026-03-22T13:21:08.999Z</time></trkpt><trkpt lat="43.49025353923493" lon="10.601461672994382"><ele>472.0</ele><time>2026-03-22T13:21:09.999Z</time></trkpt><trkpt lat="43.490233196385" lon="10.60136665521286"><ele>472.00000000000006</ele><time>2026-03-22T13:21:10.999Z</time></trkpt><trkpt lat="43.490213080200405" lon="10.601279970589912"><ele>472.0</ele><time>2026-03-22T13:21:11.999Z</time></trkpt><trkpt lat="43.49014375000921" lon="10.601162698552882"><ele>472.0</ele><time>2026-03-22T13:21:13.999Z</time></trkpt><trkpt lat="43.490089552046044" lon="10.60110400568684"><ele>472.0</ele><time>2026-03-22T13:21:14.999Z</time></trkpt><trkpt lat="43.49004182780336" lon="10.601046365590868"><ele>472.00000000000006</ele><time>2026-03-22T13:21:15.999Z</time></trkpt><trkpt lat="43.48999233733206" lon="10.600958366174382"><ele>472.0</ele><time>2026-03-22T13:21:17.999Z</time></trkpt><trkpt lat="43.489962641407175" lon="10.6008677520199"><ele>472.6666666666667</ele><time>2026-03-22T13:21:18.999Z</time></trkpt><trkpt lat="43.489937813879905" lon="10.600777499394693"><ele>473.33333333333337</ele><time>2026-03-22T13:21:19.999Z</time></trkpt><trkpt lat="43.489894773023714" lon="10.600686581991628"><ele>474.0</ele><time>2026-03-22T13:21:20.999Z</time></trkpt><trkpt lat="43.48982390672431" lon="10.600603294163188"><ele>474.66666666666663</ele><time>2026-03-22T13:21:21.999Z</time></trkpt><trkpt lat="43.48978037755944" lon="10.600521967509271"><ele>475.3333333333333</ele><time>2026-03-22T13:21:22.999Z</time></trkpt><trkpt lat="43.48974223313697" lon="10.600435993792264"><ele>476.0</ele><time>2026-03-22T13:21:23.999Z</time></trkpt><trkpt lat="43.48971206421295" lon="10.600339314124357"><ele>475.99999999999994</ele><time>2026-03-22T13:21:24.999Z</time></trkpt><trkpt lat="43.48967963697219" lon="10.600248893866496"><ele>476.0</ele><time>2026-03-22T13:21:25.999Z</time></trkpt><trkpt lat="43.48964217770915" lon="10.600151718669881"><ele>476.0</ele><time>2026-03-22T13:21:26.999Z</time></trkpt><trkpt lat="43.48959842346014" lon="10.600051612945697"><ele>476.0</ele><time>2026-03-22T13:21:27.999Z</time></trkpt><trkpt lat="43.48955061370869" lon="10.599960197014163"><ele>475.99999999999994</ele><time>2026-03-22T13:21:28.999Z</time></trkpt><trkpt lat="43.48950699784221" lon="10.59987114516596"><ele>476.0</ele><time>2026-03-22T13:21:29.999Z</time></trkpt><trkpt lat="43.48943737731033" lon="10.599774843873412"><ele>477.3333333333333</ele><time>2026-03-22T13:21:30.999Z</time></trkpt><trkpt lat="43.48937968231254" lon="10.599699160355577"><ele>478.66666666666663</ele><time>2026-03-22T13:21:31.999Z</time></trkpt><trkpt lat="43.48931045364447" lon="10.599632711367926"><ele>480.0</ele><time>2026-03-22T13:21:33.999Z</time></trkpt><trkpt lat="43.48924581047119" lon="10.599586903777256"><ele>481.33333333333337</ele><time>2026-03-22T13:21:44.999Z</time></trkpt><trkpt lat="43.489182957241454" lon="10.599526499444602"><ele>482.6666666666667</ele><time>2026-03-22T13:21:45.999Z</time></trkpt><trkpt lat="43.48912032618628" lon="10.599440671384544"><ele>484.0</ele><time>2026-03-22T13:21:46.999Z</time></trkpt><trkpt lat="43.48904631471196" lon="10.599323783479004"><ele>484.79999999999995</ele><time>2026-03-22T13:21:47.999Z</time></trkpt><trkpt lat="43.48895218734495" lon="10.599197911287083"><ele>485.59999999999997</ele><time>2026-03-22T13:21:48.999Z</time></trkpt><trkpt lat="43.48889452190728" lon="10.599116054558163"><ele>486.4</ele><time>2026-03-22T13:21:49.999Z</time></trkpt><trkpt lat="43.48883216068452" lon="10.599021409911579"><ele>487.2</ele><time>2026-03-22T13:21:50.999Z</time></trkpt><trkpt lat="43.48879593786908" lon="10.59892031002643"><ele>488.0</ele><time>2026-03-22T13:21:51.999Z</time></trkpt><trkpt lat="43.48877504564578" lon="10.598799349196433"><ele>488.2</ele><time>2026-03-22T13:21:52.999Z</time></trkpt><trkpt lat="43.48874985708323" lon="10.59867163974283"><ele>488.4</ele><time>2026-03-22T13:21:53.999Z</time></trkpt><trkpt lat="43.48872297344798" lon="10.598549485661236"><ele>488.59999999999997</ele><time>2026-03-22T13:21:54.999Z</time></trkpt><trkpt lat="43.48868376066851" lon="10.598417710186807"><ele>488.79999999999995</ele><time>2026-03-22T13:21:55.999Z</time></trkpt><trkpt lat="43.48863814532231" lon="10.598266151537441"><ele>489.0</ele><time>2026-03-22T13:21:56.999Z</time></trkpt><trkpt lat="43.48862129344873" lon="10.598130877980426"><ele>489.6666666666667</ele><time>2026-03-22T13:21:57.999Z</time></trkpt><trkpt lat="43.48860924175302" lon="10.598017782100317"><ele>490.33333333333337</ele><time>2026-03-22T13:21:58.999Z</time></trkpt><trkpt lat="43.488563201511624" lon="10.597915718997104"><ele>491.0</ele><time>2026-03-22T13:21:59.999Z</time></trkpt><trkpt lat="43.48851768860023" lon="10.597807505759604"><ele>491.6666666666667</ele><time>2026-03-22T13:22:00.999Z</time></trkpt><trkpt lat="43.48846623136295" lon="10.597699516299663"><ele>492.33333333333337</ele><time>2026-03-22T13:22:01.999Z</time></trkpt><trkpt lat="43.48843544469616" lon="10.597612775446025"><ele>493.0</ele><time>2026-03-22T13:22:02.999Z</time></trkpt><trkpt lat="43.48842690108831" lon="10.597489696418966"><ele>493.00000000000006</ele><time>2026-03-22T13:22:04.999Z</time></trkpt><trkpt lat="43.48834003476106" lon="10.597544578974718"><ele>493.0</ele><time>2026-03-22T13:22:08.999Z</time></trkpt><trkpt lat="43.48827247260674" lon="10.59767247865785"><ele>493.0</ele><time>2026-03-22T13:22:10.999Z</time></trkpt><trkpt lat="43.488214662080956" lon="10.597721739741933"><ele>493.0</ele><time>2026-03-22T13:22:11.999Z</time></trkpt><trkpt lat="43.488159203068584" lon="10.597771198957405"><ele>493.00000000000006</ele><time>2026-03-22T13:22:12.999Z</time></trkpt><trkpt lat="43.48810195531984" lon="10.59782219771451"><ele>493.0</ele><time>2026-03-22T13:22:13.999Z</time></trkpt><trkpt lat="43.488039137559475" lon="10.597882367718944"><ele>493.0</ele><time>2026-03-22T13:22:15Z</time></trkpt><trkpt lat="43.48798501328104" lon="10.59796741000497"><ele>492.99999999999994</ele><time>2026-03-22T13:22:16Z</time></trkpt><trkpt lat="43.48794161129" lon="10.598076345654428"><ele>492.99999999999994</ele><time>2026-03-22T13:22:17Z</time></trkpt><trkpt lat="43.4879011251543" lon="10.598199456667311"><ele>493.0</ele><time>2026-03-22T13:22:18Z</time></trkpt><trkpt lat="43.48785351347983" lon="10.598323907599001"><ele>493.0</ele><time>2026-03-22T13:22:19Z</time></trkpt><trkpt lat="43.48781700836404" lon="10.598465320270611"><ele>493.25</ele><time>2026-03-22T13:22:20Z</time></trkpt><trkpt lat="43.48778274622395" lon="10.598607174653392"><ele>493.5</ele><time>2026-03-22T13:22:21Z</time></trkpt><trkpt lat="43.487726652679235" lon="10.598735426034738"><ele>493.75</ele><time>2026-03-22T13:22:22Z</time></trkpt><trkpt lat="43.48765495559087" lon="10.598860094055896"><ele>494.0</ele><time>2026-03-22T13:22:23Z</time></trkpt><trkpt lat="43.4875715019501" lon="10.59897687221927"><ele>494.0</ele><time>2026-03-22T13:22:24Z</time></trkpt><trkpt lat="43.48749060505784" lon="10.599096155412033"><ele>494.0</ele><time>2026-03-22T13:22:25Z</time></trkpt><trkpt lat="43.48740986534566" lon="10.599219657827561"><ele>494.0</ele><time>2026-03-22T13:22:26Z</time></trkpt><trkpt lat="43.487324561517454" lon="10.599337495391085"><ele>494.0</ele><time>2026-03-22T13:22:27Z</time></trkpt><trkpt lat="43.48723755784746" lon="10.599458183251622"><ele>494.0</ele><time>2026-03-22T13:22:28Z</time></trkpt><trkpt lat="43.487149583984106" lon="10.599566949299888"><ele>494.0</ele><time>2026-03-22T13:22:29Z</time></trkpt><trkpt lat="43.487064769001236" lon="10.59965211640182"><ele>494.0</ele><time>2026-03-22T13:22:30Z</time></trkpt><trkpt lat="43.486976957159975" lon="10.599718397060656"><ele>494.0</ele><time>2026-03-22T13:22:31Z</time></trkpt><trkpt lat="43.48687321410156" lon="10.599763612501123"><ele>494.0</ele><time>2026-03-22T13:22:32Z</time></trkpt><trkpt lat="43.48676255849798" lon="10.599785577351827"><ele>495.6</ele><time>2026-03-22T13:22:33Z</time></trkpt><trkpt lat="43.486667536779905" lon="10.599779643815806"><ele>497.2</ele><time>2026-03-22T13:22:34Z</time></trkpt><trkpt lat="43.486596872921126" lon="10.599745471783088"><ele>498.80000000000007</ele><time>2026-03-22T13:22:35Z</time></trkpt><trkpt lat="43.48651738241439" lon="10.599660560867633"><ele>500.40000000000003</ele><time>2026-03-22T13:22:37Z</time></trkpt><trkpt lat="43.48643808381489" lon="10.599638771654321"><ele>502.0</ele><time>2026-03-22T13:22:40Z</time></trkpt><trkpt lat="43.48631285720621" lon="10.599657856725994"><ele>503.25</ele><time>2026-03-22T13:22:42Z</time></trkpt><trkpt lat="43.48620616640085" lon="10.599639405230583"><ele>504.5</ele><time>2026-03-22T13:22:43Z</time></trkpt><trkpt lat="43.486089460780555" lon="10.599613589982553"><ele>505.75</ele><time>2026-03-22T13:22:44Z</time></trkpt><trkpt lat="43.48594328379182" lon="10.599597414599632"><ele>507.0</ele><time>2026-03-22T13:22:45Z</time></trkpt><trkpt lat="43.48580288034333" lon="10.599619343651211"><ele>507.0</ele><time>2026-03-22T13:22:46Z</time></trkpt><trkpt lat="43.485677108958676" lon="10.599660428767738"><ele>507.0</ele><time>2026-03-22T13:22:47Z</time></trkpt><trkpt lat="43.48555526059938" lon="10.599697887938982"><ele>507.0</ele><time>2026-03-22T13:22:48Z</time></trkpt><trkpt lat="43.48545398980302" lon="10.599791111447857"><ele>507.0</ele><time>2026-03-22T13:22:49Z</time></trkpt><trkpt lat="43.48531623098433" lon="10.599852828300634"><ele>506.5</ele><time>2026-03-22T13:22:50Z</time></trkpt><trkpt lat="43.48517674722047" lon="10.599895981493743"><ele>506.0</ele><time>2026-03-22T13:22:51Z</time></trkpt><trkpt lat="43.48504722721738" lon="10.599969663400424"><ele>505.5</ele><time>2026-03-22T13:22:52Z</time></trkpt><trkpt lat="43.48490035373804" lon="10.600023483461351"><ele>505.0</ele><time>2026-03-22T13:22:53Z</time></trkpt><trkpt lat="43.484751386965776" lon="10.60003743233514"><ele>505.0</ele><time>2026-03-22T13:22:54Z</time></trkpt><trkpt lat="43.4845987939476" lon="10.600015075359828"><ele>505.0</ele><time>2026-03-22T13:22:55Z</time></trkpt><trkpt lat="43.484454171508936" lon="10.60002308505589"><ele>505.0</ele><time>2026-03-22T13:22:56Z</time></trkpt><trkpt lat="43.484328621565844" lon="10.600042710122304"><ele>505.0</ele><time>2026-03-22T13:22:57Z</time></trkpt><trkpt lat="43.484200705292" lon="10.600057582424977"><ele>504.5</ele><time>2026-03-22T13:22:58Z</time></trkpt><trkpt lat="43.484066287411615" lon="10.600078489078566"><ele>504.0</ele><time>2026-03-22T13:22:59Z</time></trkpt><trkpt lat="43.48393794449748" lon="10.600095878892649"><ele>503.5</ele><time>2026-03-22T13:23:00Z</time></trkpt><trkpt lat="43.48380582707429" lon="10.600094734705426"><ele>503.0</ele><time>2026-03-22T13:23:01Z</time></trkpt><trkpt lat="43.48366114786645" lon="10.600022834219853"><ele>501.5</ele><time>2026-03-22T13:23:02Z</time></trkpt><trkpt lat="43.48352707548132" lon="10.600000536791333"><ele>500.0</ele><time>2026-03-22T13:23:03Z</time></trkpt><trkpt lat="43.483395189986666" lon="10.599956376515655"><ele>498.5</ele><time>2026-03-22T13:23:04Z</time></trkpt><trkpt lat="43.4832875136105" lon="10.599893330156057"><ele>497.0</ele><time>2026-03-22T13:23:05Z</time></trkpt><trkpt lat="43.48316803089537" lon="10.599828149474886"><ele>497.0</ele><time>2026-03-22T13:23:06Z</time></trkpt><trkpt lat="43.48306021081113" lon="10.599764172498496"><ele>497.0</ele><time>2026-03-22T13:23:07Z</time></trkpt><trkpt lat="43.48294652042536" lon="10.599686207224236"><ele>497.0</ele><time>2026-03-22T13:23:07.999Z</time></trkpt><trkpt lat="43.482842654571805" lon="10.599611848831929"><ele>497.0</ele><time>2026-03-22T13:23:08.999Z</time></trkpt><trkpt lat="43.48272623908024" lon="10.599543629522021"><ele>496.8</ele><time>2026-03-22T13:23:09.999Z</time></trkpt><trkpt lat="43.48261877097514" lon="10.599489837278089"><ele>496.6</ele><time>2026-03-22T13:23:10.999Z</time></trkpt><trkpt lat="43.48253673433699" lon="10.599441030686249"><ele>496.40000000000003</ele><time>2026-03-22T13:23:11.999Z</time></trkpt><trkpt lat="43.48246320555175" lon="10.59941052651736"><ele>496.20000000000005</ele><time>2026-03-22T13:23:12.999Z</time></trkpt><trkpt lat="43.48237391507873" lon="10.599397764938734"><ele>496.0</ele><time>2026-03-22T13:23:14.999Z</time></trkpt><trkpt lat="43.482314638817726" lon="10.599501196843963"><ele>495.6666666666667</ele><time>2026-03-22T13:23:16.999Z</time></trkpt><trkpt lat="43.48228649204778" lon="10.599593837407165"><ele>495.33333333333337</ele><time>2026-03-22T13:23:17.999Z</time></trkpt><trkpt lat="43.482241653752716" lon="10.599671638464299"><ele>495.0</ele><time>2026-03-22T13:23:18.999Z</time></trkpt><trkpt lat="43.482188739094234" lon="10.59974487194445"><ele>494.66666666666663</ele><time>2026-03-22T13:23:19.999Z</time></trkpt><trkpt lat="43.482144596516754" lon="10.599849557032202"><ele>494.3333333333333</ele><time>2026-03-22T13:23:20.999Z</time></trkpt><trkpt lat="43.482099604388566" lon="10.599920733165353"><ele>494.0</ele><time>2026-03-22T13:23:21.999Z</time></trkpt><trkpt lat="43.482034699659025" lon="10.599971443556814"><ele>494.8571428571429</ele><time>2026-03-22T13:23:22.999Z</time></trkpt><trkpt lat="43.48196192227632" lon="10.59999129188695"><ele>495.71428571428567</ele><time>2026-03-22T13:23:23.999Z</time></trkpt><trkpt lat="43.481881988079294" lon="10.599991388696079"><ele>496.57142857142856</ele><time>2026-03-22T13:23:24.999Z</time></trkpt><trkpt lat="43.48181612226404" lon="10.600016410120865"><ele>497.42857142857144</ele><time>2026-03-22T13:23:25.999Z</time></trkpt><trkpt lat="43.48175336780567" lon="10.600052757716284"><ele>498.28571428571433</ele><time>2026-03-22T13:23:26.999Z</time></trkpt><trkpt lat="43.481733582198146" lon="10.600144707008276"><ele>499.1428571428571</ele><time>2026-03-22T13:23:27.999Z</time></trkpt><trkpt lat="43.48174835366856" lon="10.60025521128344"><ele>500.0</ele><time>2026-03-22T13:23:28.999Z</time></trkpt><trkpt lat="43.48173671507784" lon="10.600358475702535"><ele>500.0</ele><time>2026-03-22T13:23:29.999Z</time></trkpt><trkpt lat="43.48170356980718" lon="10.60045346859588"><ele>500.0</ele><time>2026-03-22T13:23:30.999Z</time></trkpt><trkpt lat="43.48164653329626" lon="10.600548269360099"><ele>500.0</ele><time>2026-03-22T13:23:31.999Z</time></trkpt><trkpt lat="43.48157233511128" lon="10.60063039057117"><ele>500.0</ele><time>2026-03-22T13:23:32.999Z</time></trkpt><trkpt lat="43.48150000127315" lon="10.60073618156081"><ele>500.0</ele><time>2026-03-22T13:23:33.999Z</time></trkpt><trkpt lat="43.48146170187781" lon="10.600839418047402"><ele>499.99999999999994</ele><time>2026-03-22T13:23:34.999Z</time></trkpt><trkpt lat="43.4814272098279" lon="10.60093381270439"><ele>500.0</ele><time>2026-03-22T13:23:35.999Z</time></trkpt><trkpt lat="43.48138213434446" lon="10.600997336366941"><ele>500.0</ele><time>2026-03-22T13:23:36.999Z</time></trkpt><trkpt lat="43.48131489714289" lon="10.601064486854309"><ele>500.0</ele><time>2026-03-22T13:23:37.999Z</time></trkpt><trkpt lat="43.48124052161255" lon="10.601153237674136"><ele>499.99999999999994</ele><time>2026-03-22T13:23:38.999Z</time></trkpt><trkpt lat="43.48115414967589" lon="10.601225290183127"><ele>500.0</ele><time>2026-03-22T13:23:39.999Z</time></trkpt><trkpt lat="43.481081814844586" lon="10.60132366123975"><ele>501.66666666666663</ele><time>2026-03-22T13:23:40.999Z</time></trkpt><trkpt lat="43.48100527961449" lon="10.601446979002972"><ele>503.3333333333333</ele><time>2026-03-22T13:23:41.999Z</time></trkpt><trkpt lat="43.48094380779467" lon="10.60153384472046"><ele>505.0</ele><time>2026-03-22T13:23:42.999Z</time></trkpt><trkpt lat="43.480900967868436" lon="10.601624867325572"><ele>506.66666666666663</ele><time>2026-03-22T13:23:43.999Z</time></trkpt><trkpt lat="43.480897536213426" lon="10.601712388744275"><ele>508.3333333333333</ele><time>2026-03-22T13:23:44.999Z</time></trkpt><trkpt lat="43.480827939327604" lon="10.601759682792775"><ele>510.0</ele><time>2026-03-22T13:23:50.999Z</time></trkpt><trkpt lat="43.480753473641535" lon="10.601818521922079"><ele>510.0</ele><time>2026-03-22T13:23:53.999Z</time></trkpt><trkpt lat="43.48067862175357" lon="10.601929742351745"><ele>510.0</ele><time>2026-03-22T13:23:54.999Z</time></trkpt><trkpt lat="43.48060749426366" lon="10.601997368459442"><ele>510.0</ele><time>2026-03-22T13:23:55.999Z</time></trkpt><trkpt lat="43.48052594378405" lon="10.602099377676348"><ele>510.0</ele><time>2026-03-22T13:23:57.999Z</time></trkpt><trkpt lat="43.48046816811365" lon="10.602136631727536"><ele>510.0</ele><time>2026-03-22T13:23:58.999Z</time></trkpt><trkpt lat="43.48036987345498" lon="10.602153956789312"><ele>512.2</ele><time>2026-03-22T13:24:00.999Z</time></trkpt><trkpt lat="43.48031007038165" lon="10.60209615391671"><ele>514.4</ele><time>2026-03-22T13:24:01.999Z</time></trkpt><trkpt lat="43.48019869988066" lon="10.602130283998532"><ele>516.6</ele><time>2026-03-22T13:24:03.999Z</time></trkpt><trkpt lat="43.480183055291214" lon="10.602228535050417"><ele>518.8</ele><time>2026-03-22T13:24:04.999Z</time></trkpt><trkpt lat="43.480170245212506" lon="10.602321972888499"><ele>521.0</ele><time>2026-03-22T13:24:05.999Z</time></trkpt><trkpt lat="43.48009551491427" lon="10.602459041196333"><ele>521.0</ele><time>2026-03-22T13:24:07.999Z</time></trkpt><trkpt lat="43.48003253489058" lon="10.602516088274571"><ele>521.0</ele><time>2026-03-22T13:24:09.999Z</time></trkpt><trkpt lat="43.48001276330615" lon="10.6024316525321"><ele>521.0</ele><time>2026-03-22T13:24:34Z</time></trkpt><trkpt lat="43.47993477747113" lon="10.602474908379794"><ele>521.0</ele><time>2026-03-22T13:24:36Z</time></trkpt><trkpt lat="43.47983890998722" lon="10.602530796806759"><ele>521.0</ele><time>2026-03-22T13:24:40Z</time></trkpt><trkpt lat="43.47974765335308" lon="10.602574754074656"><ele>521.0</ele><time>2026-03-22T13:24:42Z</time></trkpt><trkpt lat="43.479686062121665" lon="10.602607367441268"><ele>523.0</ele><time>2026-03-22T13:24:43Z</time></trkpt><trkpt lat="43.47959324155209" lon="10.60266932674519"><ele>525.0</ele><time>2026-03-22T13:24:45Z</time></trkpt><trkpt lat="43.47952990864721" lon="10.602690533969842"><ele>527.0</ele><time>2026-03-22T13:24:46Z</time></trkpt><trkpt lat="43.479461036901206" lon="10.602703394820127"><ele>529.0</ele><time>2026-03-22T13:24:47Z</time></trkpt><trkpt lat="43.479387189351904" lon="10.602745719226355"><ele>531.0</ele><time>2026-03-22T13:24:49Z</time></trkpt><trkpt lat="43.47928193800821" lon="10.602736211126146"><ele>533.0</ele><time>2026-03-22T13:24:51Z</time></trkpt><trkpt lat="43.47921680695871" lon="10.60269607231217"><ele>533.0</ele><time>2026-03-22T13:24:54Z</time></trkpt><trkpt lat="43.47915666342261" lon="10.602758148110992"><ele>533.0</ele><time>2026-03-22T13:24:57Z</time></trkpt><trkpt lat="43.479089026844505" lon="10.602880485467296"><ele>533.0</ele><time>2026-03-22T13:25:00Z</time></trkpt><trkpt lat="43.47901092612545" lon="10.602933309900745"><ele>533.0</ele><time>2026-03-22T13:25:02Z</time></trkpt><trkpt lat="43.47891769106828" lon="10.602986392363148"><ele>533.0</ele><time>2026-03-22T13:25:04Z</time></trkpt><trkpt lat="43.47881112293347" lon="10.603023991560521"><ele>535.0</ele><time>2026-03-22T13:25:06Z</time></trkpt><trkpt lat="43.47870941592345" lon="10.603036507149547"><ele>537.0</ele><time>2026-03-22T13:25:08Z</time></trkpt><trkpt lat="43.47861242530483" lon="10.603092898438705"><ele>539.0</ele><time>2026-03-22T13:25:10Z</time></trkpt><trkpt lat="43.4785366497155" lon="10.603123550519827"><ele>541.0</ele><time>2026-03-22T13:25:12Z</time></trkpt><trkpt lat="43.47860964031212" lon="10.603131772511501"><ele>543.0</ele><time>2026-03-22T13:27:30.999Z</time></trkpt><trkpt lat="43.479934212744496" lon="10.602501527267705"><ele>540.3333333333334</ele><time>2026-03-22T13:32:46.999Z</time></trkpt><trkpt lat="43.48000829294292" lon="10.602415321614163"><ele>537.6666666666666</ele><time>2026-03-22T13:33:02Z</time></trkpt><trkpt lat="43.4800333574123" lon="10.60229641949031"><ele>535.0</ele><time>2026-03-22T13:33:03Z</time></trkpt><trkpt lat="43.480030762529694" lon="10.602206193872764"><ele>532.3333333333333</ele><time>2026-03-22T13:33:04Z</time></trkpt><trkpt lat="43.48002127312078" lon="10.602040905903037"><ele>529.6666666666666</ele><time>2026-03-22T13:33:06Z</time></trkpt><trkpt lat="43.48003985533496" lon="10.601953151722046"><ele>527.0</ele><time>2026-03-22T13:33:07Z</time></trkpt><trkpt lat="43.48005047042634" lon="10.601856594353734"><ele>527.0</ele><time>2026-03-22T13:33:08Z</time></trkpt><trkpt lat="43.480064336918566" lon="10.601770458447811"><ele>527.0</ele><time>2026-03-22T13:33:09Z</time></trkpt><trkpt lat="43.48013085659916" lon="10.601666923432274"><ele>527.0</ele><time>2026-03-22T13:33:11Z</time></trkpt><trkpt lat="43.48022903312208" lon="10.601568616856424"><ele>527.0</ele><time>2026-03-22T13:33:13Z</time></trkpt><trkpt lat="43.48025738357741" lon="10.60148556455504"><ele>527.0</ele><time>2026-03-22T13:33:14Z</time></trkpt><trkpt lat="43.4803066042295" lon="10.601384178204114"><ele>527.0</ele><time>2026-03-22T13:33:16Z</time></trkpt><trkpt lat="43.480304948067634" lon="10.601211485457357"><ele>528.1666666666666</ele><time>2026-03-22T13:33:18Z</time></trkpt><trkpt lat="43.48030122791973" lon="10.601123176355859"><ele>529.3333333333333</ele><time>2026-03-22T13:33:19Z</time></trkpt><trkpt lat="43.480301333239666" lon="10.600974208953932"><ele>530.5</ele><time>2026-03-22T13:33:21Z</time></trkpt><trkpt lat="43.4802803537704" lon="10.600849266281124"><ele>531.6666666666666</ele><time>2026-03-22T13:33:23Z</time></trkpt><trkpt lat="43.480249748345855" lon="10.600764748775012"><ele>532.8333333333334</ele><time>2026-03-22T13:33:24Z</time></trkpt><trkpt lat="43.480223372106785" lon="10.600667137500391"><ele>534.0</ele><time>2026-03-22T13:33:25Z</time></trkpt><trkpt lat="43.480189036157334" lon="10.600571415206167"><ele>534.0</ele><time>2026-03-22T13:33:26Z</time></trkpt><trkpt lat="43.48016375508767" lon="10.600484059711702"><ele>534.0</ele><time>2026-03-22T13:33:27Z</time></trkpt><trkpt lat="43.48012259018635" lon="10.600348466672118"><ele>534.0</ele><time>2026-03-22T13:33:29Z</time></trkpt><trkpt lat="43.48012846981099" lon="10.600259216341717"><ele>534.0</ele><time>2026-03-22T13:33:30Z</time></trkpt><trkpt lat="43.48009266416649" lon="10.600149390190632"><ele>534.0</ele><time>2026-03-22T13:33:32Z</time></trkpt><trkpt lat="43.480012735090874" lon="10.600102506299438"><ele>534.0</ele><time>2026-03-22T13:33:44.999Z</time></trkpt><trkpt lat="43.479888566299756" lon="10.6000993931315"><ele>533.2</ele><time>2026-03-22T13:33:46.999Z</time></trkpt><trkpt lat="43.479810961141986" lon="10.600102340309178"><ele>532.4</ele><time>2026-03-22T13:33:47.999Z</time></trkpt><trkpt lat="43.47969416228286" lon="10.60005521005243"><ele>531.6</ele><time>2026-03-22T13:33:49.999Z</time></trkpt><trkpt lat="43.479627808871705" lon="10.59995217426829"><ele>530.8</ele><time>2026-03-22T13:33:50.999Z</time></trkpt><trkpt lat="43.47957268456265" lon="10.599859618440744"><ele>530.0</ele><time>2026-03-22T13:33:51.999Z</time></trkpt><trkpt lat="43.479524580535966" lon="10.59976101984299"><ele>530.6666666666666</ele><time>2026-03-22T13:33:52.999Z</time></trkpt><trkpt lat="43.479459873665455" lon="10.599652901043436"><ele>531.3333333333333</ele><time>2026-03-22T13:33:53.999Z</time></trkpt><trkpt lat="43.47941713607069" lon="10.599558597094537"><ele>532.0</ele><time>2026-03-22T13:33:54.999Z</time></trkpt><trkpt lat="43.47936857459557" lon="10.599446319347352"><ele>532.6666666666666</ele><time>2026-03-22T13:33:55.999Z</time></trkpt><trkpt lat="43.4793029271901" lon="10.599364021603495"><ele>533.3333333333334</ele><time>2026-03-22T13:33:56.999Z</time></trkpt><trkpt lat="43.47927215963476" lon="10.599269428572013"><ele>534.0</ele><time>2026-03-22T13:33:57.999Z</time></trkpt><trkpt lat="43.47923284500555" lon="10.5991550479735"><ele>534.0</ele><time>2026-03-22T13:33:59.999Z</time></trkpt><trkpt lat="43.47918179847307" lon="10.59908342842116"><ele>534.0</ele><time>2026-03-22T13:34:00.999Z</time></trkpt><trkpt lat="43.47912722016554" lon="10.598981015170292"><ele>534.0</ele><time>2026-03-22T13:34:01.999Z</time></trkpt><trkpt lat="43.47906541848802" lon="10.59890020635729"><ele>534.0</ele><time>2026-03-22T13:34:02.999Z</time></trkpt><trkpt lat="43.478996987740956" lon="10.59884746815392"><ele>534.0</ele><time>2026-03-22T13:34:03.999Z</time></trkpt><trkpt lat="43.47893833966154" lon="10.598807122056545"><ele>534.0</ele><time>2026-03-22T13:34:04.999Z</time></trkpt><trkpt lat="43.478867614340196" lon="10.598746351552142"><ele>534.0</ele><time>2026-03-22T13:34:06.999Z</time></trkpt><trkpt lat="43.47885119125789" lon="10.598868009981082"><ele>534.0</ele><time>2026-03-22T13:34:11.999Z</time></trkpt><trkpt lat="43.478866934861934" lon="10.599045664252431"><ele>534.0</ele><time>2026-03-22T13:34:12.999Z</time></trkpt><trkpt lat="43.478873385285176" lon="10.59922886578782"><ele>534.0</ele><time>2026-03-22T13:34:13.999Z</time></trkpt><trkpt lat="43.478886897381095" lon="10.599375355972644"><ele>536.0</ele><time>2026-03-22T13:34:14.999Z</time></trkpt><trkpt lat="43.478897445965444" lon="10.599521976745361"><ele>538.0</ele><time>2026-03-22T13:34:15.999Z</time></trkpt><trkpt lat="43.47887604104986" lon="10.599665151431989"><ele>540.0</ele><time>2026-03-22T13:34:16.999Z</time></trkpt><trkpt lat="43.478836398285054" lon="10.599802107833433"><ele>542.0</ele><time>2026-03-22T13:34:17.999Z</time></trkpt><trkpt lat="43.4787987171613" lon="10.59994711823448"><ele>544.0</ele><time>2026-03-22T13:34:18.999Z</time></trkpt><trkpt lat="43.47875935213282" lon="10.6000892921379"><ele>544.5</ele><time>2026-03-22T13:34:19.999Z</time></trkpt><trkpt lat="43.478741389150095" lon="10.60024412619361"><ele>545.0</ele><time>2026-03-22T13:34:20.999Z</time></trkpt><trkpt lat="43.47871973249572" lon="10.600419097867185"><ele>545.5</ele><time>2026-03-22T13:34:21.999Z</time></trkpt><trkpt lat="43.47869503918296" lon="10.60057359992983"><ele>546.0</ele><time>2026-03-22T13:34:22.999Z</time></trkpt><trkpt lat="43.478685424211974" lon="10.600721837416351"><ele>545.8</ele><time>2026-03-22T13:34:23.999Z</time></trkpt><trkpt lat="43.47869365072962" lon="10.60087038969028"><ele>545.6</ele><time>2026-03-22T13:34:24.999Z</time></trkpt><trkpt lat="43.47870731277178" lon="10.60102678405025"><ele>545.4</ele><time>2026-03-22T13:34:25.999Z</time></trkpt><trkpt lat="43.47871441698885" lon="10.601160670888266"><ele>545.2</ele><time>2026-03-22T13:34:26.999Z</time></trkpt><trkpt lat="43.47873360174973" lon="10.601309028669766"><ele>545.0</ele><time>2026-03-22T13:34:27.999Z</time></trkpt><trkpt lat="43.478754256271955" lon="10.601434765871506"><ele>545.0</ele><time>2026-03-22T13:34:28.999Z</time></trkpt><trkpt lat="43.47876316346975" lon="10.601557642140786"><ele>545.0</ele><time>2026-03-22T13:34:29.999Z</time></trkpt><trkpt lat="43.47874050524413" lon="10.601694829938127"><ele>545.0</ele><time>2026-03-22T13:34:30.999Z</time></trkpt><trkpt lat="43.47871442169997" lon="10.60181623673531"><ele>545.0</ele><time>2026-03-22T13:34:31.999Z</time></trkpt><trkpt lat="43.47864682589217" lon="10.601924926953522"><ele>545.0</ele><time>2026-03-22T13:34:32.999Z</time></trkpt><trkpt lat="43.47856458678494" lon="10.602024774732019"><ele>545.5</ele><time>2026-03-22T13:34:33.999Z</time></trkpt><trkpt lat="43.47848083503014" lon="10.602125313985312"><ele>546.0</ele><time>2026-03-22T13:34:34.999Z</time></trkpt><trkpt lat="43.4783849816982" lon="10.60223270015537"><ele>546.5</ele><time>2026-03-22T13:34:35.999Z</time></trkpt><trkpt lat="43.478306453455616" lon="10.602359660027215"><ele>547.0</ele><time>2026-03-22T13:34:36.999Z</time></trkpt><trkpt lat="43.47824896166137" lon="10.60250775463158"><ele>547.0</ele><time>2026-03-22T13:34:37.999Z</time></trkpt><trkpt lat="43.47820959916515" lon="10.60266878191489"><ele>547.0</ele><time>2026-03-22T13:34:38.999Z</time></trkpt><trkpt lat="43.47816490626652" lon="10.602819952012075"><ele>547.0</ele><time>2026-03-22T13:34:39.999Z</time></trkpt><trkpt lat="43.478096491363374" lon="10.60294032055711"><ele>547.0</ele><time>2026-03-22T13:34:40.999Z</time></trkpt><trkpt lat="43.478003441814614" lon="10.603051722068383"><ele>550.0</ele><time>2026-03-22T13:34:41.999Z</time></trkpt><trkpt lat="43.477902912770446" lon="10.603152616366234"><ele>553.0</ele><time>2026-03-22T13:34:42.999Z</time></trkpt><trkpt lat="43.477801657016954" lon="10.603270823625403"><ele>556.0</ele><time>2026-03-22T13:34:43.999Z</time></trkpt><trkpt lat="43.477710924771806" lon="10.603399484957674"><ele>559.0</ele><time>2026-03-22T13:34:44.999Z</time></trkpt><trkpt lat="43.477616759744" lon="10.60351212343357"><ele>559.0</ele><time>2026-03-22T13:34:45.999Z</time></trkpt><trkpt lat="43.47752055871769" lon="10.603601469120187"><ele>559.0</ele><time>2026-03-22T13:34:46.999Z</time></trkpt><trkpt lat="43.47741774763378" lon="10.60366042594052"><ele>559.0</ele><time>2026-03-22T13:34:47.999Z</time></trkpt><trkpt lat="43.477298460289575" lon="10.603671357321993"><ele>559.0</ele><time>2026-03-22T13:34:48.999Z</time></trkpt><trkpt lat="43.47717612285258" lon="10.603693545294421"><ele>560.5</ele><time>2026-03-22T13:34:49.999Z</time></trkpt><trkpt lat="43.477073471241695" lon="10.603721313160806"><ele>562.0</ele><time>2026-03-22T13:34:50.999Z</time></trkpt><trkpt lat="43.47698493977095" lon="10.603741534926826"><ele>563.5</ele><time>2026-03-22T13:34:51.999Z</time></trkpt><trkpt lat="43.47691045340227" lon="10.603793608266937"><ele>565.0</ele><time>2026-03-22T13:34:52.999Z</time></trkpt><trkpt lat="43.4768572191748" lon="10.603871805389426"><ele>566.5</ele><time>2026-03-22T13:34:53.999Z</time></trkpt><trkpt lat="43.476820580716314" lon="10.603985178629681"><ele>568.0</ele><time>2026-03-22T13:34:55Z</time></trkpt><trkpt lat="43.47679975333752" lon="10.604119459587336"><ele>568.0</ele><time>2026-03-22T13:34:56Z</time></trkpt><trkpt lat="43.476804977939516" lon="10.604270357294492"><ele>568.0</ele><time>2026-03-22T13:34:57Z</time></trkpt><trkpt lat="43.476815048799786" lon="10.604422480049902"><ele>568.0</ele><time>2026-03-22T13:34:58Z</time></trkpt><trkpt lat="43.47680388776148" lon="10.604539632407738"><ele>568.0</ele><time>2026-03-22T13:34:59Z</time></trkpt><trkpt lat="43.47677214730706" lon="10.60462100565365"><ele>568.0</ele><time>2026-03-22T13:35:00Z</time></trkpt><trkpt lat="43.476714851766" lon="10.60471298798208"><ele>568.6666666666667</ele><time>2026-03-22T13:35:01Z</time></trkpt><trkpt lat="43.47665250644288" lon="10.6048149628132"><ele>569.3333333333334</ele><time>2026-03-22T13:35:02Z</time></trkpt><trkpt lat="43.47661252242199" lon="10.604932244784193"><ele>570.0</ele><time>2026-03-22T13:35:03Z</time></trkpt><trkpt lat="43.476589939490786" lon="10.60503384473907"><ele>570.6666666666666</ele><time>2026-03-22T13:35:04Z</time></trkpt><trkpt lat="43.47657371040913" lon="10.605144397729985"><ele>571.3333333333333</ele><time>2026-03-22T13:35:05Z</time></trkpt><trkpt lat="43.47658260768036" lon="10.605242981180796"><ele>572.0</ele><time>2026-03-22T13:35:06Z</time></trkpt><trkpt lat="43.47661135057354" lon="10.605336033152838"><ele>572.5</ele><time>2026-03-22T13:35:07Z</time></trkpt><trkpt lat="43.47665146836708" lon="10.605432343649598"><ele>573.0</ele><time>2026-03-22T13:35:08Z</time></trkpt><trkpt lat="43.47670277783084" lon="10.605526846604018"><ele>573.5</ele><time>2026-03-22T13:35:09Z</time></trkpt><trkpt lat="43.476734661019144" lon="10.60563224073011"><ele>574.0</ele><time>2026-03-22T13:35:10Z</time></trkpt><trkpt lat="43.47676649650094" lon="10.605746599940538"><ele>574.5</ele><time>2026-03-22T13:35:11Z</time></trkpt><trkpt lat="43.476790189655595" lon="10.605865252800124"><ele>575.0</ele><time>2026-03-22T13:35:12Z</time></trkpt><trkpt lat="43.47684658498708" lon="10.605955773380337"><ele>575.0</ele><time>2026-03-22T13:35:13Z</time></trkpt><trkpt lat="43.476874756539544" lon="10.606037263217111"><ele>575.0</ele><time>2026-03-22T13:35:14Z</time></trkpt><trkpt lat="43.476936799272124" lon="10.606124779800986"><ele>575.0</ele><time>2026-03-22T13:35:16Z</time></trkpt><trkpt lat="43.4770315760891" lon="10.606103188008893"><ele>575.0</ele><time>2026-03-22T13:35:18Z</time></trkpt><trkpt lat="43.47708258981476" lon="10.606021924195709"><ele>575.0</ele><time>2026-03-22T13:35:19Z</time></trkpt><trkpt lat="43.47715593670275" lon="10.605961474083601"><ele>575.0</ele><time>2026-03-22T13:35:20Z</time></trkpt><trkpt lat="43.4772337095883" lon="10.605948680019708"><ele>575.0</ele><time>2026-03-22T13:35:21Z</time></trkpt><trkpt lat="43.477316073642235" lon="10.605938380325666"><ele>575.0</ele><time>2026-03-22T13:35:22Z</time></trkpt><trkpt lat="43.47740621205427" lon="10.60589385762059"><ele>575.0</ele><time>2026-03-22T13:35:23Z</time></trkpt><trkpt lat="43.477505577419585" lon="10.605860249650322"><ele>575.0</ele><time>2026-03-22T13:35:24Z</time></trkpt><trkpt lat="43.47757900356915" lon="10.605826275831086"><ele>575.0</ele><time>2026-03-22T13:35:25Z</time></trkpt><trkpt lat="43.477638637905834" lon="10.605777107102663"><ele>575.0</ele><time>2026-03-22T13:35:26Z</time></trkpt><trkpt lat="43.477692859438406" lon="10.60571980153547"><ele>575.0</ele><time>2026-03-22T13:35:27Z</time></trkpt><trkpt lat="43.4778157368677" lon="10.605699806447157"><ele>575.0</ele><time>2026-03-22T13:35:29Z</time></trkpt><trkpt lat="43.477881710578785" lon="10.605724821082253"><ele>575.0</ele><time>2026-03-22T13:35:30Z</time></trkpt><trkpt lat="43.47795080249019" lon="10.605783017050477"><ele>575.0</ele><time>2026-03-22T13:35:31Z</time></trkpt><trkpt lat="43.47800615804598" lon="10.605869092657375"><ele>575.0</ele><time>2026-03-22T13:35:32Z</time></trkpt><trkpt lat="43.4780880186655" lon="10.605902794675055"><ele>575.0</ele><time>2026-03-22T13:35:33Z</time></trkpt><trkpt lat="43.478176448785625" lon="10.605962049730891"><ele>574.3333333333333</ele><time>2026-03-22T13:35:34Z</time></trkpt><trkpt lat="43.4782774090282" lon="10.606005973504425"><ele>573.6666666666666</ele><time>2026-03-22T13:35:35Z</time></trkpt><trkpt lat="43.478366055408216" lon="10.60605665101288"><ele>573.0</ele><time>2026-03-22T13:35:36Z</time></trkpt><trkpt lat="43.47844735978008" lon="10.606069976589678"><ele>572.3333333333334</ele><time>2026-03-22T13:35:37Z</time></trkpt><trkpt lat="43.47852265780367" lon="10.606098101527966"><ele>571.6666666666667</ele><time>2026-03-22T13:35:39Z</time></trkpt><trkpt lat="43.47860088925059" lon="10.60612594865226"><ele>571.0</ele><time>2026-03-22T13:35:41Z</time></trkpt><trkpt lat="43.478651290579016" lon="10.606062638354572"><ele>571.0</ele><time>2026-03-22T13:35:43Z</time></trkpt><trkpt lat="43.47872242254537" lon="10.606023583270817"><ele>571.0</ele><time>2026-03-22T13:35:45Z</time></trkpt><trkpt lat="43.47885561091563" lon="10.60599276485024"><ele>571.0</ele><time>2026-03-22T13:35:46.999Z</time></trkpt><trkpt lat="43.47893649578352" lon="10.605958784517185"><ele>571.0</ele><time>2026-03-22T13:35:47.999Z</time></trkpt><trkpt lat="43.47902228895118" lon="10.605945982825972"><ele>571.0</ele><time>2026-03-22T13:35:48.999Z</time></trkpt><trkpt lat="43.47911624758655" lon="10.605924366647434"><ele>569.6</ele><time>2026-03-22T13:35:49.999Z</time></trkpt><trkpt lat="43.479208067373705" lon="10.605916988637984"><ele>568.2</ele><time>2026-03-22T13:35:50.999Z</time></trkpt><trkpt lat="43.47928342082017" lon="10.60587818112857"><ele>566.8</ele><time>2026-03-22T13:35:51.999Z</time></trkpt><trkpt lat="43.47935767359324" lon="10.60587664414246"><ele>565.4</ele><time>2026-03-22T13:35:52.999Z</time></trkpt><trkpt lat="43.47931059878167" lon="10.605937164732278"><ele>564.0</ele><time>2026-03-22T13:35:56.999Z</time></trkpt><trkpt lat="43.479252215135176" lon="10.606112634755378"><ele>564.8</ele><time>2026-03-22T13:36:02.999Z</time></trkpt><trkpt lat="43.47921305253693" lon="10.606258136021816"><ele>565.5999999999999</ele><time>2026-03-22T13:36:03.999Z</time></trkpt><trkpt lat="43.47920818405391" lon="10.606432421117711"><ele>566.4</ele><time>2026-03-22T13:36:04.999Z</time></trkpt><trkpt lat="43.479194803261684" lon="10.606557199428243"><ele>567.1999999999999</ele><time>2026-03-22T13:36:05.999Z</time></trkpt><trkpt lat="43.47917249635601" lon="10.606665352556215"><ele>568.0</ele><time>2026-03-22T13:36:06.999Z</time></trkpt><trkpt lat="43.47914334623446" lon="10.606745790312774"><ele>568.0</ele><time>2026-03-22T13:36:07.999Z</time></trkpt><trkpt lat="43.47914341712451" lon="10.606856973034768"><ele>568.0</ele><time>2026-03-22T13:36:08.999Z</time></trkpt><trkpt lat="43.47914264863976" lon="10.606963559522695"><ele>568.0</ele><time>2026-03-22T13:36:09.999Z</time></trkpt><trkpt lat="43.479140880857734" lon="10.607059662626725"><ele>568.0</ele><time>2026-03-22T13:36:10.999Z</time></trkpt><trkpt lat="43.479118951333206" lon="10.607189433142448"><ele>568.0</ele><time>2026-03-22T13:36:11.999Z</time></trkpt><trkpt lat="43.47909154564752" lon="10.60729792979531"><ele>568.0</ele><time>2026-03-22T13:36:12.999Z</time></trkpt><trkpt lat="43.479057803684825" lon="10.607371175899162"><ele>568.0</ele><time>2026-03-22T13:36:13.999Z</time></trkpt><trkpt lat="43.478992923906915" lon="10.607448691021402"><ele>568.0</ele><time>2026-03-22T13:36:14.999Z</time></trkpt><trkpt lat="43.47893822999333" lon="10.607530654426327"><ele>568.0</ele><time>2026-03-22T13:36:15.999Z</time></trkpt><trkpt lat="43.47890516837229" lon="10.607611003663807"><ele>568.0</ele><time>2026-03-22T13:36:16.999Z</time></trkpt><trkpt lat="43.47888978305592" lon="10.607698769192325"><ele>568.0</ele><time>2026-03-22T13:36:18.999Z</time></trkpt><trkpt lat="43.47886591713544" lon="10.607843775118154"><ele>568.0</ele><time>2026-03-22T13:36:20.999Z</time></trkpt><trkpt lat="43.478865504717206" lon="10.607933197001094"><ele>567.1666666666667</ele><time>2026-03-22T13:36:21.999Z</time></trkpt><trkpt lat="43.47886487486007" lon="10.6080388425938"><ele>566.3333333333334</ele><time>2026-03-22T13:36:22.999Z</time></trkpt><trkpt lat="43.47888216521543" lon="10.60815388834046"><ele>565.5</ele><time>2026-03-22T13:36:23.999Z</time></trkpt><trkpt lat="43.478897577204776" lon="10.608261453796175"><ele>564.6666666666666</ele><time>2026-03-22T13:36:24.999Z</time></trkpt><trkpt lat="43.47890864689968" lon="10.608363462662334"><ele>563.8333333333333</ele><time>2026-03-22T13:36:25.999Z</time></trkpt><trkpt lat="43.47894487997192" lon="10.608455119760997"><ele>563.0</ele><time>2026-03-22T13:36:26.999Z</time></trkpt><trkpt lat="43.47896468636165" lon="10.608579166627377"><ele>562.5</ele><time>2026-03-22T13:36:27.999Z</time></trkpt><trkpt lat="43.47896306467446" lon="10.608720666988027"><ele>562.0</ele><time>2026-03-22T13:36:28.999Z</time></trkpt><trkpt lat="43.47896227910076" lon="10.60884607210044"><ele>561.5</ele><time>2026-03-22T13:36:29.999Z</time></trkpt><trkpt lat="43.47896384239609" lon="10.608964092202394"><ele>561.0</ele><time>2026-03-22T13:36:30.999Z</time></trkpt><trkpt lat="43.478955361084985" lon="10.609073295874477"><ele>560.5</ele><time>2026-03-22T13:36:31.999Z</time></trkpt><trkpt lat="43.47891932473795" lon="10.609181056027705"><ele>560.0</ele><time>2026-03-22T13:36:33.999Z</time></trkpt><trkpt lat="43.478857573163005" lon="10.60911495875857"><ele>560.0</ele><time>2026-03-22T13:36:36.999Z</time></trkpt><trkpt lat="43.47879217561861" lon="10.609018627123694"><ele>560.0</ele><time>2026-03-22T13:36:38.999Z</time></trkpt><trkpt lat="43.47874645512146" lon="10.608906639844095"><ele>560.0</ele><time>2026-03-22T13:36:40.999Z</time></trkpt><trkpt lat="43.47869126577979" lon="10.608791801521805"><ele>560.0</ele><time>2026-03-22T13:36:42.999Z</time></trkpt><trkpt lat="43.47867343838375" lon="10.608677248150222"><ele>560.0</ele><time>2026-03-22T13:36:44.999Z</time></trkpt><trkpt lat="43.47862519169955" lon="10.608554895880014"><ele>560.2</ele><time>2026-03-22T13:36:47.999Z</time></trkpt><trkpt lat="43.478568861719545" lon="10.608435362636538"><ele>560.4</ele><time>2026-03-22T13:36:49.999Z</time></trkpt><trkpt lat="43.478527387535486" lon="10.608331048017279"><ele>560.6</ele><time>2026-03-22T13:36:51.999Z</time></trkpt><trkpt lat="43.47847595315796" lon="10.608222502720176"><ele>560.8</ele><time>2026-03-22T13:36:55.999Z</time></trkpt><trkpt lat="43.47842399033416" lon="10.608090643256674"><ele>561.0</ele><time>2026-03-22T13:36:56.999Z</time></trkpt><trkpt lat="43.47836188616125" lon="10.607994961442275"><ele>561.0</ele><time>2026-03-22T13:36:57.999Z</time></trkpt><trkpt lat="43.47831019357311" lon="10.607895813226017"><ele>561.0</ele><time>2026-03-22T13:36:58.999Z</time></trkpt><trkpt lat="43.47825933968103" lon="10.60780629799337"><ele>561.0</ele><time>2026-03-22T13:36:59.999Z</time></trkpt><trkpt lat="43.47821030917229" lon="10.607734227339028"><ele>561.0</ele><time>2026-03-22T13:37:01Z</time></trkpt><trkpt lat="43.4781377778706" lon="10.60769456093437"><ele>561.0</ele><time>2026-03-22T13:37:02Z</time></trkpt><trkpt lat="43.478073104813475" lon="10.607624055677965"><ele>561.0</ele><time>2026-03-22T13:37:03Z</time></trkpt><trkpt lat="43.478001051005336" lon="10.607548369342142"><ele>562.2</ele><time>2026-03-22T13:37:04Z</time></trkpt><trkpt lat="43.47793394094165" lon="10.60747514080574"><ele>563.4000000000001</ele><time>2026-03-22T13:37:05Z</time></trkpt><trkpt lat="43.477856523249535" lon="10.60737116406711"><ele>564.6</ele><time>2026-03-22T13:37:06Z</time></trkpt><trkpt lat="43.477792953065915" lon="10.607300827419724"><ele>565.8000000000001</ele><time>2026-03-22T13:37:07Z</time></trkpt><trkpt lat="43.47771739399686" lon="10.607206722786607"><ele>567.0</ele><time>2026-03-22T13:37:08Z</time></trkpt><trkpt lat="43.477656861661494" lon="10.607096974830615"><ele>567.6</ele><time>2026-03-22T13:37:09Z</time></trkpt><trkpt lat="43.47758227710387" lon="10.606963353140614"><ele>568.2</ele><time>2026-03-22T13:37:11Z</time></trkpt><trkpt lat="43.47751550382053" lon="10.606908325788615"><ele>568.8</ele><time>2026-03-22T13:37:12Z</time></trkpt><trkpt lat="43.47744711265477" lon="10.606833803413696"><ele>569.4</ele><time>2026-03-22T13:37:13Z</time></trkpt><trkpt lat="43.47740601195502" lon="10.60672845239025"><ele>570.0</ele><time>2026-03-22T13:37:14Z</time></trkpt><trkpt lat="43.477345411383205" lon="10.606664195002718"><ele>570.0</ele><time>2026-03-22T13:37:15Z</time></trkpt><trkpt lat="43.477283974488415" lon="10.606580089870002"><ele>570.0</ele><time>2026-03-22T13:37:16Z</time></trkpt><trkpt lat="43.477224357318406" lon="10.606506827372556"><ele>570.0</ele><time>2026-03-22T13:37:17Z</time></trkpt><trkpt lat="43.47717073722737" lon="10.606445036093522"><ele>570.0</ele><time>2026-03-22T13:37:18Z</time></trkpt><trkpt lat="43.47710440567945" lon="10.606385544364755"><ele>570.0</ele><time>2026-03-22T13:37:19Z</time></trkpt><trkpt lat="43.477036509403476" lon="10.606339670812355"><ele>570.0</ele><time>2026-03-22T13:37:20Z</time></trkpt><trkpt lat="43.47698122995037" lon="10.606283627250468"><ele>570.8333333333334</ele><time>2026-03-22T13:37:21Z</time></trkpt><trkpt lat="43.476925294546476" lon="10.606208175043939"><ele>571.6666666666666</ele><time>2026-03-22T13:37:23Z</time></trkpt><trkpt lat="43.47687638607651" lon="10.606139943086626"><ele>572.5</ele><time>2026-03-22T13:37:26Z</time></trkpt><trkpt lat="43.47681113195409" lon="10.606192218633472"><ele>573.3333333333333</ele><time>2026-03-22T13:37:31Z</time></trkpt><trkpt lat="43.476744379049485" lon="10.606315950437386"><ele>574.1666666666666</ele><time>2026-03-22T13:37:33Z</time></trkpt><trkpt lat="43.476679631777316" lon="10.606368281542371"><ele>575.0</ele><time>2026-03-22T13:37:34Z</time></trkpt><trkpt lat="43.47659565430215" lon="10.606379998683606"><ele>575.3333333333333</ele><time>2026-03-22T13:37:35Z</time></trkpt><trkpt lat="43.47659330224702" lon="10.606468715483826"><ele>575.6666666666666</ele><time>2026-03-22T13:37:37Z</time></trkpt><trkpt lat="43.4766164218196" lon="10.606571517750167"><ele>576.0</ele><time>2026-03-22T13:37:38Z</time></trkpt><trkpt lat="43.476639588914786" lon="10.606678365672048"><ele>576.3333333333334</ele><time>2026-03-22T13:37:40Z</time></trkpt><trkpt lat="43.47662611983906" lon="10.606817911872392"><ele>576.6666666666667</ele><time>2026-03-22T13:37:42Z</time></trkpt><trkpt lat="43.476624178708605" lon="10.606925804706881"><ele>577.0</ele><time>2026-03-22T13:37:44Z</time></trkpt><trkpt lat="43.47661348771061" lon="10.607052637237969"><ele>577.2</ele><time>2026-03-22T13:37:45Z</time></trkpt><trkpt lat="43.47659673060804" lon="10.60721979203946"><ele>577.4000000000001</ele><time>2026-03-22T13:37:46Z</time></trkpt><trkpt lat="43.47656281093077" lon="10.607329676682898"><ele>577.5999999999999</ele><time>2026-03-22T13:37:47Z</time></trkpt><trkpt lat="43.476520849837804" lon="10.60740658969221"><ele>577.8</ele><time>2026-03-22T13:37:48Z</time></trkpt><trkpt lat="43.47642222923069" lon="10.6075322370507"><ele>578.0</ele><time>2026-03-22T13:37:50Z</time></trkpt><trkpt lat="43.47638703977868" lon="10.607616519316773"><ele>578.0</ele><time>2026-03-22T13:37:52Z</time></trkpt><trkpt lat="43.47631256221985" lon="10.607671806708389"><ele>578.0</ele><time>2026-03-22T13:37:53.999Z</time></trkpt><trkpt lat="43.47623500842301" lon="10.607696397664123"><ele>578.0</ele><time>2026-03-22T13:37:56.999Z</time></trkpt><trkpt lat="43.47620239146941" lon="10.607618221942477"><ele>578.0</ele><time>2026-03-22T13:37:59.999Z</time></trkpt><trkpt lat="43.4761313587542" lon="10.607547945508903"><ele>578.0</ele><time>2026-03-22T13:38:02.999Z</time></trkpt><trkpt lat="43.47608446439733" lon="10.607466172707152"><ele>578.0</ele><time>2026-03-22T13:38:04.999Z</time></trkpt><trkpt lat="43.47606044841831" lon="10.607381352068323"><ele>578.6</ele><time>2026-03-22T13:38:06.999Z</time></trkpt><trkpt lat="43.47599901984535" lon="10.607319606691343"><ele>579.1999999999999</ele><time>2026-03-22T13:38:08.999Z</time></trkpt><trkpt lat="43.47596808606141" lon="10.60722782821798"><ele>579.8</ele><time>2026-03-22T13:38:10.999Z</time></trkpt><trkpt lat="43.475959619841234" lon="10.607108104222688"><ele>580.4</ele><time>2026-03-22T13:38:20.999Z</time></trkpt><trkpt lat="43.475860021802504" lon="10.606943581919854"><ele>581.0</ele><time>2026-03-22T13:38:22.999Z</time></trkpt><trkpt lat="43.47581809066972" lon="10.606866073221084"><ele>581.0</ele><time>2026-03-22T13:38:23.999Z</time></trkpt><trkpt lat="43.47572000819437" lon="10.606753037169794"><ele>581.0</ele><time>2026-03-22T13:38:24.999Z</time></trkpt><trkpt lat="43.47559170221" lon="10.606645623049804"><ele>581.0</ele><time>2026-03-22T13:38:25.999Z</time></trkpt><trkpt lat="43.47552275261293" lon="10.606581927155387"><ele>581.0</ele><time>2026-03-22T13:38:26.999Z</time></trkpt><trkpt lat="43.4754555661518" lon="10.606530837363092"><ele>581.0</ele><time>2026-03-22T13:38:27.999Z</time></trkpt><trkpt lat="43.475387469861595" lon="10.606448925418926"><ele>580.1666666666666</ele><time>2026-03-22T13:38:28.999Z</time></trkpt><trkpt lat="43.475337960361465" lon="10.606382845696665"><ele>579.3333333333333</ele><time>2026-03-22T13:38:29.999Z</time></trkpt><trkpt lat="43.475278706976866" lon="10.6063535239667"><ele>578.5</ele><time>2026-03-22T13:38:30.999Z</time></trkpt><trkpt lat="43.47517539249852" lon="10.606324514056482"><ele>577.6666666666666</ele><time>2026-03-22T13:38:32.999Z</time></trkpt><trkpt lat="43.47506902767677" lon="10.606291618809049"><ele>576.8333333333334</ele><time>2026-03-22T13:38:34.999Z</time></trkpt><trkpt lat="43.47499561106529" lon="10.60627018828274"><ele>576.0</ele><time>2026-03-22T13:38:35.999Z</time></trkpt><trkpt lat="43.47491101288821" lon="10.606244971276716"><ele>576.0</ele><time>2026-03-22T13:38:36.999Z</time></trkpt><trkpt lat="43.474822358828014" lon="10.60622261964469"><ele>576.0</ele><time>2026-03-22T13:38:37.999Z</time></trkpt><trkpt lat="43.47472734365175" lon="10.606211331204424"><ele>576.0</ele><time>2026-03-22T13:38:38.999Z</time></trkpt><trkpt lat="43.474642504863226" lon="10.60621636657046"><ele>576.0</ele><time>2026-03-22T13:38:39.999Z</time></trkpt><trkpt lat="43.474554347334994" lon="10.606236212203703"><ele>576.0</ele><time>2026-03-22T13:38:40.999Z</time></trkpt><trkpt lat="43.474465611846014" lon="10.606256011855857"><ele>576.3333333333334</ele><time>2026-03-22T13:38:41.999Z</time></trkpt><trkpt lat="43.474383197827784" lon="10.6062666511056"><ele>576.6666666666666</ele><time>2026-03-22T13:38:42.999Z</time></trkpt><trkpt lat="43.47430690383828" lon="10.606295651177057"><ele>577.0</ele><time>2026-03-22T13:38:43.999Z</time></trkpt><trkpt lat="43.47420525006639" lon="10.606285575649292"><ele>577.3333333333333</ele><time>2026-03-22T13:38:45.999Z</time></trkpt><trkpt lat="43.47414233594539" lon="10.606294263570717"><ele>577.6666666666666</ele><time>2026-03-22T13:38:47.999Z</time></trkpt><trkpt lat="43.47405928728234" lon="10.60626509521359"><ele>578.0</ele><time>2026-03-22T13:38:50.999Z</time></trkpt><trkpt lat="43.473990799393704" lon="10.606253296022794"><ele>578.0</ele><time>2026-03-22T13:38:51.999Z</time></trkpt><trkpt lat="43.473896807405964" lon="10.606236750496564"><ele>578.0</ele><time>2026-03-22T13:38:52.999Z</time></trkpt><trkpt lat="43.473810610794644" lon="10.606221656125511"><ele>578.0</ele><time>2026-03-22T13:38:53.999Z</time></trkpt><trkpt lat="43.4737078847377" lon="10.606241741202448"><ele>578.0</ele><time>2026-03-22T13:38:54.999Z</time></trkpt><trkpt lat="43.473599600859686" lon="10.606298098106961"><ele>578.0</ele><time>2026-03-22T13:38:55.999Z</time></trkpt><trkpt lat="43.47348470828459" lon="10.606314936340198"><ele>578.8</ele><time>2026-03-22T13:38:56.999Z</time></trkpt><trkpt lat="43.47337503224802" lon="10.606299119821598"><ele>579.5999999999999</ele><time>2026-03-22T13:38:57.999Z</time></trkpt><trkpt lat="43.47328578573396" lon="10.606274175924932"><ele>580.4000000000001</ele><time>2026-03-22T13:38:58.999Z</time></trkpt><trkpt lat="43.473191791842986" lon="10.606228470473287"><ele>581.2</ele><time>2026-03-22T13:38:59.999Z</time></trkpt><trkpt lat="43.4731006277048" lon="10.606143243460897"><ele>582.0</ele><time>2026-03-22T13:39:00.999Z</time></trkpt><trkpt lat="43.473016750026524" lon="10.606028739705195"><ele>582.25</ele><time>2026-03-22T13:39:01.999Z</time></trkpt><trkpt lat="43.47291422439418" lon="10.60589885689095"><ele>582.5</ele><time>2026-03-22T13:39:02.999Z</time></trkpt><trkpt lat="43.472815897668966" lon="10.605809589551061"><ele>582.75</ele><time>2026-03-22T13:39:03.999Z</time></trkpt><trkpt lat="43.47273355771247" lon="10.605733633570612"><ele>583.0</ele><time>2026-03-22T13:39:04.999Z</time></trkpt><trkpt lat="43.472651093771724" lon="10.605629201860632"><ele>583.0</ele><time>2026-03-22T13:39:05.999Z</time></trkpt><trkpt lat="43.47259240171133" lon="10.605516411457662"><ele>583.0</ele><time>2026-03-22T13:39:07Z</time></trkpt><trkpt lat="43.47253829337876" lon="10.605346687740093"><ele>583.0</ele><time>2026-03-22T13:39:08Z</time></trkpt><trkpt lat="43.47249599084898" lon="10.605187381091799"><ele>583.0</ele><time>2026-03-22T13:39:09Z</time></trkpt><trkpt lat="43.472485296776554" lon="10.605009345885934"><ele>583.75</ele><time>2026-03-22T13:39:10Z</time></trkpt><trkpt lat="43.47245323968396" lon="10.60484730654609"><ele>584.5</ele><time>2026-03-22T13:39:11Z</time></trkpt><trkpt lat="43.47238593127394" lon="10.604667773418049"><ele>585.25</ele><time>2026-03-22T13:39:12Z</time></trkpt><trkpt lat="43.47233698287474" lon="10.604504785190823"><ele>586.0</ele><time>2026-03-22T13:39:13Z</time></trkpt><trkpt lat="43.47230415401222" lon="10.60436301397801"><ele>586.0</ele><time>2026-03-22T13:39:14Z</time></trkpt><trkpt lat="43.47226636897291" lon="10.60424025936989"><ele>586.0</ele><time>2026-03-22T13:39:15Z</time></trkpt><trkpt lat="43.4721899943729" lon="10.604167677853567"><ele>586.0</ele><time>2026-03-22T13:39:16Z</time></trkpt><trkpt lat="43.47210025899742" lon="10.604121710248684"><ele>586.0</ele><time>2026-03-22T13:39:17Z</time></trkpt><trkpt lat="43.472008187708774" lon="10.604104143266998"><ele>586.0</ele><time>2026-03-22T13:39:18Z</time></trkpt><trkpt lat="43.47189924038381" lon="10.604118510758834"><ele>585.0</ele><time>2026-03-22T13:39:19Z</time></trkpt><trkpt lat="43.471793085323526" lon="10.60417556040451"><ele>584.0</ele><time>2026-03-22T13:39:20Z</time></trkpt><trkpt lat="43.471696077719514" lon="10.604314937236412"><ele>583.0</ele><time>2026-03-22T13:39:21Z</time></trkpt><trkpt lat="43.471595404234435" lon="10.60435922220397"><ele>582.0</ele><time>2026-03-22T13:39:22Z</time></trkpt><trkpt lat="43.471495186082905" lon="10.604359794038274"><ele>582.0</ele><time>2026-03-22T13:39:23Z</time></trkpt><trkpt lat="43.471372267297035" lon="10.604318901875466"><ele>582.0</ele><time>2026-03-22T13:39:24Z</time></trkpt><trkpt lat="43.4712538506611" lon="10.604267703142524"><ele>582.0</ele><time>2026-03-22T13:39:25Z</time></trkpt><trkpt lat="43.471105067137024" lon="10.604150920236147"><ele>582.0</ele><time>2026-03-22T13:39:26Z</time></trkpt><trkpt lat="43.470978525685815" lon="10.604120477217453"><ele>581.5</ele><time>2026-03-22T13:39:27Z</time></trkpt><trkpt lat="43.47084246468695" lon="10.604135593973435"><ele>581.0</ele><time>2026-03-22T13:39:28Z</time></trkpt><trkpt lat="43.47070459323197" lon="10.60418316117524"><ele>580.5</ele><time>2026-03-22T13:39:29Z</time></trkpt><trkpt lat="43.47057568319343" lon="10.604203205169576"><ele>580.0</ele><time>2026-03-22T13:39:30Z</time></trkpt><trkpt lat="43.47044605652277" lon="10.604178459877929"><ele>581.0</ele><time>2026-03-22T13:39:31Z</time></trkpt><trkpt lat="43.470321913428535" lon="10.604141570621197"><ele>582.0</ele><time>2026-03-22T13:39:32Z</time></trkpt><trkpt lat="43.47019368281533" lon="10.604073698564727"><ele>583.0</ele><time>2026-03-22T13:39:33Z</time></trkpt><trkpt lat="43.47006088130796" lon="10.604054135150012"><ele>584.0</ele><time>2026-03-22T13:39:34Z</time></trkpt><trkpt lat="43.46993788049354" lon="10.603992100716304"><ele>584.0</ele><time>2026-03-22T13:39:35Z</time></trkpt><trkpt lat="43.46983438250038" lon="10.60391525081199"><ele>584.0</ele><time>2026-03-22T13:39:36Z</time></trkpt><trkpt lat="43.469725459229444" lon="10.603787580267094"><ele>584.0</ele><time>2026-03-22T13:39:37Z</time></trkpt><trkpt lat="43.46962211204149" lon="10.603673351361843"><ele>584.0</ele><time>2026-03-22T13:39:38Z</time></trkpt><trkpt lat="43.469535439081135" lon="10.603568614936735"><ele>585.25</ele><time>2026-03-22T13:39:39Z</time></trkpt><trkpt lat="43.46942487168893" lon="10.60351303679559"><ele>586.5</ele><time>2026-03-22T13:39:40Z</time></trkpt><trkpt lat="43.46930163064943" lon="10.603436965414657"><ele>587.75</ele><time>2026-03-22T13:39:41Z</time></trkpt><trkpt lat="43.46919115842148" lon="10.603342232630409"><ele>589.0</ele><time>2026-03-22T13:39:42Z</time></trkpt><trkpt lat="43.46908335540449" lon="10.60325047585876"><ele>589.0</ele><time>2026-03-22T13:39:43Z</time></trkpt><trkpt lat="43.46897100911866" lon="10.60317213008918"><ele>589.0</ele><time>2026-03-22T13:39:44Z</time></trkpt><trkpt lat="43.46886472430676" lon="10.603104200036137"><ele>589.0</ele><time>2026-03-22T13:39:45Z</time></trkpt><trkpt lat="43.46875318080486" lon="10.60303929029203"><ele>589.0</ele><time>2026-03-22T13:39:46Z</time></trkpt><trkpt lat="43.468644273960365" lon="10.602976796100798"><ele>587.75</ele><time>2026-03-22T13:39:47Z</time></trkpt><trkpt lat="43.4685317822205" lon="10.602914420392372"><ele>586.5</ele><time>2026-03-22T13:39:48Z</time></trkpt><trkpt lat="43.46842828986166" lon="10.602822486866831"><ele>585.25</ele><time>2026-03-22T13:39:49Z</time></trkpt><trkpt lat="43.46832322975434" lon="10.602759104285193"><ele>584.0</ele><time>2026-03-22T13:39:50Z</time></trkpt><trkpt lat="43.46822800426359" lon="10.602690449088017"><ele>584.0</ele><time>2026-03-22T13:39:51Z</time></trkpt><trkpt lat="43.468143390938394" lon="10.602584819820708"><ele>584.0</ele><time>2026-03-22T13:39:52Z</time></trkpt><trkpt lat="43.46808152715598" lon="10.602453053439179"><ele>584.0</ele><time>2026-03-22T13:39:53Z</time></trkpt><trkpt lat="43.46803414181689" lon="10.602278058119039"><ele>584.0</ele><time>2026-03-22T13:39:54Z</time></trkpt><trkpt lat="43.46798599184793" lon="10.602076319735467"><ele>583.75</ele><time>2026-03-22T13:39:55Z</time></trkpt><trkpt lat="43.46792896494048" lon="10.601897719211435"><ele>583.5</ele><time>2026-03-22T13:39:56Z</time></trkpt><trkpt lat="43.467872872692844" lon="10.601701992906685"><ele>583.25</ele><time>2026-03-22T13:39:57Z</time></trkpt><trkpt lat="43.46779420355589" lon="10.601525990012481"><ele>583.0</ele><time>2026-03-22T13:39:58Z</time></trkpt><trkpt lat="43.46772314516104" lon="10.601352982747743"><ele>583.0</ele><time>2026-03-22T13:39:58.999Z</time></trkpt><trkpt lat="43.46762898767788" lon="10.60118450187865"><ele>583.0</ele><time>2026-03-22T13:39:59.999Z</time></trkpt><trkpt lat="43.46759177653856" lon="10.601017241240527"><ele>583.0</ele><time>2026-03-22T13:40:00.999Z</time></trkpt><trkpt lat="43.46753018858731" lon="10.600852523972314"><ele>583.0</ele><time>2026-03-22T13:40:01.999Z</time></trkpt><trkpt lat="43.46746306397789" lon="10.600701902338955"><ele>581.75</ele><time>2026-03-22T13:40:02.999Z</time></trkpt><trkpt lat="43.46742710196137" lon="10.600535990790402"><ele>580.5</ele><time>2026-03-22T13:40:03.999Z</time></trkpt><trkpt lat="43.46738448458163" lon="10.60038159494005"><ele>579.25</ele><time>2026-03-22T13:40:04.999Z</time></trkpt><trkpt lat="43.467323278938416" lon="10.600273809330336"><ele>578.0</ele><time>2026-03-22T13:40:05.999Z</time></trkpt><trkpt lat="43.46725404679959" lon="10.600161284863328"><ele>573.3333333333333</ele><time>2026-03-22T13:40:06.999Z</time></trkpt><trkpt lat="43.467181484250204" lon="10.600021253051278"><ele>568.6666666666666</ele><time>2026-03-22T13:40:07.999Z</time></trkpt><trkpt lat="43.46707341312822" lon="10.599866881535718"><ele>564.0</ele><time>2026-03-22T13:40:08.999Z</time></trkpt><trkpt lat="43.466932506926724" lon="10.599714969052457"><ele>563.25</ele><time>2026-03-22T13:40:09.999Z</time></trkpt><trkpt lat="43.46680053701453" lon="10.599575242871644"><ele>562.5</ele><time>2026-03-22T13:40:10.999Z</time></trkpt><trkpt lat="43.46669052094385" lon="10.59943981580445"><ele>561.75</ele><time>2026-03-22T13:40:11.999Z</time></trkpt><trkpt lat="43.466579763444244" lon="10.599364081387213"><ele>561.0</ele><time>2026-03-22T13:40:12.999Z</time></trkpt><trkpt lat="43.4664629104833" lon="10.599304727677456"><ele>559.75</ele><time>2026-03-22T13:40:13.999Z</time></trkpt><trkpt lat="43.46634691883925" lon="10.599215549154584"><ele>558.5</ele><time>2026-03-22T13:40:14.999Z</time></trkpt><trkpt lat="43.4662383861799" lon="10.599087947272213"><ele>557.25</ele><time>2026-03-22T13:40:15.999Z</time></trkpt><trkpt lat="43.466147248619656" lon="10.598926566343424"><ele>556.0</ele><time>2026-03-22T13:40:16.999Z</time></trkpt><trkpt lat="43.46607168048953" lon="10.598775094853215"><ele>553.5</ele><time>2026-03-22T13:40:17.999Z</time></trkpt><trkpt lat="43.46597895116979" lon="10.59864491672705"><ele>551.0</ele><time>2026-03-22T13:40:18.999Z</time></trkpt><trkpt lat="43.46589180918661" lon="10.598527173732977"><ele>548.5</ele><time>2026-03-22T13:40:19.999Z</time></trkpt><trkpt lat="43.46580700759536" lon="10.598417834969958"><ele>546.0</ele><time>2026-03-22T13:40:20.999Z</time></trkpt><trkpt lat="43.465742683782814" lon="10.598269377804192"><ele>546.0</ele><time>2026-03-22T13:40:21.999Z</time></trkpt><trkpt lat="43.465698265037354" lon="10.598115935468948"><ele>546.0</ele><time>2026-03-22T13:40:22.999Z</time></trkpt><trkpt lat="43.46567719238603" lon="10.597985680787449"><ele>546.0</ele><time>2026-03-22T13:40:23.999Z</time></trkpt><trkpt lat="43.46570253138113" lon="10.597855605746869"><ele>546.0</ele><time>2026-03-22T13:40:24.999Z</time></trkpt><trkpt lat="43.46579650629449" lon="10.597781593618167"><ele>546.0</ele><time>2026-03-22T13:40:25.999Z</time></trkpt><trkpt lat="43.46587987925352" lon="10.597668871650232"><ele>543.25</ele><time>2026-03-22T13:40:26.999Z</time></trkpt><trkpt lat="43.466018788860175" lon="10.597599768420924"><ele>540.5</ele><time>2026-03-22T13:40:27.999Z</time></trkpt><trkpt lat="43.466145722131934" lon="10.597548092503024"><ele>537.75</ele><time>2026-03-22T13:40:28.999Z</time></trkpt><trkpt lat="43.46625016352029" lon="10.597512601625274"><ele>535.0</ele><time>2026-03-22T13:40:29.999Z</time></trkpt><trkpt lat="43.46631545984821" lon="10.597431701047961"><ele>535.0</ele><time>2026-03-22T13:40:30.999Z</time></trkpt><trkpt lat="43.46637712675099" lon="10.597333953375623"><ele>535.0</ele><time>2026-03-22T13:40:31.999Z</time></trkpt><trkpt lat="43.46640731040589" lon="10.597173760760459"><ele>535.0</ele><time>2026-03-22T13:40:32.999Z</time></trkpt><trkpt lat="43.4664165932922" lon="10.596976290972227"><ele>535.0</ele><time>2026-03-22T13:40:33.999Z</time></trkpt><trkpt lat="43.466399568819966" lon="10.596764645430321"><ele>533.6666666666667</ele><time>2026-03-22T13:40:34.999Z</time></trkpt><trkpt lat="43.46638678908518" lon="10.596542461029681"><ele>532.3333333333334</ele><time>2026-03-22T13:40:35.999Z</time></trkpt><trkpt lat="43.4663448447335" lon="10.596310589629043"><ele>531.0</ele><time>2026-03-22T13:40:36.999Z</time></trkpt><trkpt lat="43.46630296356816" lon="10.596116709361388"><ele>527.5</ele><time>2026-03-22T13:40:37.999Z</time></trkpt><trkpt lat="43.46627782956094" lon="10.595929263181327"><ele>524.0</ele><time>2026-03-22T13:40:38.999Z</time></trkpt><trkpt lat="43.46623476110776" lon="10.595776118538916"><ele>520.5</ele><time>2026-03-22T13:40:39.999Z</time></trkpt><trkpt lat="43.46619473579849" lon="10.59563326793743"><ele>517.0</ele><time>2026-03-22T13:40:40.999Z</time></trkpt><trkpt lat="43.466170869005225" lon="10.595487854797703"><ele>516.75</ele><time>2026-03-22T13:40:41.999Z</time></trkpt><trkpt lat="43.466151517515065" lon="10.595331987268482"><ele>516.5</ele><time>2026-03-22T13:40:42.999Z</time></trkpt><trkpt lat="43.46612298035158" lon="10.595167434904658"><ele>516.25</ele><time>2026-03-22T13:40:43.999Z</time></trkpt><trkpt lat="43.46612603498212" lon="10.594981999974834"><ele>516.0</ele><time>2026-03-22T13:40:44.999Z</time></trkpt><trkpt lat="43.46612531171242" lon="10.594807881980314"><ele>516.0</ele><time>2026-03-22T13:40:45.999Z</time></trkpt><trkpt lat="43.46611734958411" lon="10.594650992865622"><ele>516.0</ele><time>2026-03-22T13:40:46.999Z</time></trkpt><trkpt lat="43.466104061979365" lon="10.594492954644117"><ele>516.0</ele><time>2026-03-22T13:40:47.999Z</time></trkpt><trkpt lat="43.466073765611945" lon="10.594339670779208"><ele>516.0</ele><time>2026-03-22T13:40:48.999Z</time></trkpt><trkpt lat="43.46601285019095" lon="10.59421950726596"><ele>515.2</ele><time>2026-03-22T13:40:49.999Z</time></trkpt><trkpt lat="43.46591619906092" lon="10.5941216479118"><ele>514.4000000000001</ele><time>2026-03-22T13:40:50.999Z</time></trkpt><trkpt lat="43.46582296677326" lon="10.594038295345337"><ele>513.6</ele><time>2026-03-22T13:40:51.999Z</time></trkpt><trkpt lat="43.46574645389952" lon="10.59399072602527"><ele>512.8000000000001</ele><time>2026-03-22T13:40:52.999Z</time></trkpt><trkpt lat="43.46563270673575" lon="10.593946141733905"><ele>512.0</ele><time>2026-03-22T13:40:53.999Z</time></trkpt><trkpt lat="43.465528189566534" lon="10.593945084072866"><ele>510.6</ele><time>2026-03-22T13:40:54.999Z</time></trkpt><trkpt lat="43.46544169073859" lon="10.593969400718292"><ele>509.20000000000005</ele><time>2026-03-22T13:40:55.999Z</time></trkpt><trkpt lat="43.46537170933356" lon="10.594000845888527"><ele>507.8</ele><time>2026-03-22T13:40:56.999Z</time></trkpt><trkpt lat="43.465311528179086" lon="10.594072722285649"><ele>506.4</ele><time>2026-03-22T13:40:57.999Z</time></trkpt><trkpt lat="43.46527254555948" lon="10.5942179050863"><ele>505.0</ele><time>2026-03-22T13:40:59.999Z</time></trkpt><trkpt lat="43.46527510189616" lon="10.594359916446031"><ele>505.0</ele><time>2026-03-22T13:41:00.999Z</time></trkpt><trkpt lat="43.46525552552131" lon="10.594449288210336"><ele>505.0</ele><time>2026-03-22T13:41:01.999Z</time></trkpt><trkpt lat="43.46525788405301" lon="10.594292882283035"><ele>505.0</ele><time>2026-03-22T13:41:27Z</time></trkpt><trkpt lat="43.4652467656057" lon="10.5941866333368"><ele>505.0</ele><time>2026-03-22T13:41:47Z</time></trkpt><trkpt lat="43.4651865366186" lon="10.594010243942371"><ele>505.0</ele><time>2026-03-22T13:41:49Z</time></trkpt><trkpt lat="43.46513415123565" lon="10.593902245731595"><ele>505.0</ele><time>2026-03-22T13:41:50Z</time></trkpt><trkpt lat="43.465041745975995" lon="10.59378707894756"><ele>505.0</ele><time>2026-03-22T13:41:51Z</time></trkpt><trkpt lat="43.464914463162856" lon="10.593692077297835"><ele>505.0</ele><time>2026-03-22T13:41:52Z</time></trkpt><trkpt lat="43.464814333031626" lon="10.593586778202997"><ele>505.0</ele><time>2026-03-22T13:41:53Z</time></trkpt><trkpt lat="43.464696755560155" lon="10.593460535574312"><ele>503.2</ele><time>2026-03-22T13:41:54Z</time></trkpt><trkpt lat="43.46458059945004" lon="10.593376268115813"><ele>501.4</ele><time>2026-03-22T13:41:55Z</time></trkpt><trkpt lat="43.464484857975656" lon="10.593285494585858"><ele>499.6</ele><time>2026-03-22T13:41:56Z</time></trkpt><trkpt lat="43.46441096939407" lon="10.593199122570013"><ele>497.8</ele><time>2026-03-22T13:41:57Z</time></trkpt><trkpt lat="43.46435745478919" lon="10.593112767211881"><ele>496.0</ele><time>2026-03-22T13:41:58Z</time></trkpt><trkpt lat="43.46432261723914" lon="10.593012739833714"><ele>496.0</ele><time>2026-03-22T13:41:59Z</time></trkpt><trkpt lat="43.46432680049708" lon="10.592890079920505"><ele>496.0</ele><time>2026-03-22T13:42:00Z</time></trkpt><trkpt lat="43.46432026559198" lon="10.592741082633259"><ele>496.0</ele><time>2026-03-22T13:42:02Z</time></trkpt><trkpt lat="43.46424659602279" lon="10.592664264912344"><ele>496.0</ele><time>2026-03-22T13:42:03Z</time></trkpt><trkpt lat="43.46417631433194" lon="10.592592999182159"><ele>496.0</ele><time>2026-03-22T13:42:04Z</time></trkpt><trkpt lat="43.46410548056555" lon="10.592529240000369"><ele>495.0</ele><time>2026-03-22T13:42:05Z</time></trkpt><trkpt lat="43.46401972577127" lon="10.592429474034383"><ele>494.0</ele><time>2026-03-22T13:42:06Z</time></trkpt><trkpt lat="43.46393760383184" lon="10.592321899369782"><ele>493.0</ele><time>2026-03-22T13:42:06.999Z</time></trkpt><trkpt lat="43.46385109104207" lon="10.592200877405915"><ele>492.0</ele><time>2026-03-22T13:42:07.999Z</time></trkpt><trkpt lat="43.463793003179546" lon="10.592117459535112"><ele>491.0</ele><time>2026-03-22T13:42:08.999Z</time></trkpt><trkpt lat="43.463731557653745" lon="10.592026085984678"><ele>490.99999999999994</ele><time>2026-03-22T13:42:09.999Z</time></trkpt><trkpt lat="43.46367765248588" lon="10.591943520843211"><ele>491.0</ele><time>2026-03-22T13:42:10.999Z</time></trkpt><trkpt lat="43.463624242229464" lon="10.591872656126755"><ele>491.0</ele><time>2026-03-22T13:42:11.999Z</time></trkpt><trkpt lat="43.463561531761336" lon="10.591828988108087"><ele>491.0</ele><time>2026-03-22T13:42:12.999Z</time></trkpt><trkpt lat="43.46347460239123" lon="10.591839745171582"><ele>490.99999999999994</ele><time>2026-03-22T13:42:13.999Z</time></trkpt><trkpt lat="43.46339778519486" lon="10.591910094959651"><ele>491.0</ele><time>2026-03-22T13:42:14.999Z</time></trkpt><trkpt lat="43.46336400578945" lon="10.59206171929654"><ele>490.99999999999994</ele><time>2026-03-22T13:42:15.999Z</time></trkpt><trkpt lat="43.463314502027245" lon="10.592177350801926"><ele>491.0</ele><time>2026-03-22T13:42:17.999Z</time></trkpt><trkpt lat="43.46329283592927" lon="10.592295628869971"><ele>491.0</ele><time>2026-03-22T13:42:19.999Z</time></trkpt><trkpt lat="43.46325929036668" lon="10.592401283010137"><ele>491.0</ele><time>2026-03-22T13:42:21.999Z</time></trkpt><trkpt lat="43.463224324127516" lon="10.592513994419907"><ele>490.99999999999994</ele><time>2026-03-22T13:42:23.999Z</time></trkpt><trkpt lat="43.46319009866123" lon="10.59258735162552"><ele>491.0</ele><time>2026-03-22T13:42:25.999Z</time></trkpt><trkpt lat="43.464417289146844" lon="10.592873391112512"><ele>490.71428571428567</ele><time>2026-03-22T13:44:06.998Z</time></trkpt><trkpt lat="43.464367671264924" lon="10.592950330174045"><ele>490.4285714285714</ele><time>2026-03-22T13:49:40.999Z</time></trkpt><trkpt lat="43.464413462419486" lon="10.592874129616904"><ele>490.1428571428571</ele><time>2026-03-22T13:50:48Z</time></trkpt><trkpt lat="43.46436717682849" lon="10.592796188296449"><ele>489.8571428571429</ele><time>2026-03-22T13:50:57Z</time></trkpt><trkpt lat="43.46430303711645" lon="10.592742294188673"><ele>489.5714285714286</ele><time>2026-03-22T13:51:12Z</time></trkpt><trkpt lat="43.464354335007805" lon="10.5928101294944"><ele>489.28571428571433</ele><time>2026-03-22T13:55:12Z</time></trkpt><trkpt lat="43.46438639063047" lon="10.592891720198873"><ele>489.0</ele><time>2026-03-22T13:55:18Z</time></trkpt><trkpt lat="43.46437476717984" lon="10.592795754820198"><ele>489.0</ele><time>2026-03-22T13:55:58.999Z</time></trkpt><trkpt lat="43.46424618184001" lon="10.592699625604231"><ele>489.0</ele><time>2026-03-22T13:56:15.999Z</time></trkpt><trkpt lat="43.46418662876275" lon="10.592667657955635"><ele>489.0</ele><time>2026-03-22T14:20:14Z</time></trkpt><trkpt lat="43.464122114888596" lon="10.59260626276872"><ele>489.0</ele><time>2026-03-22T14:20:16Z</time></trkpt><trkpt lat="43.46405241886904" lon="10.592514345547817"><ele>489.0</ele><time>2026-03-22T14:20:18Z</time></trkpt><trkpt lat="43.46398361542783" lon="10.592408595031658"><ele>489.0</ele><time>2026-03-22T14:20:20Z</time></trkpt><trkpt lat="43.46391678983152" lon="10.592352806338551"><ele>489.0</ele><time>2026-03-22T14:20:21Z</time></trkpt><trkpt lat="43.46383419765203" lon="10.592242099474616"><ele>489.0</ele><time>2026-03-22T14:20:23Z</time></trkpt><trkpt lat="43.46376952368364" lon="10.59217918514148"><ele>489.0</ele><time>2026-03-22T14:20:25Z</time></trkpt><trkpt lat="43.46374223129356" lon="10.59207796662671"><ele>489.0</ele><time>2026-03-22T14:20:27Z</time></trkpt><trkpt lat="43.463691674606196" lon="10.592006425159898"><ele>489.0</ele><time>2026-03-22T14:20:29Z</time></trkpt><trkpt lat="43.463629734538124" lon="10.591971129347213"><ele>489.4</ele><time>2026-03-22T14:20:31Z</time></trkpt><trkpt lat="43.46354326655005" lon="10.591982542146782"><ele>489.79999999999995</ele><time>2026-03-22T14:20:34Z</time></trkpt><trkpt lat="43.46347365462133" lon="10.592098876860081"><ele>490.20000000000005</ele><time>2026-03-22T14:20:36Z</time></trkpt><trkpt lat="43.46342819361903" lon="10.592203587354401"><ele>490.6</ele><time>2026-03-22T14:20:38Z</time></trkpt><trkpt lat="43.46337907160453" lon="10.592314996485879"><ele>491.0</ele><time>2026-03-22T14:20:40Z</time></trkpt><trkpt lat="43.46333496224522" lon="10.592438103936678"><ele>491.0</ele><time>2026-03-22T14:20:42Z</time></trkpt><trkpt lat="43.46329067141795" lon="10.592562138678478"><ele>491.0</ele><time>2026-03-22T14:20:43.999Z</time></trkpt><trkpt lat="43.463231385477" lon="10.592687391970863"><ele>491.0</ele><time>2026-03-22T14:20:45.999Z</time></trkpt><trkpt lat="43.463149725887774" lon="10.592805483448172"><ele>491.0</ele><time>2026-03-22T14:20:47.999Z</time></trkpt><trkpt lat="43.46309183516989" lon="10.592877127928997"><ele>491.0</ele><time>2026-03-22T14:20:49.999Z</time></trkpt><trkpt lat="43.46303395845818" lon="10.592941027701677"><ele>489.8</ele><time>2026-03-22T14:20:51.999Z</time></trkpt><trkpt lat="43.462969225152506" lon="10.593018697126244"><ele>488.6</ele><time>2026-03-22T14:20:53.999Z</time></trkpt><trkpt lat="43.46287683424704" lon="10.593140089005837"><ele>487.4</ele><time>2026-03-22T14:20:55.999Z</time></trkpt><trkpt lat="43.462813223634235" lon="10.593216128557993"><ele>486.2</ele><time>2026-03-22T14:20:56.999Z</time></trkpt><trkpt lat="43.46269666652909" lon="10.59323115839477"><ele>485.0</ele><time>2026-03-22T14:20:58.999Z</time></trkpt><trkpt lat="43.46260782015899" lon="10.5932434795691"><ele>483.3333333333333</ele><time>2026-03-22T14:21:00.999Z</time></trkpt><trkpt lat="43.4625400774068" lon="10.593230954745085"><ele>481.66666666666663</ele><time>2026-03-22T14:21:01.999Z</time></trkpt><trkpt lat="43.46246516188087" lon="10.59320218281135"><ele>480.0</ele><time>2026-03-22T14:21:02.999Z</time></trkpt><trkpt lat="43.46238433175414" lon="10.593148257572432"><ele>478.33333333333337</ele><time>2026-03-22T14:21:03.999Z</time></trkpt><trkpt lat="43.46230804877651" lon="10.593074104651404"><ele>476.6666666666667</ele><time>2026-03-22T14:21:04.999Z</time></trkpt><trkpt lat="43.4622449178086" lon="10.593023189119318"><ele>475.0</ele><time>2026-03-22T14:21:05.999Z</time></trkpt><trkpt lat="43.4621852704523" lon="10.592957559882715"><ele>474.83333333333337</ele><time>2026-03-22T14:21:06.999Z</time></trkpt><trkpt lat="43.46210503518767" lon="10.592884813935232"><ele>474.6666666666667</ele><time>2026-03-22T14:21:07.999Z</time></trkpt><trkpt lat="43.462027845525924" lon="10.592805803721742"><ele>474.5</ele><time>2026-03-22T14:21:08.999Z</time></trkpt><trkpt lat="43.46196831749193" lon="10.592718032510751"><ele>474.33333333333337</ele><time>2026-03-22T14:21:09.999Z</time></trkpt><trkpt lat="43.4619245974562" lon="10.592639790313813"><ele>474.1666666666667</ele><time>2026-03-22T14:21:10.999Z</time></trkpt><trkpt lat="43.461876034103405" lon="10.592564091577099"><ele>474.0</ele><time>2026-03-22T14:21:11.999Z</time></trkpt><trkpt lat="43.46182572224601" lon="10.592497869526943"><ele>474.0</ele><time>2026-03-22T14:21:12.999Z</time></trkpt><trkpt lat="43.461769997811906" lon="10.59244074386928"><ele>474.0</ele><time>2026-03-22T14:21:13.999Z</time></trkpt><trkpt lat="43.46164948746742" lon="10.592421760017693"><ele>474.0</ele><time>2026-03-22T14:21:15.999Z</time></trkpt><trkpt lat="43.46159127890787" lon="10.59246464697067"><ele>474.0</ele><time>2026-03-22T14:21:16.999Z</time></trkpt><trkpt lat="43.46153667798264" lon="10.59255755640477"><ele>474.0</ele><time>2026-03-22T14:21:17.999Z</time></trkpt><trkpt lat="43.46149866119362" lon="10.592662546590557"><ele>474.0</ele><time>2026-03-22T14:21:18.999Z</time></trkpt><trkpt lat="43.46148890522106" lon="10.592772510250287"><ele>473.0</ele><time>2026-03-22T14:21:19.999Z</time></trkpt><trkpt lat="43.46145701218957" lon="10.592858240064889"><ele>472.0</ele><time>2026-03-22T14:21:20.999Z</time></trkpt><trkpt lat="43.461377366916636" lon="10.592896193927844"><ele>471.0</ele><time>2026-03-22T14:21:22.999Z</time></trkpt><trkpt lat="43.46127134992395" lon="10.59280034908389"><ele>470.0</ele><time>2026-03-22T14:21:24.999Z</time></trkpt><trkpt lat="43.461210202496964" lon="10.592708796709944"><ele>469.0</ele><time>2026-03-22T14:21:25.999Z</time></trkpt><trkpt lat="43.461129952255035" lon="10.592623282077227"><ele>470.83333333333337</ele><time>2026-03-22T14:21:26.999Z</time></trkpt><trkpt lat="43.46104476800714" lon="10.59259411403619"><ele>472.6666666666667</ele><time>2026-03-22T14:21:27.999Z</time></trkpt><trkpt lat="43.46097671458256" lon="10.592555291313422"><ele>474.5</ele><time>2026-03-22T14:21:28.999Z</time></trkpt><trkpt lat="43.460889677007835" lon="10.592532973947188"><ele>476.33333333333337</ele><time>2026-03-22T14:21:29.999Z</time></trkpt><trkpt lat="43.46080857267231" lon="10.592524874156942"><ele>478.1666666666667</ele><time>2026-03-22T14:21:30.999Z</time></trkpt><trkpt lat="43.46070520282373" lon="10.592509005515552"><ele>480.0</ele><time>2026-03-22T14:21:31.999Z</time></trkpt><trkpt lat="43.46060690559315" lon="10.592492751728223"><ele>480.0</ele><time>2026-03-22T14:21:32.999Z</time></trkpt><trkpt lat="43.46050834712767" lon="10.592481077503441"><ele>480.0</ele><time>2026-03-22T14:21:33.999Z</time></trkpt><trkpt lat="43.460420097175366" lon="10.592460458875136"><ele>480.0</ele><time>2026-03-22T14:21:34.999Z</time></trkpt><trkpt lat="43.46032792204196" lon="10.592447479717567"><ele>480.0</ele><time>2026-03-22T14:21:35.999Z</time></trkpt><trkpt lat="43.46025342961396" lon="10.592428816619703"><ele>480.0</ele><time>2026-03-22T14:21:36.999Z</time></trkpt><trkpt lat="43.46018892192847" lon="10.592405759708974"><ele>480.0</ele><time>2026-03-22T14:21:37.999Z</time></trkpt><trkpt lat="43.46009835948574" lon="10.592355548784724"><ele>481.0</ele><time>2026-03-22T14:21:38.999Z</time></trkpt><trkpt lat="43.46001626930182" lon="10.592301556812744"><ele>482.0</ele><time>2026-03-22T14:21:39.999Z</time></trkpt><trkpt lat="43.459942472668686" lon="10.592243719015755"><ele>483.0</ele><time>2026-03-22T14:21:40.999Z</time></trkpt><trkpt lat="43.45987515766947" lon="10.592159821659521"><ele>484.0</ele><time>2026-03-22T14:21:41.999Z</time></trkpt><trkpt lat="43.459823560074796" lon="10.592062730082063"><ele>485.0</ele><time>2026-03-22T14:21:42.999Z</time></trkpt><trkpt lat="43.45979230925698" lon="10.591964156811988"><ele>486.0</ele><time>2026-03-22T14:21:43.999Z</time></trkpt><trkpt lat="43.45978025247711" lon="10.5918582785811"><ele>486.0</ele><time>2026-03-22T14:21:44.999Z</time></trkpt><trkpt lat="43.459765235483886" lon="10.591727855787195"><ele>486.0</ele><time>2026-03-22T14:21:45.999Z</time></trkpt><trkpt lat="43.45971744867623" lon="10.591620958580352"><ele>486.0</ele><time>2026-03-22T14:21:46.999Z</time></trkpt><trkpt lat="43.45965034628122" lon="10.591528127063665"><ele>486.0</ele><time>2026-03-22T14:21:47.999Z</time></trkpt><trkpt lat="43.459585287933564" lon="10.591437366926616"><ele>486.0</ele><time>2026-03-22T14:21:48.999Z</time></trkpt><trkpt lat="43.45953140226806" lon="10.591331835658147"><ele>486.4</ele><time>2026-03-22T14:21:49.999Z</time></trkpt><trkpt lat="43.45945659151869" lon="10.591251946362915"><ele>486.8</ele><time>2026-03-22T14:21:50.999Z</time></trkpt><trkpt lat="43.45937345521383" lon="10.591173751960456"><ele>487.19999999999993</ele><time>2026-03-22T14:21:51.999Z</time></trkpt><trkpt lat="43.45929856733631" lon="10.591128366429084"><ele>487.59999999999997</ele><time>2026-03-22T14:21:52.999Z</time></trkpt><trkpt lat="43.459209833657695" lon="10.591094358556605"><ele>488.0</ele><time>2026-03-22T14:21:53.999Z</time></trkpt><trkpt lat="43.45911935945257" lon="10.591059145340854"><ele>487.99999999999994</ele><time>2026-03-22T14:21:54.999Z</time></trkpt><trkpt lat="43.459045700142454" lon="10.591037612603836"><ele>488.0</ele><time>2026-03-22T14:21:55.999Z</time></trkpt><trkpt lat="43.458983822264784" lon="10.590991314084457"><ele>488.0</ele><time>2026-03-22T14:21:57Z</time></trkpt><trkpt lat="43.45891102747301" lon="10.590995183479201"><ele>488.0</ele><time>2026-03-22T14:21:59Z</time></trkpt><trkpt lat="43.45887033371814" lon="10.591153470758309"><ele>487.99999999999994</ele><time>2026-03-22T14:22:01Z</time></trkpt><trkpt lat="43.45884668633633" lon="10.591235516782511"><ele>488.0</ele><time>2026-03-22T14:22:02Z</time></trkpt><trkpt lat="43.45873742418889" lon="10.591285142264514"><ele>490.99999999999994</ele><time>2026-03-22T14:22:04Z</time></trkpt><trkpt lat="43.458665211244686" lon="10.591294893442303"><ele>494.0</ele><time>2026-03-22T14:22:05Z</time></trkpt><trkpt lat="43.458601185201296" lon="10.591322071567452"><ele>497.0</ele><time>2026-03-22T14:22:06Z</time></trkpt><trkpt lat="43.458503116135766" lon="10.591415002829756"><ele>500.0</ele><time>2026-03-22T14:22:08Z</time></trkpt><trkpt lat="43.45844221029631" lon="10.591500479968396"><ele>502.99999999999994</ele><time>2026-03-22T14:22:09Z</time></trkpt><trkpt lat="43.45837856368286" lon="10.591581860326185"><ele>506.0</ele><time>2026-03-22T14:22:10Z</time></trkpt><trkpt lat="43.45831513674559" lon="10.591647397575672"><ele>505.99999999999994</ele><time>2026-03-22T14:22:11Z</time></trkpt><trkpt lat="43.45824247774108" lon="10.591688795512294"><ele>506.0</ele><time>2026-03-22T14:22:12Z</time></trkpt><trkpt lat="43.45817829427944" lon="10.591767533585587"><ele>506.0</ele><time>2026-03-22T14:22:13Z</time></trkpt><trkpt lat="43.45814164441181" lon="10.591854079339058"><ele>506.0</ele><time>2026-03-22T14:22:14Z</time></trkpt><trkpt lat="43.458146781307335" lon="10.5919722961091"><ele>505.99999999999994</ele><time>2026-03-22T14:22:15Z</time></trkpt><trkpt lat="43.458168418491994" lon="10.592080990478957"><ele>506.0</ele><time>2026-03-22T14:22:16Z</time></trkpt><trkpt lat="43.45821003420833" lon="10.59218994428573"><ele>506.8</ele><time>2026-03-22T14:22:17Z</time></trkpt><trkpt lat="43.458246614340894" lon="10.592285481827368"><ele>507.6</ele><time>2026-03-22T14:22:18Z</time></trkpt><trkpt lat="43.458209914336166" lon="10.592445420671256"><ele>508.4</ele><time>2026-03-22T14:22:20Z</time></trkpt><trkpt lat="43.45813988529577" lon="10.592547520937885"><ele>509.2</ele><time>2026-03-22T14:22:21Z</time></trkpt><trkpt lat="43.458060493766816" lon="10.592623098645257"><ele>510.0</ele><time>2026-03-22T14:22:22Z</time></trkpt><trkpt lat="43.45797760863803" lon="10.592700735647144"><ele>510.5</ele><time>2026-03-22T14:22:23Z</time></trkpt><trkpt lat="43.457900887961515" lon="10.592800656381346"><ele>511.0</ele><time>2026-03-22T14:22:24Z</time></trkpt><trkpt lat="43.457825713464025" lon="10.592870035185484"><ele>511.5</ele><time>2026-03-22T14:22:25Z</time></trkpt><trkpt lat="43.457749119738374" lon="10.592919577161945"><ele>512.0</ele><time>2026-03-22T14:22:26Z</time></trkpt><trkpt lat="43.45767210509137" lon="10.59295758933878"><ele>512.5</ele><time>2026-03-22T14:22:27Z</time></trkpt><trkpt lat="43.457598113622005" lon="10.592989311401476"><ele>513.0</ele><time>2026-03-22T14:22:28Z</time></trkpt><trkpt lat="43.457521758300075" lon="10.593034995135925"><ele>515.0</ele><time>2026-03-22T14:22:29Z</time></trkpt><trkpt lat="43.4574651092261" lon="10.593117499910418"><ele>517.0</ele><time>2026-03-22T14:22:30Z</time></trkpt><trkpt lat="43.457409456817956" lon="10.59320236840692"><ele>519.0</ele><time>2026-03-22T14:22:31Z</time></trkpt><trkpt lat="43.45735631551347" lon="10.59327321765682"><ele>521.0</ele><time>2026-03-22T14:22:32Z</time></trkpt><trkpt lat="43.45728726165346" lon="10.593327576598906"><ele>523.0</ele><time>2026-03-22T14:22:33Z</time></trkpt><trkpt lat="43.457224353844126" lon="10.593362190013288"><ele>525.0</ele><time>2026-03-22T14:22:34Z</time></trkpt><trkpt lat="43.45715826501062" lon="10.593356985056582"><ele>525.5</ele><time>2026-03-22T14:22:35Z</time></trkpt><trkpt lat="43.457080738638666" lon="10.5933368302025"><ele>526.0</ele><time>2026-03-22T14:22:36Z</time></trkpt><trkpt lat="43.45699712482644" lon="10.593294314722"><ele>526.5</ele><time>2026-03-22T14:22:37Z</time></trkpt><trkpt lat="43.45690396239186" lon="10.593279452777068"><ele>527.0</ele><time>2026-03-22T14:22:38Z</time></trkpt><trkpt lat="43.45680625264653" lon="10.593299304597261"><ele>527.5</ele><time>2026-03-22T14:22:39Z</time></trkpt><trkpt lat="43.45672139569783" lon="10.593282693383319"><ele>528.0</ele><time>2026-03-22T14:22:40Z</time></trkpt><trkpt lat="43.456634762542905" lon="10.593259533623515"><ele>528.0</ele><time>2026-03-22T14:22:41Z</time></trkpt><trkpt lat="43.456568622654046" lon="10.59326465452361"><ele>528.0</ele><time>2026-03-22T14:22:42Z</time></trkpt><trkpt lat="43.45650222496336" lon="10.593414848915817"><ele>528.0</ele><time>2026-03-22T14:22:44Z</time></trkpt><trkpt lat="43.456455426673315" lon="10.593524036330733"><ele>528.0</ele><time>2026-03-22T14:22:45Z</time></trkpt><trkpt lat="43.45641209466193" lon="10.593634714985392"><ele>528.0</ele><time>2026-03-22T14:22:46Z</time></trkpt><trkpt lat="43.45630445929131" lon="10.593692301197798"><ele>528.6</ele><time>2026-03-22T14:22:48Z</time></trkpt><trkpt lat="43.45623041507074" lon="10.593689262966835"><ele>529.1999999999999</ele><time>2026-03-22T14:22:49Z</time></trkpt><trkpt lat="43.456141919549054" lon="10.593798506068657"><ele>529.8</ele><time>2026-03-22T14:22:51Z</time></trkpt><trkpt lat="43.456120745043556" lon="10.593904955505502"><ele>530.4</ele><time>2026-03-22T14:22:51.999Z</time></trkpt><trkpt lat="43.456092497349914" lon="10.593992869364913"><ele>531.0</ele><time>2026-03-22T14:22:52.999Z</time></trkpt><trkpt lat="43.45604213843486" lon="10.594171447571489"><ele>531.0</ele><time>2026-03-22T14:22:54.999Z</time></trkpt><trkpt lat="43.45603045216343" lon="10.594301110260924"><ele>531.0</ele><time>2026-03-22T14:22:55.999Z</time></trkpt><trkpt lat="43.45601324549744" lon="10.594412736960637"><ele>531.0</ele><time>2026-03-22T14:22:56.999Z</time></trkpt><trkpt lat="43.45597642757608" lon="10.594504695328279"><ele>531.0</ele><time>2026-03-22T14:22:57.999Z</time></trkpt><trkpt lat="43.45591721431102" lon="10.594576631332343"><ele>531.0</ele><time>2026-03-22T14:22:58.999Z</time></trkpt><trkpt lat="43.45583558147411" lon="10.594622042596221"><ele>531.0</ele><time>2026-03-22T14:22:59.999Z</time></trkpt><trkpt lat="43.45575957217664" lon="10.594650723472146"><ele>532.5</ele><time>2026-03-22T14:23:00.999Z</time></trkpt><trkpt lat="43.45567808465154" lon="10.594666913457875"><ele>534.0</ele><time>2026-03-22T14:23:01.999Z</time></trkpt><trkpt lat="43.455594766285785" lon="10.594661942133184"><ele>535.5</ele><time>2026-03-22T14:23:02.999Z</time></trkpt><trkpt lat="43.4555163376207" lon="10.594682990643916"><ele>537.0</ele><time>2026-03-22T14:23:03.999Z</time></trkpt><trkpt lat="43.45541758956677" lon="10.59470078300031"><ele>538.5</ele><time>2026-03-22T14:23:04.999Z</time></trkpt><trkpt lat="43.45531881861381" lon="10.594716986291832"><ele>540.0</ele><time>2026-03-22T14:23:05.999Z</time></trkpt><trkpt lat="43.45523496676944" lon="10.59473406305945"><ele>540.0</ele><time>2026-03-22T14:23:06.999Z</time></trkpt><trkpt lat="43.455157949127496" lon="10.594778220644436"><ele>540.0</ele><time>2026-03-22T14:23:07.999Z</time></trkpt><trkpt lat="43.45508441997836" lon="10.594835321211976"><ele>540.0</ele><time>2026-03-22T14:23:08.999Z</time></trkpt><trkpt lat="43.45499914074766" lon="10.594885133274541"><ele>540.0</ele><time>2026-03-22T14:23:09.999Z</time></trkpt><trkpt lat="43.45492144459446" lon="10.594902495457896"><ele>540.0</ele><time>2026-03-22T14:23:10.999Z</time></trkpt><trkpt lat="43.454836371820306" lon="10.594879558653037"><ele>540.0</ele><time>2026-03-22T14:23:11.999Z</time></trkpt><trkpt lat="43.45474565582572" lon="10.594873843975725"><ele>540.0</ele><time>2026-03-22T14:23:12.999Z</time></trkpt><trkpt lat="43.45466899111474" lon="10.594899685676523"><ele>540.0</ele><time>2026-03-22T14:23:13.999Z</time></trkpt><trkpt lat="43.45460123290739" lon="10.594964512231497"><ele>540.0</ele><time>2026-03-22T14:23:14.999Z</time></trkpt><trkpt lat="43.454527064755446" lon="10.595047695382807"><ele>540.0</ele><time>2026-03-22T14:23:15.999Z</time></trkpt><trkpt lat="43.4544535095325" lon="10.595134083710878"><ele>540.0</ele><time>2026-03-22T14:23:16.999Z</time></trkpt><trkpt lat="43.454391280767574" lon="10.595187379983404"><ele>540.0</ele><time>2026-03-22T14:23:17.999Z</time></trkpt><trkpt lat="43.45430129397228" lon="10.595288329741008"><ele>539.4</ele><time>2026-03-22T14:23:19.999Z</time></trkpt><trkpt lat="43.45419572537784" lon="10.595336408135582"><ele>538.8</ele><time>2026-03-22T14:23:21.999Z</time></trkpt><trkpt lat="43.45412980140356" lon="10.595367472306592"><ele>538.2</ele><time>2026-03-22T14:23:22.999Z</time></trkpt><trkpt lat="43.454096154026026" lon="10.595450228806259"><ele>537.6</ele><time>2026-03-22T14:23:23.999Z</time></trkpt><trkpt lat="43.45402222547943" lon="10.595574296886015"><ele>537.0</ele><time>2026-03-22T14:23:25.999Z</time></trkpt><trkpt lat="43.4539628436215" lon="10.595737465017974"><ele>537.0</ele><time>2026-03-22T14:23:27.999Z</time></trkpt><trkpt lat="43.453917722793676" lon="10.595861990117141"><ele>537.0</ele><time>2026-03-22T14:23:28.999Z</time></trkpt><trkpt lat="43.45387032615087" lon="10.595999226789676"><ele>537.0</ele><time>2026-03-22T14:23:29.999Z</time></trkpt><trkpt lat="43.45385066398699" lon="10.596122456031193"><ele>537.0</ele><time>2026-03-22T14:23:30.999Z</time></trkpt><trkpt lat="43.45384589782271" lon="10.596218241879948"><ele>537.0</ele><time>2026-03-22T14:23:31.999Z</time></trkpt><trkpt lat="43.453815786248974" lon="10.596305226579576"><ele>537.0</ele><time>2026-03-22T14:23:32.999Z</time></trkpt><trkpt lat="43.45377216031319" lon="10.596377887905097"><ele>534.8333333333334</ele><time>2026-03-22T14:23:33.999Z</time></trkpt><trkpt lat="43.453732746797314" lon="10.596461985414377"><ele>532.6666666666666</ele><time>2026-03-22T14:23:34.999Z</time></trkpt><trkpt lat="43.453706201103394" lon="10.596572050502324"><ele>530.5</ele><time>2026-03-22T14:23:35.999Z</time></trkpt><trkpt lat="43.45368753197826" lon="10.596688834366882"><ele>528.3333333333333</ele><time>2026-03-22T14:23:36.999Z</time></trkpt><trkpt lat="43.45366071789951" lon="10.59680445823286"><ele>526.1666666666666</ele><time>2026-03-22T14:23:37.999Z</time></trkpt><trkpt lat="43.4536054956026" lon="10.596901527275895"><ele>524.0</ele><time>2026-03-22T14:23:38.999Z</time></trkpt><trkpt lat="43.45352149408475" lon="10.59701473854708"><ele>524.0</ele><time>2026-03-22T14:23:39.999Z</time></trkpt><trkpt lat="43.45345992626193" lon="10.597144920445814"><ele>524.0</ele><time>2026-03-22T14:23:40.999Z</time></trkpt><trkpt lat="43.45342035510334" lon="10.597254445592949"><ele>524.0</ele><time>2026-03-22T14:23:41.999Z</time></trkpt><trkpt lat="43.45339566313415" lon="10.597349793976324"><ele>524.0</ele><time>2026-03-22T14:23:42.999Z</time></trkpt><trkpt lat="43.45332292550489" lon="10.59741142514088"><ele>524.0</ele><time>2026-03-22T14:23:44.999Z</time></trkpt><trkpt lat="43.45325018980484" lon="10.597425320416102"><ele>524.0</ele><time>2026-03-22T14:23:45.999Z</time></trkpt><trkpt lat="43.45317105180403" lon="10.597438707330706"><ele>524.0</ele><time>2026-03-22T14:23:46.999Z</time></trkpt><trkpt lat="43.45308223134551" lon="10.597518974231763"><ele>524.0</ele><time>2026-03-22T14:23:48.999Z</time></trkpt><trkpt lat="43.45304809187475" lon="10.597624077038544"><ele>524.0</ele><time>2026-03-22T14:23:50.999Z</time></trkpt><trkpt lat="43.45304319283207" lon="10.597723832516097"><ele>524.0</ele><time>2026-03-22T14:23:52.999Z</time></trkpt><trkpt lat="43.45307385880695" lon="10.597845475833402"><ele>524.0</ele><time>2026-03-22T14:23:54.999Z</time></trkpt><trkpt lat="43.45308070547506" lon="10.597936211923727"><ele>524.0</ele><time>2026-03-22T14:23:55.999Z</time></trkpt><trkpt lat="43.45307827404995" lon="10.598047167332837"><ele>524.8333333333333</ele><time>2026-03-22T14:23:56.999Z</time></trkpt><trkpt lat="43.453083142748156" lon="10.598135812000063"><ele>525.6666666666666</ele><time>2026-03-22T14:23:57.999Z</time></trkpt><trkpt lat="43.453081241520096" lon="10.59823252535481"><ele>526.5</ele><time>2026-03-22T14:23:58.999Z</time></trkpt><trkpt lat="43.45309712780134" lon="10.598371915646604"><ele>527.3333333333334</ele><time>2026-03-22T14:24:00.999Z</time></trkpt><trkpt lat="43.45318992042534" lon="10.598510653926414"><ele>528.1666666666667</ele><time>2026-03-22T14:24:03Z</time></trkpt><trkpt lat="43.45322755255459" lon="10.598590681278843"><ele>529.0</ele><time>2026-03-22T14:24:04Z</time></trkpt><trkpt lat="43.453212198975976" lon="10.598745901440054"><ele>530.0</ele><time>2026-03-22T14:24:06Z</time></trkpt><trkpt lat="43.45317878969869" lon="10.598828393957806"><ele>531.0</ele><time>2026-03-22T14:24:07Z</time></trkpt><trkpt lat="43.453153345977434" lon="10.598999769667287"><ele>532.0</ele><time>2026-03-22T14:24:09Z</time></trkpt><trkpt lat="43.45319782775918" lon="10.599153702892446"><ele>533.0</ele><time>2026-03-22T14:24:11Z</time></trkpt><trkpt lat="43.45322341737329" lon="10.59929279151899"><ele>534.0</ele><time>2026-03-22T14:24:13Z</time></trkpt><trkpt lat="43.45325082496688" lon="10.599458562899601"><ele>535.0</ele><time>2026-03-22T14:24:15Z</time></trkpt><trkpt lat="43.453244837406686" lon="10.599562842309698"><ele>536.0</ele><time>2026-03-22T14:24:16Z</time></trkpt><trkpt lat="43.45323963536378" lon="10.599655718339609"><ele>537.0</ele><time>2026-03-22T14:24:17Z</time></trkpt><trkpt lat="43.453229349886115" lon="10.599820798999087"><ele>538.0</ele><time>2026-03-22T14:24:19Z</time></trkpt><trkpt lat="43.453283217059685" lon="10.599954417270462"><ele>539.0</ele><time>2026-03-22T14:24:21Z</time></trkpt><trkpt lat="43.45330087663642" lon="10.600065044690865"><ele>539.0</ele><time>2026-03-22T14:24:23Z</time></trkpt><trkpt lat="43.45330409031534" lon="10.600185584018003"><ele>539.0</ele><time>2026-03-22T14:24:25Z</time></trkpt><trkpt lat="43.45331924305641" lon="10.600333512001763"><ele>539.0</ele><time>2026-03-22T14:24:27Z</time></trkpt><trkpt lat="43.453295056025155" lon="10.600423812464037"><ele>539.0</ele><time>2026-03-22T14:24:28Z</time></trkpt><trkpt lat="43.453253501687605" lon="10.60055293088863"><ele>539.0</ele><time>2026-03-22T14:24:30Z</time></trkpt><trkpt lat="43.453241540942464" lon="10.600676130686308"><ele>539.3333333333333</ele><time>2026-03-22T14:24:32Z</time></trkpt><trkpt lat="43.45324236490409" lon="10.600786534896175"><ele>539.6666666666666</ele><time>2026-03-22T14:24:34Z</time></trkpt><trkpt lat="43.45324293644022" lon="10.600873786701298"><ele>540.0</ele><time>2026-03-22T14:27:21.999Z</time></trkpt><trkpt lat="43.45328293318811" lon="10.601018471352797"><ele>540.3333333333334</ele><time>2026-03-22T14:27:38.999Z</time></trkpt><trkpt lat="43.45323063443613" lon="10.601145412039298"><ele>540.6666666666667</ele><time>2026-03-22T14:27:40.999Z</time></trkpt><trkpt lat="43.45317378613694" lon="10.601193935261778"><ele>541.0</ele><time>2026-03-22T14:27:41.999Z</time></trkpt><trkpt lat="43.453079960710426" lon="10.601201501064349"><ele>541.6</ele><time>2026-03-22T14:27:43.999Z</time></trkpt><trkpt lat="43.453004170995406" lon="10.601208163074377"><ele>542.2</ele><time>2026-03-22T14:27:45.999Z</time></trkpt><trkpt lat="43.4529090606137" lon="10.601250011728789"><ele>542.8</ele><time>2026-03-22T14:27:47.999Z</time></trkpt><trkpt lat="43.452856540197985" lon="10.601365922754884"><ele>543.4</ele><time>2026-03-22T14:27:49.999Z</time></trkpt><trkpt lat="43.452813462748686" lon="10.601515624587957"><ele>544.0</ele><time>2026-03-22T14:27:51.999Z</time></trkpt><trkpt lat="43.45277923985835" lon="10.601608412610295"><ele>543.4</ele><time>2026-03-22T14:27:53.999Z</time></trkpt><trkpt lat="43.452737478278706" lon="10.601710820023849"><ele>542.8</ele><time>2026-03-22T14:28:38Z</time></trkpt><trkpt lat="43.452677993523814" lon="10.601863101235681"><ele>542.2</ele><time>2026-03-22T14:28:40Z</time></trkpt><trkpt lat="43.45268884218638" lon="10.601996996184408"><ele>541.6</ele><time>2026-03-22T14:28:41Z</time></trkpt><trkpt lat="43.45269544296394" lon="10.602111426786303"><ele>541.0</ele><time>2026-03-22T14:28:42Z</time></trkpt><trkpt lat="43.45270755547196" lon="10.602220238849208"><ele>541.0</ele><time>2026-03-22T14:28:43Z</time></trkpt><trkpt lat="43.452676930834855" lon="10.602320759586894"><ele>541.0</ele><time>2026-03-22T14:28:45Z</time></trkpt><trkpt lat="43.452640314568946" lon="10.602395713911436"><ele>541.0</ele><time>2026-03-22T14:28:46Z</time></trkpt><trkpt lat="43.452612463545655" lon="10.602486693519166"><ele>541.0</ele><time>2026-03-22T14:28:47Z</time></trkpt><trkpt lat="43.45257667385618" lon="10.602567835666907"><ele>541.0</ele><time>2026-03-22T14:28:48Z</time></trkpt><trkpt lat="43.4525258123171" lon="10.602630273428773"><ele>541.0</ele><time>2026-03-22T14:28:49Z</time></trkpt><trkpt lat="43.45240578473024" lon="10.602678535738248"><ele>541.0</ele><time>2026-03-22T14:28:51Z</time></trkpt><trkpt lat="43.45228959657977" lon="10.602758273906106"><ele>541.0</ele><time>2026-03-22T14:28:53Z</time></trkpt><trkpt lat="43.452224041950664" lon="10.602814207134655"><ele>541.0</ele><time>2026-03-22T14:28:54Z</time></trkpt><trkpt lat="43.452161748857584" lon="10.602876055712795"><ele>541.0</ele><time>2026-03-22T14:28:55Z</time></trkpt><trkpt lat="43.452136810128344" lon="10.603027426799137"><ele>541.0</ele><time>2026-03-22T14:28:57Z</time></trkpt><trkpt lat="43.45214953393764" lon="10.603140700667199"><ele>542.2</ele><time>2026-03-22T14:28:59Z</time></trkpt><trkpt lat="43.45215854154978" lon="10.603228065742499"><ele>543.4000000000001</ele><time>2026-03-22T14:29:01Z</time></trkpt><trkpt lat="43.45217337667012" lon="10.603390775595981"><ele>544.6</ele><time>2026-03-22T14:29:03Z</time></trkpt><trkpt lat="43.45219111492838" lon="10.603474392456018"><ele>545.8000000000001</ele><time>2026-03-22T14:29:04Z</time></trkpt><trkpt lat="43.4522128953222" lon="10.603633084051722"><ele>547.0</ele><time>2026-03-22T14:29:06Z</time></trkpt><trkpt lat="43.45219564421388" lon="10.603811444846851"><ele>547.0</ele><time>2026-03-22T14:29:08Z</time></trkpt><trkpt lat="43.45218845721827" lon="10.603898241813415"><ele>547.0</ele><time>2026-03-22T14:29:09Z</time></trkpt><trkpt lat="43.4521753191716" lon="10.60400002138812"><ele>547.0</ele><time>2026-03-22T14:29:10Z</time></trkpt><trkpt lat="43.452158198448686" lon="10.604105004015155"><ele>547.0</ele><time>2026-03-22T14:29:11Z</time></trkpt><trkpt lat="43.4520978609686" lon="10.60424791884592"><ele>547.0</ele><time>2026-03-22T14:29:13Z</time></trkpt><trkpt lat="43.45204461004749" lon="10.604317957693128"><ele>547.0</ele><time>2026-03-22T14:29:13.999Z</time></trkpt><trkpt lat="43.451993223057116" lon="10.604382344310817"><ele>545.6666666666667</ele><time>2026-03-22T14:29:14.999Z</time></trkpt><trkpt lat="43.45194080715214" lon="10.60446466183319"><ele>544.3333333333334</ele><time>2026-03-22T14:29:15.999Z</time></trkpt><trkpt lat="43.45190295931315" lon="10.604548364900754"><ele>543.0</ele><time>2026-03-22T14:29:16.999Z</time></trkpt><trkpt lat="43.45187247263841" lon="10.604631357438283"><ele>541.6666666666666</ele><time>2026-03-22T14:29:17.999Z</time></trkpt><trkpt lat="43.45181080285505" lon="10.604782578386866"><ele>540.3333333333333</ele><time>2026-03-22T14:29:19.999Z</time></trkpt><trkpt lat="43.45175118408484" lon="10.60486866451454"><ele>539.0</ele><time>2026-03-22T14:29:20.999Z</time></trkpt><trkpt lat="43.451717298203675" lon="10.60496878220217"><ele>539.0</ele><time>2026-03-22T14:29:21.999Z</time></trkpt><trkpt lat="43.45169124779638" lon="10.60505060466246"><ele>539.0</ele><time>2026-03-22T14:29:22.999Z</time></trkpt><trkpt lat="43.4516729584344" lon="10.605142808244965"><ele>539.0</ele><time>2026-03-22T14:29:23.999Z</time></trkpt><trkpt lat="43.45165064092293" lon="10.605226930714531"><ele>539.0</ele><time>2026-03-22T14:29:24.999Z</time></trkpt><trkpt lat="43.45160257839099" lon="10.605296594225557"><ele>539.0</ele><time>2026-03-22T14:29:25.999Z</time></trkpt><trkpt lat="43.451543860998775" lon="10.605354048226713"><ele>539.0</ele><time>2026-03-22T14:29:26.999Z</time></trkpt><trkpt lat="43.451479770691556" lon="10.60543782722236"><ele>539.0</ele><time>2026-03-22T14:29:27.999Z</time></trkpt><trkpt lat="43.451426690747134" lon="10.605516265408495"><ele>538.8333333333333</ele><time>2026-03-22T14:29:28.999Z</time></trkpt><trkpt lat="43.45138676252643" lon="10.60559894052521"><ele>538.6666666666666</ele><time>2026-03-22T14:29:29.999Z</time></trkpt><trkpt lat="43.451320720475145" lon="10.605657300555762"><ele>538.5</ele><time>2026-03-22T14:29:31.999Z</time></trkpt><trkpt lat="43.451221189301634" lon="10.605710217374758"><ele>538.3333333333334</ele><time>2026-03-22T14:29:33.999Z</time></trkpt><trkpt lat="43.45117127697145" lon="10.605767368049152"><ele>538.1666666666667</ele><time>2026-03-22T14:29:34.999Z</time></trkpt><trkpt lat="43.451094132827855" lon="10.605833647751206"><ele>538.0</ele><time>2026-03-22T14:29:36.999Z</time></trkpt><trkpt lat="43.45101550095401" lon="10.605908775496086"><ele>538.3333333333334</ele><time>2026-03-22T14:29:38.999Z</time></trkpt><trkpt lat="43.45095452528916" lon="10.605958166256348"><ele>538.6666666666667</ele><time>2026-03-22T14:29:41.999Z</time></trkpt><trkpt lat="43.45095522214385" lon="10.605868207248777"><ele>539.0</ele><time>2026-03-22T14:30:36Z</time></trkpt><trkpt lat="43.450891333856816" lon="10.605920528583798"><ele>539.3333333333334</ele><time>2026-03-22T14:30:38Z</time></trkpt><trkpt lat="43.45079190788079" lon="10.606001967577914"><ele>539.6666666666666</ele><time>2026-03-22T14:30:40Z</time></trkpt><trkpt lat="43.45071062289248" lon="10.606068399500856"><ele>540.0</ele><time>2026-03-22T14:30:41Z</time></trkpt><trkpt lat="43.45064547058688" lon="10.60613833595163"><ele>540.0</ele><time>2026-03-22T14:30:42Z</time></trkpt><trkpt lat="43.450558318568135" lon="10.606183656788858"><ele>540.0</ele><time>2026-03-22T14:30:43Z</time></trkpt><trkpt lat="43.4504680285269" lon="10.606247022515257"><ele>540.0</ele><time>2026-03-22T14:30:44Z</time></trkpt><trkpt lat="43.450388317044734" lon="10.606296838135384"><ele>540.0</ele><time>2026-03-22T14:30:45Z</time></trkpt><trkpt lat="43.4502889067157" lon="10.606360043899212"><ele>540.0</ele><time>2026-03-22T14:30:47Z</time></trkpt><trkpt lat="43.45017466974088" lon="10.606418393063484"><ele>539.6666666666666</ele><time>2026-03-22T14:30:49Z</time></trkpt><trkpt lat="43.45008612165851" lon="10.606431348190508"><ele>539.3333333333334</ele><time>2026-03-22T14:30:50Z</time></trkpt><trkpt lat="43.450007079409446" lon="10.606468495592166"><ele>539.0</ele><time>2026-03-22T14:30:51Z</time></trkpt><trkpt lat="43.44993722206847" lon="10.606531412418747"><ele>538.6666666666667</ele><time>2026-03-22T14:30:52Z</time></trkpt><trkpt lat="43.449874515791954" lon="10.606605588020232"><ele>538.3333333333334</ele><time>2026-03-22T14:30:53Z</time></trkpt><trkpt lat="43.4498202689913" lon="10.606666639125923"><ele>538.0</ele><time>2026-03-22T14:30:54Z</time></trkpt><trkpt lat="43.44976026019345" lon="10.606725635841512"><ele>538.0</ele><time>2026-03-22T14:30:55Z</time></trkpt><trkpt lat="43.44969119819944" lon="10.60678573223855"><ele>538.0</ele><time>2026-03-22T14:30:56Z</time></trkpt><trkpt lat="43.4496284535076" lon="10.606848975815856"><ele>538.0</ele><time>2026-03-22T14:30:57Z</time></trkpt><trkpt lat="43.4495652076685" lon="10.606916960808526"><ele>538.0</ele><time>2026-03-22T14:30:58Z</time></trkpt><trkpt lat="43.44949675002282" lon="10.606982090637478"><ele>538.0</ele><time>2026-03-22T14:30:59Z</time></trkpt><trkpt lat="43.449430417086155" lon="10.607025598462773"><ele>538.0</ele><time>2026-03-22T14:31:00Z</time></trkpt><trkpt lat="43.449370890289586" lon="10.607059687736735"><ele>537.4</ele><time>2026-03-22T14:31:01Z</time></trkpt><trkpt lat="43.44930875356595" lon="10.607199357016123"><ele>536.8</ele><time>2026-03-22T14:31:03Z</time></trkpt><trkpt lat="43.449307006069525" lon="10.60729865500844"><ele>536.2</ele><time>2026-03-22T14:31:04Z</time></trkpt><trkpt lat="43.44926412580324" lon="10.607426589884453"><ele>535.6</ele><time>2026-03-22T14:31:06Z</time></trkpt><trkpt lat="43.44918993672351" lon="10.607496176239785"><ele>535.0</ele><time>2026-03-22T14:31:08Z</time></trkpt><trkpt lat="43.44908270375913" lon="10.607511050695052"><ele>535.0</ele><time>2026-03-22T14:31:10Z</time></trkpt><trkpt lat="43.44900742092518" lon="10.60750834896583"><ele>535.0</ele><time>2026-03-22T14:31:11Z</time></trkpt><trkpt lat="43.44892572049278" lon="10.60752331919693"><ele>535.0</ele><time>2026-03-22T14:31:12Z</time></trkpt><trkpt lat="43.448852345103965" lon="10.607564898826174"><ele>535.0</ele><time>2026-03-22T14:31:13Z</time></trkpt><trkpt lat="43.448775759573294" lon="10.60761586642777"><ele>535.0</ele><time>2026-03-22T14:31:14Z</time></trkpt><trkpt lat="43.448706107584705" lon="10.607682994427694"><ele>535.0</ele><time>2026-03-22T14:31:14.999Z</time></trkpt><trkpt lat="43.44864797689713" lon="10.607765975916239"><ele>535.1666666666667</ele><time>2026-03-22T14:31:15.999Z</time></trkpt><trkpt lat="43.44860901091528" lon="10.607863202992759"><ele>535.3333333333334</ele><time>2026-03-22T14:31:16.999Z</time></trkpt><trkpt lat="43.448571296926666" lon="10.6079550209119"><ele>535.5</ele><time>2026-03-22T14:31:17.999Z</time></trkpt><trkpt lat="43.44852769013638" lon="10.608050658951942"><ele>535.6666666666666</ele><time>2026-03-22T14:31:18.999Z</time></trkpt><trkpt lat="43.44848843347863" lon="10.608150215839657"><ele>535.8333333333333</ele><time>2026-03-22T14:31:19.999Z</time></trkpt><trkpt lat="43.448474927203236" lon="10.608246355004281"><ele>536.0</ele><time>2026-03-22T14:31:20.999Z</time></trkpt><trkpt lat="43.44845067668859" lon="10.608333662228167"><ele>536.0</ele><time>2026-03-22T14:31:21.999Z</time></trkpt><trkpt lat="43.44839679733526" lon="10.608448066835125"><ele>536.0</ele><time>2026-03-22T14:31:23.999Z</time></trkpt><trkpt lat="43.44833401426102" lon="10.608455646783534"><ele>536.0</ele><time>2026-03-22T14:31:25.999Z</time></trkpt><trkpt lat="43.44823660585426" lon="10.608479566914228"><ele>536.0</ele><time>2026-03-22T14:31:27.999Z</time></trkpt><trkpt lat="43.44818586126977" lon="10.608531167087351"><ele>536.0</ele><time>2026-03-22T14:31:28.999Z</time></trkpt><trkpt lat="43.448139392809125" lon="10.608608399695756"><ele>536.0</ele><time>2026-03-22T14:31:29.999Z</time></trkpt><trkpt lat="43.44809118767003" lon="10.608682786765446"><ele>537.4</ele><time>2026-03-22T14:31:30.999Z</time></trkpt><trkpt lat="43.44799956181786" lon="10.608815917006895"><ele>538.8</ele><time>2026-03-22T14:31:32.999Z</time></trkpt><trkpt lat="43.447955442479376" lon="10.608883685101237"><ele>540.1999999999999</ele><time>2026-03-22T14:31:33.999Z</time></trkpt><trkpt lat="43.447888504243714" lon="10.608893343203734"><ele>541.6</ele><time>2026-03-22T14:31:34.999Z</time></trkpt><trkpt lat="43.447775696090766" lon="10.60884609261955"><ele>543.0</ele><time>2026-03-22T14:31:36.999Z</time></trkpt><trkpt lat="43.447642939991326" lon="10.608871530436776"><ele>545.1999999999999</ele><time>2026-03-22T14:31:38.999Z</time></trkpt><trkpt lat="43.44757787418368" lon="10.608893510648722"><ele>547.4</ele><time>2026-03-22T14:31:39.999Z</time></trkpt><trkpt lat="43.44746979883231" lon="10.608919109178744"><ele>549.5999999999999</ele><time>2026-03-22T14:31:41.999Z</time></trkpt><trkpt lat="43.44734702918107" lon="10.608946175876055"><ele>551.8</ele><time>2026-03-22T14:31:43.999Z</time></trkpt><trkpt lat="43.44727194680078" lon="10.60896549159313"><ele>554.0</ele><time>2026-03-22T14:31:44.999Z</time></trkpt><trkpt lat="43.447198579149266" lon="10.608982217570315"><ele>554.8</ele><time>2026-03-22T14:31:45.999Z</time></trkpt><trkpt lat="43.44710172686032" lon="10.609041234979557"><ele>555.5999999999999</ele><time>2026-03-22T14:31:47.999Z</time></trkpt><trkpt lat="43.44704900400469" lon="10.609197406065153"><ele>556.4</ele><time>2026-03-22T14:31:49.999Z</time></trkpt><trkpt lat="43.447044093424694" lon="10.609288474710779"><ele>557.1999999999999</ele><time>2026-03-22T14:31:50.999Z</time></trkpt><trkpt lat="43.44702664425456" lon="10.609465491932003"><ele>558.0</ele><time>2026-03-22T14:31:52.999Z</time></trkpt><trkpt lat="43.44697150048699" lon="10.609625440097558"><ele>559.1666666666666</ele><time>2026-03-22T14:31:54.999Z</time></trkpt><trkpt lat="43.44690561652434" lon="10.609780200933155"><ele>560.3333333333334</ele><time>2026-03-22T14:31:56.999Z</time></trkpt><trkpt lat="43.44688169441247" lon="10.609869111567242"><ele>561.5</ele><time>2026-03-22T14:31:57.999Z</time></trkpt><trkpt lat="43.44685513502407" lon="10.609968720777662"><ele>562.6666666666667</ele><time>2026-03-22T14:31:58.999Z</time></trkpt><trkpt lat="43.44683449055968" lon="10.610078064993504"><ele>563.8333333333334</ele><time>2026-03-22T14:31:59.999Z</time></trkpt><trkpt lat="43.446809088497076" lon="10.61017828140072"><ele>565.0</ele><time>2026-03-22T14:32:00.999Z</time></trkpt><trkpt lat="43.44676804847997" lon="10.610287604012788"><ele>565.0</ele><time>2026-03-22T14:32:02.999Z</time></trkpt><trkpt lat="43.446856511354326" lon="10.610348762456688"><ele>565.0</ele><time>2026-03-22T14:32:09.999Z</time></trkpt><trkpt lat="43.44695916006313" lon="10.610315856647212"><ele>565.0</ele><time>2026-03-22T14:32:11.999Z</time></trkpt><trkpt lat="43.447090467813894" lon="10.610282620670851"><ele>565.0</ele><time>2026-03-22T14:32:13.999Z</time></trkpt><trkpt lat="43.44716566839653" lon="10.61030035669727"><ele>565.0</ele><time>2026-03-22T14:32:14.999Z</time></trkpt><trkpt lat="43.44723466792218" lon="10.610323711917738"><ele>566.6666666666667</ele><time>2026-03-22T14:32:15.999Z</time></trkpt><trkpt lat="43.44730940762776" lon="10.610342024333915"><ele>568.3333333333334</ele><time>2026-03-22T14:32:16.999Z</time></trkpt><trkpt lat="43.44738569283219" lon="10.610363364193537"><ele>570.0</ele><time>2026-03-22T14:32:17.999Z</time></trkpt><trkpt lat="43.44745177130107" lon="10.610405826750657"><ele>571.6666666666666</ele><time>2026-03-22T14:32:18.999Z</time></trkpt><trkpt lat="43.44753488362007" lon="10.610360633171549"><ele>573.3333333333333</ele><time>2026-03-22T14:32:20.999Z</time></trkpt><trkpt lat="43.44762575309551" lon="10.610387873594583"><ele>575.0</ele><time>2026-03-22T14:32:22.999Z</time></trkpt><trkpt lat="43.44768658574871" lon="10.610415753014701"><ele>575.0</ele><time>2026-03-22T14:32:23.999Z</time></trkpt><trkpt lat="43.447749732707976" lon="10.61045314190821"><ele>575.0</ele><time>2026-03-22T14:32:24.999Z</time></trkpt><trkpt lat="43.44783887827152" lon="10.610542804600419"><ele>575.0</ele><time>2026-03-22T14:32:27Z</time></trkpt><trkpt lat="43.44793266064231" lon="10.610625304831538"><ele>575.0</ele><time>2026-03-22T14:32:29Z</time></trkpt><trkpt lat="43.44800170068142" lon="10.610659456774776"><ele>575.0</ele><time>2026-03-22T14:32:30Z</time></trkpt><trkpt lat="43.44805517934963" lon="10.61071162125739"><ele>575.0</ele><time>2026-03-22T14:32:31Z</time></trkpt><trkpt lat="43.44811473801128" lon="10.610753190697533"><ele>575.8</ele><time>2026-03-22T14:32:32Z</time></trkpt><trkpt lat="43.44821033618074" lon="10.610826406402722"><ele>576.6</ele><time>2026-03-22T14:32:34Z</time></trkpt><trkpt lat="43.448294641559684" lon="10.610842916549279"><ele>577.4</ele><time>2026-03-22T14:32:36Z</time></trkpt><trkpt lat="43.448359136932666" lon="10.61084049412126"><ele>578.2</ele><time>2026-03-22T14:32:37Z</time></trkpt><trkpt lat="43.448484003632785" lon="10.610878892622601"><ele>579.0</ele><time>2026-03-22T14:32:39Z</time></trkpt><trkpt lat="43.44855149672939" lon="10.610902118990298"><ele>579.0</ele><time>2026-03-22T14:32:40Z</time></trkpt><trkpt lat="43.44861269004311" lon="10.610927776760084"><ele>579.0</ele><time>2026-03-22T14:32:41Z</time></trkpt><trkpt lat="43.44867622849661" lon="10.610959269507081"><ele>579.0</ele><time>2026-03-22T14:32:42Z</time></trkpt><trkpt lat="43.448773402225854" lon="10.611059203251658"><ele>579.0</ele><time>2026-03-22T14:32:44Z</time></trkpt><trkpt lat="43.448872394223436" lon="10.611167469641023"><ele>579.0</ele><time>2026-03-22T14:32:46Z</time></trkpt><trkpt lat="43.44895891453924" lon="10.61124551742032"><ele>579.4</ele><time>2026-03-22T14:32:48Z</time></trkpt><trkpt lat="43.44902883760714" lon="10.61135241388498"><ele>579.8</ele><time>2026-03-22T14:32:50Z</time></trkpt><trkpt lat="43.44911086565706" lon="10.611439185459556"><ele>580.2</ele><time>2026-03-22T14:32:52Z</time></trkpt><trkpt lat="43.44919382931437" lon="10.611510114866356"><ele>580.6</ele><time>2026-03-22T14:32:54Z</time></trkpt><trkpt lat="43.44926220642723" lon="10.611611610204868"><ele>581.0</ele><time>2026-03-22T14:32:56Z</time></trkpt><trkpt lat="43.44932648050472" lon="10.611706567918331"><ele>581.0</ele><time>2026-03-22T14:32:58Z</time></trkpt><trkpt lat="43.449382805511256" lon="10.61182499806333"><ele>581.0</ele><time>2026-03-22T14:33:00Z</time></trkpt><trkpt lat="43.449432971591115" lon="10.611938888573828"><ele>581.0</ele><time>2026-03-22T14:33:02Z</time></trkpt><trkpt lat="43.44948103041817" lon="10.612078672077832"><ele>581.0</ele><time>2026-03-22T14:33:04Z</time></trkpt><trkpt lat="43.4494965357934" lon="10.6122194784104"><ele>581.0</ele><time>2026-03-22T14:33:06Z</time></trkpt><trkpt lat="43.44951649724003" lon="10.61234765205694"><ele>580.8333333333333</ele><time>2026-03-22T14:33:08Z</time></trkpt><trkpt lat="43.44955033639749" lon="10.612495789541024"><ele>580.6666666666666</ele><time>2026-03-22T14:33:10Z</time></trkpt><trkpt lat="43.44956652970145" lon="10.612612116177669"><ele>580.5</ele><time>2026-03-22T14:33:12Z</time></trkpt><trkpt lat="43.44959987399807" lon="10.612696376508758"><ele>580.3333333333334</ele><time>2026-03-22T14:33:14Z</time></trkpt><trkpt lat="43.44962026681293" lon="10.612779961794352"><ele>580.1666666666667</ele><time>2026-03-22T14:33:16Z</time></trkpt><trkpt lat="43.449677197857554" lon="10.612903066792185"><ele>580.0</ele><time>2026-03-22T14:33:29.999Z</time></trkpt><trkpt lat="43.44971424629046" lon="10.612986088588976"><ele>577.6</ele><time>2026-03-22T14:33:30.999Z</time></trkpt><trkpt lat="43.4497746006193" lon="10.613063070478121"><ele>575.2</ele><time>2026-03-22T14:33:31.999Z</time></trkpt><trkpt lat="43.44982501666199" lon="10.613125799903266"><ele>572.8</ele><time>2026-03-22T14:33:32.999Z</time></trkpt><trkpt lat="43.449908689869204" lon="10.613233824627399"><ele>570.4</ele><time>2026-03-22T14:33:34.999Z</time></trkpt><trkpt lat="43.44997500552776" lon="10.613375237491042"><ele>568.0</ele><time>2026-03-22T14:33:36.999Z</time></trkpt><trkpt lat="43.450012660409406" lon="10.613449305489123"><ele>568.0</ele><time>2026-03-22T14:33:37.999Z</time></trkpt><trkpt lat="43.45006010310549" lon="10.613519999157297"><ele>568.0</ele><time>2026-03-22T14:33:38.999Z</time></trkpt><trkpt lat="43.450089657479374" lon="10.613605235797575"><ele>568.0</ele><time>2026-03-22T14:33:39.999Z</time></trkpt><trkpt lat="43.450123866890884" lon="10.613708079007347"><ele>568.0</ele><time>2026-03-22T14:33:40.999Z</time></trkpt><trkpt lat="43.450174137654805" lon="10.613805915039663"><ele>568.0</ele><time>2026-03-22T14:33:41.999Z</time></trkpt><trkpt lat="43.45022063400608" lon="10.61388063138633"><ele>568.0</ele><time>2026-03-22T14:33:42.999Z</time></trkpt><trkpt lat="43.450312983528455" lon="10.613972665712822"><ele>566.6</ele><time>2026-03-22T14:33:44.999Z</time></trkpt><trkpt lat="43.45034693639819" lon="10.614103204935207"><ele>565.1999999999999</ele><time>2026-03-22T14:33:46.999Z</time></trkpt><trkpt lat="43.4503664128582" lon="10.614194605063929"><ele>563.8</ele><time>2026-03-22T14:33:47.999Z</time></trkpt><trkpt lat="43.450381335178285" lon="10.61429307347124"><ele>562.4</ele><time>2026-03-22T14:33:48.999Z</time></trkpt><trkpt lat="43.45038967921706" lon="10.61444944629708"><ele>561.0</ele><time>2026-03-22T14:33:50.999Z</time></trkpt><trkpt lat="43.45030374352602" lon="10.614555824965533"><ele>559.2</ele><time>2026-03-22T14:33:52.999Z</time></trkpt><trkpt lat="43.45019768004959" lon="10.61461138662414"><ele>557.4000000000001</ele><time>2026-03-22T14:33:54.999Z</time></trkpt><trkpt lat="43.450134981079614" lon="10.614715622243825"><ele>555.6</ele><time>2026-03-22T14:33:56.999Z</time></trkpt><trkpt lat="43.450158730274694" lon="10.614882443909801"><ele>553.8000000000001</ele><time>2026-03-22T14:33:58.999Z</time></trkpt><trkpt lat="43.45017055911999" lon="10.61496842655361"><ele>552.0</ele><time>2026-03-22T14:33:59.999Z</time></trkpt><trkpt lat="43.45018781824334" lon="10.615055420980054"><ele>552.0</ele><time>2026-03-22T14:34:00.999Z</time></trkpt><trkpt lat="43.45024053609296" lon="10.615210551321383"><ele>552.0</ele><time>2026-03-22T14:34:02.999Z</time></trkpt><trkpt lat="43.4502631858212" lon="10.615292971614366"><ele>552.0</ele><time>2026-03-22T14:34:03.999Z</time></trkpt><trkpt lat="43.4502782564595" lon="10.615380025210408"><ele>552.0</ele><time>2026-03-22T14:34:04.999Z</time></trkpt><trkpt lat="43.450317258805214" lon="10.615511177241574"><ele>552.0</ele><time>2026-03-22T14:34:06.999Z</time></trkpt><trkpt lat="43.45035788113209" lon="10.615598387468884"><ele>552.0</ele><time>2026-03-22T14:34:08.999Z</time></trkpt><trkpt lat="43.450299259246265" lon="10.615650751429197"><ele>551.2857142857143</ele><time>2026-03-22T14:34:11.999Z</time></trkpt><trkpt lat="43.45022774117919" lon="10.615607234814998"><ele>550.5714285714287</ele><time>2026-03-22T14:34:13.999Z</time></trkpt><trkpt lat="43.45016938052673" lon="10.615542907138737"><ele>549.8571428571429</ele><time>2026-03-22T14:34:15.999Z</time></trkpt><trkpt lat="43.45011159311919" lon="10.615592983009613"><ele>549.1428571428571</ele><time>2026-03-22T14:34:17.999Z</time></trkpt><trkpt lat="43.45008179825724" lon="10.615681776972108"><ele>548.4285714285713</ele><time>2026-03-22T14:34:20.999Z</time></trkpt><trkpt lat="43.45003697966789" lon="10.615747973771144"><ele>547.7142857142857</ele><time>2026-03-22T14:38:57Z</time></trkpt><trkpt lat="43.44998752636961" lon="10.615833433542951"><ele>547.0</ele><time>2026-03-22T14:38:59Z</time></trkpt><trkpt lat="43.449937102162764" lon="10.61590966893634"><ele>547.0</ele><time>2026-03-22T14:39:01Z</time></trkpt><trkpt lat="43.44988601285356" lon="10.615981496251758"><ele>547.0</ele><time>2026-03-22T14:39:03Z</time></trkpt><trkpt lat="43.44984798934045" lon="10.616066620636166"><ele>547.0</ele><time>2026-03-22T14:39:05Z</time></trkpt><trkpt lat="43.449804983343924" lon="10.616133187482165"><ele>547.0</ele><time>2026-03-22T14:39:07Z</time></trkpt><trkpt lat="43.44975672396296" lon="10.616243096616028"><ele>547.0</ele><time>2026-03-22T14:39:09Z</time></trkpt><trkpt lat="43.449703528434426" lon="10.616348238867673"><ele>547.0</ele><time>2026-03-22T14:39:11Z</time></trkpt><trkpt lat="43.44965989769256" lon="10.616433539923564"><ele>543.6666666666667</ele><time>2026-03-22T14:39:13Z</time></trkpt><trkpt lat="43.449622664406434" lon="10.616519865677963"><ele>540.3333333333334</ele><time>2026-03-22T14:39:15Z</time></trkpt><trkpt lat="43.44958429993419" lon="10.61660444955266"><ele>537.0</ele><time>2026-03-22T14:39:17Z</time></trkpt><trkpt lat="43.44953250885293" lon="10.616695669354804"><ele>533.6666666666666</ele><time>2026-03-22T14:39:19Z</time></trkpt><trkpt lat="43.44947607853411" lon="10.61679756292879"><ele>530.3333333333333</ele><time>2026-03-22T14:39:21Z</time></trkpt><trkpt lat="43.44941202814644" lon="10.616890507768627"><ele>527.0</ele><time>2026-03-22T14:39:23Z</time></trkpt><trkpt lat="43.449335162706944" lon="10.616942027179997"><ele>527.2</ele><time>2026-03-22T14:39:25Z</time></trkpt><trkpt lat="43.44925347218698" lon="10.61705328313523"><ele>527.4000000000001</ele><time>2026-03-22T14:39:27Z</time></trkpt><trkpt lat="43.449195240449356" lon="10.617188048102097"><ele>527.5999999999999</ele><time>2026-03-22T14:39:29Z</time></trkpt><trkpt lat="43.4491674336129" lon="10.617317840254682"><ele>527.8</ele><time>2026-03-22T14:39:31Z</time></trkpt><trkpt lat="43.44917516445779" lon="10.61744309666075"><ele>528.0</ele><time>2026-03-22T14:39:33Z</time></trkpt><trkpt lat="43.449129070270395" lon="10.617358464726376"><ele>528.0</ele><time>2026-03-22T14:39:38.999Z</time></trkpt><trkpt lat="43.44909401623054" lon="10.617259161732681"><ele>528.0</ele><time>2026-03-22T14:39:40.999Z</time></trkpt><trkpt lat="43.44901761435665" lon="10.61721159933412"><ele>528.0</ele><time>2026-03-22T14:39:44.999Z</time></trkpt><trkpt lat="43.44896256326333" lon="10.617262789992402"><ele>528.0</ele><time>2026-03-22T14:41:14Z</time></trkpt><trkpt lat="43.44895283394917" lon="10.617354512763574"><ele>528.0</ele><time>2026-03-22T14:41:17Z</time></trkpt><trkpt lat="43.44895891010189" lon="10.617448629497801"><ele>528.0</ele><time>2026-03-22T14:41:19Z</time></trkpt><trkpt lat="43.44899035289671" lon="10.6175930950366"><ele>528.0</ele><time>2026-03-22T14:41:21Z</time></trkpt><trkpt lat="43.44900460444899" lon="10.617750703963125"><ele>528.0</ele><time>2026-03-22T14:41:23Z</time></trkpt><trkpt lat="43.44901276537359" lon="10.61789206551262"><ele>528.0</ele><time>2026-03-22T14:41:25Z</time></trkpt><trkpt lat="43.44901989521024" lon="10.618016958270202"><ele>528.0</ele><time>2026-03-22T14:41:27Z</time></trkpt><trkpt lat="43.44901822480514" lon="10.618144629480023"><ele>528.0</ele><time>2026-03-22T14:41:29Z</time></trkpt><trkpt lat="43.4490315786331" lon="10.618273734114423"><ele>527.1666666666666</ele><time>2026-03-22T14:41:31Z</time></trkpt><trkpt lat="43.4490277923903" lon="10.618408812101627"><ele>526.3333333333334</ele><time>2026-03-22T14:41:33Z</time></trkpt><trkpt lat="43.44901677698222" lon="10.618501895162591"><ele>525.5</ele><time>2026-03-22T14:41:34Z</time></trkpt><trkpt lat="43.44902525032252" lon="10.61869257144078"><ele>524.6666666666667</ele><time>2026-03-22T14:41:36Z</time></trkpt><trkpt lat="43.44903203980293" lon="10.618790398322167"><ele>523.8333333333334</ele><time>2026-03-22T14:41:37Z</time></trkpt><trkpt lat="43.449036180570324" lon="10.61887856119367"><ele>523.0</ele><time>2026-03-22T14:41:38Z</time></trkpt><trkpt lat="43.449042397090224" lon="10.618975271547818"><ele>522.0</ele><time>2026-03-22T14:41:39Z</time></trkpt><trkpt lat="43.44909844513368" lon="10.619138176797836"><ele>521.0</ele><time>2026-03-22T14:41:40.999Z</time></trkpt><trkpt lat="43.44913882362715" lon="10.619232359525643"><ele>520.0</ele><time>2026-03-22T14:41:41.999Z</time></trkpt><trkpt lat="43.44917852664771" lon="10.619317504056802"><ele>519.0</ele><time>2026-03-22T14:41:42.999Z</time></trkpt><trkpt lat="43.44921206864732" lon="10.619421118184114"><ele>518.0</ele><time>2026-03-22T14:41:43.999Z</time></trkpt><trkpt lat="43.449247842987376" lon="10.619541603475984"><ele>515.8</ele><time>2026-03-22T14:41:44.999Z</time></trkpt><trkpt lat="43.449273310692526" lon="10.619639539548166"><ele>513.5999999999999</ele><time>2026-03-22T14:41:45.999Z</time></trkpt><trkpt lat="43.44929471250768" lon="10.61972334239502"><ele>511.40000000000003</ele><time>2026-03-22T14:41:46.999Z</time></trkpt><trkpt lat="43.449335942772514" lon="10.619857807959637"><ele>509.20000000000005</ele><time>2026-03-22T14:41:48.999Z</time></trkpt><trkpt lat="43.449395429804184" lon="10.619911386879274"><ele>507.0</ele><time>2026-03-22T14:41:49.999Z</time></trkpt><trkpt lat="43.44948902031379" lon="10.620044638566487"><ele>507.0</ele><time>2026-03-22T14:41:51.999Z</time></trkpt><trkpt lat="43.44953377980659" lon="10.620148433038521"><ele>507.0</ele><time>2026-03-22T14:41:52.999Z</time></trkpt><trkpt lat="43.4496515896721" lon="10.620248290741648"><ele>507.0</ele><time>2026-03-22T14:41:54.999Z</time></trkpt><trkpt lat="43.44971509533808" lon="10.620317269987288"><ele>507.0</ele><time>2026-03-22T14:41:55.999Z</time></trkpt><trkpt lat="43.449761999456996" lon="10.620391653260157"><ele>507.0</ele><time>2026-03-22T14:41:56.999Z</time></trkpt><trkpt lat="43.449817620138035" lon="10.620446105728318"><ele>507.0</ele><time>2026-03-22T14:41:57.999Z</time></trkpt><trkpt lat="43.449867455596134" lon="10.62050701073052"><ele>505.8</ele><time>2026-03-22T14:41:58.999Z</time></trkpt><trkpt lat="43.44994036138051" lon="10.62057951029223"><ele>504.6</ele><time>2026-03-22T14:41:59.999Z</time></trkpt><trkpt lat="43.45001225170907" lon="10.620670791556647"><ele>503.40000000000003</ele><time>2026-03-22T14:42:00.999Z</time></trkpt><trkpt lat="43.45007363808002" lon="10.620773271674787"><ele>502.20000000000005</ele><time>2026-03-22T14:42:01.999Z</time></trkpt><trkpt lat="43.45013368409618" lon="10.620895065608192"><ele>501.0</ele><time>2026-03-22T14:42:02.999Z</time></trkpt><trkpt lat="43.45017695198848" lon="10.620959963043752"><ele>501.0</ele><time>2026-03-22T14:42:03.999Z</time></trkpt><trkpt lat="43.45022078044335" lon="10.621052248467599"><ele>501.0</ele><time>2026-03-22T14:42:04.999Z</time></trkpt><trkpt lat="43.4502794831017" lon="10.621141697007921"><ele>501.0</ele><time>2026-03-22T14:42:05.999Z</time></trkpt><trkpt lat="43.450320077919564" lon="10.621222735621787"><ele>501.0</ele><time>2026-03-22T14:42:06.999Z</time></trkpt><trkpt lat="43.45041109860665" lon="10.621358234420553"><ele>501.0</ele><time>2026-03-22T14:42:08.999Z</time></trkpt><trkpt lat="43.450446974080286" lon="10.621448227091557"><ele>501.0</ele><time>2026-03-22T14:42:09.999Z</time></trkpt><trkpt lat="43.45048887662188" lon="10.621589147173337"><ele>500.0</ele><time>2026-03-22T14:42:11.999Z</time></trkpt><trkpt lat="43.4505108583272" lon="10.621762564672585"><ele>499.0</ele><time>2026-03-22T14:42:13.999Z</time></trkpt><trkpt lat="43.45054699036104" lon="10.62191125752537"><ele>498.0</ele><time>2026-03-22T14:42:15.999Z</time></trkpt><trkpt lat="43.450612743428415" lon="10.622018211275805"><ele>497.0</ele><time>2026-03-22T14:42:17.999Z</time></trkpt><trkpt lat="43.450544804689116" lon="10.62200886795365"><ele>496.0</ele><time>2026-03-22T14:42:22.999Z</time></trkpt><trkpt lat="43.45045769865029" lon="10.621935330993184"><ele>494.6666666666667</ele><time>2026-03-22T14:42:24.999Z</time></trkpt><trkpt lat="43.45038475664111" lon="10.621859219456262"><ele>493.33333333333337</ele><time>2026-03-22T14:42:26.999Z</time></trkpt><trkpt lat="43.450314646059965" lon="10.62178818509213"><ele>492.0</ele><time>2026-03-22T14:42:28.999Z</time></trkpt><trkpt lat="43.450243938969884" lon="10.62171917462631"><ele>490.66666666666663</ele><time>2026-03-22T14:42:30.999Z</time></trkpt><trkpt lat="43.450164649550615" lon="10.621650014840196"><ele>489.3333333333333</ele><time>2026-03-22T14:42:32.999Z</time></trkpt><trkpt lat="43.45009434613502" lon="10.6215863726607"><ele>488.0</ele><time>2026-03-22T14:42:34.999Z</time></trkpt><trkpt lat="43.45002547595617" lon="10.6215327394885"><ele>487.99999999999994</ele><time>2026-03-22T14:42:36.999Z</time></trkpt><trkpt lat="43.449960550260165" lon="10.621464304737358"><ele>488.0</ele><time>2026-03-22T14:42:38.999Z</time></trkpt><trkpt lat="43.44989016880333" lon="10.621396502660915"><ele>488.0</ele><time>2026-03-22T14:42:40.999Z</time></trkpt><trkpt lat="43.449839711219184" lon="10.621338592021047"><ele>488.0</ele><time>2026-03-22T14:42:42.999Z</time></trkpt><trkpt lat="43.44983478828619" lon="10.621245999015034"><ele>487.99999999999994</ele><time>2026-03-22T14:43:01Z</time></trkpt><trkpt lat="43.44973648793293" lon="10.621154220455155"><ele>488.0</ele><time>2026-03-22T14:43:03Z</time></trkpt><trkpt lat="43.44966659571474" lon="10.621053854761033"><ele>487.79999999999995</ele><time>2026-03-22T14:43:04Z</time></trkpt><trkpt lat="43.449563030447145" lon="10.621014873893364"><ele>487.59999999999997</ele><time>2026-03-22T14:43:05Z</time></trkpt><trkpt lat="43.44947531751974" lon="10.620972443329482"><ele>487.40000000000003</ele><time>2026-03-22T14:43:06Z</time></trkpt><trkpt lat="43.449392238904075" lon="10.620921483878865"><ele>487.20000000000005</ele><time>2026-03-22T14:43:07Z</time></trkpt><trkpt lat="43.44931791623356" lon="10.620855277440645"><ele>487.0</ele><time>2026-03-22T14:43:08Z</time></trkpt><trkpt lat="43.44922353401826" lon="10.620827090586511"><ele>487.00000000000006</ele><time>2026-03-22T14:43:09Z</time></trkpt><trkpt lat="43.44913037482723" lon="10.620842142451329"><ele>487.0</ele><time>2026-03-22T14:43:10Z</time></trkpt><trkpt lat="43.4490249566687" lon="10.620800857447783"><ele>487.0</ele><time>2026-03-22T14:43:11Z</time></trkpt><trkpt lat="43.448950321381794" lon="10.620778965183138"><ele>487.0</ele><time>2026-03-22T14:43:12Z</time></trkpt><trkpt lat="43.44886903109436" lon="10.6207686307566"><ele>487.00000000000006</ele><time>2026-03-22T14:43:13Z</time></trkpt><trkpt lat="43.44879946398503" lon="10.620719213693183"><ele>487.0</ele><time>2026-03-22T14:43:14Z</time></trkpt><trkpt lat="43.44872666534732" lon="10.620652091557787"><ele>483.50000000000006</ele><time>2026-03-22T14:43:15Z</time></trkpt><trkpt lat="43.44868005212053" lon="10.620582009986695"><ele>480.0</ele><time>2026-03-22T14:43:16Z</time></trkpt><trkpt lat="43.448618731839986" lon="10.620517334224088"><ele>476.5</ele><time>2026-03-22T14:43:17Z</time></trkpt><trkpt lat="43.44854954752608" lon="10.620465875792007"><ele>473.0</ele><time>2026-03-22T14:43:18Z</time></trkpt><trkpt lat="43.44847087030701" lon="10.62042958541445"><ele>469.50000000000006</ele><time>2026-03-22T14:43:19Z</time></trkpt><trkpt lat="43.44838645862662" lon="10.620433483734729"><ele>466.0</ele><time>2026-03-22T14:43:20Z</time></trkpt><trkpt lat="43.44830721645917" lon="10.620406855144571"><ele>466.00000000000006</ele><time>2026-03-22T14:43:21Z</time></trkpt><trkpt lat="43.44818966265751" lon="10.620338581684482"><ele>466.0</ele><time>2026-03-22T14:43:23Z</time></trkpt><trkpt lat="43.44813679383059" lon="10.620263580079271"><ele>466.0</ele><time>2026-03-22T14:43:24Z</time></trkpt><trkpt lat="43.44809186422406" lon="10.620188966256848"><ele>466.0</ele><time>2026-03-22T14:43:26Z</time></trkpt><trkpt lat="43.44803912028094" lon="10.620292878656084"><ele>466.00000000000006</ele><time>2026-03-22T14:43:29Z</time></trkpt><trkpt lat="43.448030286420206" lon="10.620385538193698"><ele>466.0</ele><time>2026-03-22T14:43:30Z</time></trkpt><trkpt lat="43.44802333714379" lon="10.620487635869011"><ele>466.00000000000006</ele><time>2026-03-22T14:43:31Z</time></trkpt><trkpt lat="43.44803204055454" lon="10.620592153771577"><ele>466.0</ele><time>2026-03-22T14:43:32Z</time></trkpt><trkpt lat="43.448056881970395" lon="10.620687431676059"><ele>466.0</ele><time>2026-03-22T14:43:33Z</time></trkpt><trkpt lat="43.44808411917925" lon="10.620767509822075"><ele>466.0</ele><time>2026-03-22T14:43:34Z</time></trkpt><trkpt lat="43.44816981575132" lon="10.620866533681658"><ele>466.00000000000006</ele><time>2026-03-22T14:43:36Z</time></trkpt><trkpt lat="43.448192596145795" lon="10.620951650983438"><ele>466.0</ele><time>2026-03-22T14:43:38Z</time></trkpt><trkpt lat="43.44813928052454" lon="10.621101301136994"><ele>462.25</ele><time>2026-03-22T14:43:41Z</time></trkpt><trkpt lat="43.44803109098114" lon="10.62139896526641"><ele>458.5</ele><time>2026-03-22T14:43:42Z</time></trkpt><trkpt lat="43.448106358467335" lon="10.621505387237436"><ele>454.75</ele><time>2026-03-22T14:43:43Z</time></trkpt><trkpt lat="43.44815492764691" lon="10.621579010503952"><ele>451.0</ele><time>2026-03-22T14:43:44Z</time></trkpt><trkpt lat="43.44819777672429" lon="10.621676106803607"><ele>451.0</ele><time>2026-03-22T14:43:45Z</time></trkpt><trkpt lat="43.448303183339625" lon="10.621812797043265"><ele>451.0</ele><time>2026-03-22T14:43:47Z</time></trkpt><trkpt lat="43.448368078393344" lon="10.621832528475311"><ele>451.0</ele><time>2026-03-22T14:43:48Z</time></trkpt><trkpt lat="43.44841069833987" lon="10.621989215445662"><ele>451.0</ele><time>2026-03-22T14:43:49.999Z</time></trkpt><trkpt lat="43.44850551977327" lon="10.622081530477644"><ele>451.0</ele><time>2026-03-22T14:43:51.999Z</time></trkpt><trkpt lat="43.448565456711115" lon="10.622122160352244"><ele>451.0</ele><time>2026-03-22T14:43:52.999Z</time></trkpt><trkpt lat="43.4486208013621" lon="10.622204281041867"><ele>451.0</ele><time>2026-03-22T14:43:53.999Z</time></trkpt><trkpt lat="43.44871444866277" lon="10.622238361227986"><ele>451.0</ele><time>2026-03-22T14:43:54.999Z</time></trkpt><trkpt lat="43.44883383732894" lon="10.622278051026516"><ele>451.0</ele><time>2026-03-22T14:43:56.999Z</time></trkpt><trkpt lat="43.44879492641923" lon="10.622437000908034"><ele>451.0</ele><time>2026-03-22T14:43:58.999Z</time></trkpt><trkpt lat="43.4488640966662" lon="10.622542122891904"><ele>451.00000000000006</ele><time>2026-03-22T14:44:01.999Z</time></trkpt><trkpt lat="43.4489157591032" lon="10.622611582835185"><ele>451.0</ele><time>2026-03-22T14:44:02.999Z</time></trkpt><trkpt lat="43.44897191379775" lon="10.622670390865459"><ele>451.0</ele><time>2026-03-22T14:44:03.999Z</time></trkpt><trkpt lat="43.4489902189029" lon="10.622761840668096"><ele>451.0</ele><time>2026-03-22T14:44:04.999Z</time></trkpt><trkpt lat="43.44903328332997" lon="10.622827873299354"><ele>451.00000000000006</ele><time>2026-03-22T14:44:05.999Z</time></trkpt><trkpt lat="43.44903885787863" lon="10.622932251695714"><ele>451.0</ele><time>2026-03-22T14:44:06.999Z</time></trkpt><trkpt lat="43.44909024415829" lon="10.623102370591958"><ele>448.50000000000006</ele><time>2026-03-22T14:44:08.999Z</time></trkpt><trkpt lat="43.449128251389716" lon="10.62317362263455"><ele>446.0</ele><time>2026-03-22T14:44:09.999Z</time></trkpt><trkpt lat="43.44918633790455" lon="10.62323564386768"><ele>443.5</ele><time>2026-03-22T14:44:10.999Z</time></trkpt><trkpt lat="43.449253924506884" lon="10.62329369542108"><ele>441.0</ele><time>2026-03-22T14:44:11.999Z</time></trkpt><trkpt lat="43.449317864924154" lon="10.62335762908543"><ele>438.50000000000006</ele><time>2026-03-22T14:44:12.999Z</time></trkpt><trkpt lat="43.44938369511142" lon="10.623397991968998"><ele>436.0</ele><time>2026-03-22T14:44:13.999Z</time></trkpt><trkpt lat="43.44948224085456" lon="10.623434914008547"><ele>436.00000000000006</ele><time>2026-03-22T14:44:15.999Z</time></trkpt><trkpt lat="43.44954122666123" lon="10.623485824664701"><ele>436.0</ele><time>2026-03-22T14:44:16.999Z</time></trkpt><trkpt lat="43.449644775523836" lon="10.623613154674244"><ele>436.0</ele><time>2026-03-22T14:44:18.999Z</time></trkpt><trkpt lat="43.449690406945514" lon="10.623684853937812"><ele>436.0</ele><time>2026-03-22T14:44:19.999Z</time></trkpt><trkpt lat="43.44974830518908" lon="10.623756820817109"><ele>436.00000000000006</ele><time>2026-03-22T14:44:21.999Z</time></trkpt><trkpt lat="43.44979897181825" lon="10.62381781086404"><ele>436.0</ele><time>2026-03-22T14:44:24.999Z</time></trkpt><trkpt lat="43.449858346505984" lon="10.623889280124533"><ele>435.1666666666667</ele><time>2026-03-22T14:44:33.999Z</time></trkpt><trkpt lat="43.44991141932406" lon="10.623956688543164"><ele>434.33333333333337</ele><time>2026-03-22T14:44:35.999Z</time></trkpt><trkpt lat="43.44997139479259" lon="10.62399755987782"><ele>433.5</ele><time>2026-03-22T14:44:36.999Z</time></trkpt><trkpt lat="43.45005843383602" lon="10.624063375027797"><ele>432.66666666666663</ele><time>2026-03-22T14:44:38.999Z</time></trkpt><trkpt lat="43.45013121790268" lon="10.624107947713659"><ele>431.8333333333333</ele><time>2026-03-22T14:44:40.999Z</time></trkpt><trkpt lat="43.45020843681751" lon="10.62421292619103"><ele>431.0</ele><time>2026-03-22T14:44:42.999Z</time></trkpt><trkpt lat="43.450276670101815" lon="10.624329207275638"><ele>431.0</ele><time>2026-03-22T14:44:44.999Z</time></trkpt><trkpt lat="43.45037520284151" lon="10.624438535337317"><ele>431.0</ele><time>2026-03-22T14:44:46.999Z</time></trkpt><trkpt lat="43.45043578983388" lon="10.624478598419097"><ele>431.0</ele><time>2026-03-22T14:44:47.999Z</time></trkpt><trkpt lat="43.45049168990994" lon="10.624573226704706"><ele>431.0</ele><time>2026-03-22T14:44:48.999Z</time></trkpt><trkpt lat="43.45061312971133" lon="10.62463562149975"><ele>431.0</ele><time>2026-03-22T14:44:50.999Z</time></trkpt><trkpt lat="43.45067204662873" lon="10.624680062296076"><ele>429.20000000000005</ele><time>2026-03-22T14:44:51.999Z</time></trkpt><trkpt lat="43.45074053457989" lon="10.624727266456288"><ele>427.40000000000003</ele><time>2026-03-22T14:44:52.999Z</time></trkpt><trkpt lat="43.450795771018754" lon="10.62480443880377"><ele>425.6</ele><time>2026-03-22T14:44:54.999Z</time></trkpt><trkpt lat="43.45088863250737" lon="10.62490098665483"><ele>423.8</ele><time>2026-03-22T14:44:56.999Z</time></trkpt><trkpt lat="43.450958217714486" lon="10.624972306497432"><ele>422.0</ele><time>2026-03-22T14:44:58.999Z</time></trkpt><trkpt lat="43.45104292417116" lon="10.62504749147594"><ele>422.0</ele><time>2026-03-22T14:45:00.999Z</time></trkpt><trkpt lat="43.45114135327803" lon="10.625120322686332"><ele>422.0</ele><time>2026-03-22T14:45:03Z</time></trkpt><trkpt lat="43.451239980485965" lon="10.625181886835552"><ele>422.0</ele><time>2026-03-22T14:45:05Z</time></trkpt><trkpt lat="43.451304415494334" lon="10.625199752394213"><ele>422.0</ele><time>2026-03-22T14:45:06Z</time></trkpt><trkpt lat="43.451368206392054" lon="10.62521821077832"><ele>422.0</ele><time>2026-03-22T14:45:07Z</time></trkpt><trkpt lat="43.45146942758143" lon="10.625261494175653"><ele>423.3333333333333</ele><time>2026-03-22T14:45:09Z</time></trkpt><trkpt lat="43.45156474363278" lon="10.625305543794157"><ele>424.66666666666663</ele><time>2026-03-22T14:45:11Z</time></trkpt><trkpt lat="43.451637431494206" lon="10.62534474725317"><ele>426.0</ele><time>2026-03-22T14:45:14Z</time></trkpt><trkpt lat="43.45172331569439" lon="10.625434878677313"><ele>427.33333333333337</ele><time>2026-03-22T14:45:17Z</time></trkpt><trkpt lat="43.451782378753535" lon="10.625491947050266"><ele>428.6666666666667</ele><time>2026-03-22T14:45:18Z</time></trkpt><trkpt lat="43.45185023015393" lon="10.625571868671004"><ele>430.0</ele><time>2026-03-22T14:45:19Z</time></trkpt><trkpt lat="43.45194086748835" lon="10.625649719686832"><ele>426.75</ele><time>2026-03-22T14:45:20Z</time></trkpt><trkpt lat="43.45204856228539" lon="10.62575525425968"><ele>423.5</ele><time>2026-03-22T14:45:21Z</time></trkpt><trkpt lat="43.45212613581686" lon="10.625876589026765"><ele>420.25</ele><time>2026-03-22T14:45:22Z</time></trkpt><trkpt lat="43.45220161319577" lon="10.625987213247763"><ele>417.0</ele><time>2026-03-22T14:45:23Z</time></trkpt><trkpt lat="43.4522674191094" lon="10.626090207041791"><ele>415.20000000000005</ele><time>2026-03-22T14:45:24Z</time></trkpt><trkpt lat="43.45233616624412" lon="10.626191637468624"><ele>413.4</ele><time>2026-03-22T14:45:25Z</time></trkpt><trkpt lat="43.452420571040065" lon="10.62628914352351"><ele>411.6</ele><time>2026-03-22T14:45:26Z</time></trkpt><trkpt lat="43.45252729873838" lon="10.62637862568399"><ele>409.79999999999995</ele><time>2026-03-22T14:45:27Z</time></trkpt><trkpt lat="43.452620626905194" lon="10.626462785798733"><ele>408.0</ele><time>2026-03-22T14:45:28Z</time></trkpt><trkpt lat="43.45272756018583" lon="10.626547234585308"><ele>408.0</ele><time>2026-03-22T14:45:29Z</time></trkpt><trkpt lat="43.45282967270741" lon="10.626638050852078"><ele>408.0</ele><time>2026-03-22T14:45:30Z</time></trkpt><trkpt lat="43.452926615486746" lon="10.626733398292199"><ele>408.0</ele><time>2026-03-22T14:45:31Z</time></trkpt><trkpt lat="43.45301451285468" lon="10.62681667222312"><ele>408.0</ele><time>2026-03-22T14:45:32Z</time></trkpt><trkpt lat="43.453100795346025" lon="10.626898034159588"><ele>405.4</ele><time>2026-03-22T14:45:33Z</time></trkpt><trkpt lat="43.4531483393065" lon="10.627046248580966"><ele>402.79999999999995</ele><time>2026-03-22T14:45:34Z</time></trkpt><trkpt lat="43.45317705709556" lon="10.627169364867244"><ele>400.2</ele><time>2026-03-22T14:45:35Z</time></trkpt><trkpt lat="43.45321651934049" lon="10.627318425840123"><ele>397.6</ele><time>2026-03-22T14:45:36Z</time></trkpt><trkpt lat="43.453249664284385" lon="10.627469728104858"><ele>395.0</ele><time>2026-03-22T14:45:37Z</time></trkpt><trkpt lat="43.45328613874726" lon="10.62763735425687"><ele>394.25</ele><time>2026-03-22T14:45:38Z</time></trkpt><trkpt lat="43.4533239297414" lon="10.627810551693916"><ele>393.5</ele><time>2026-03-22T14:45:39Z</time></trkpt><trkpt lat="43.45337672096336" lon="10.6279756923507"><ele>392.75</ele><time>2026-03-22T14:45:40Z</time></trkpt><trkpt lat="43.45339061313212" lon="10.628141876206643"><ele>392.0</ele><time>2026-03-22T14:45:41Z</time></trkpt><trkpt lat="43.45343393357513" lon="10.628288450629597"><ele>392.0</ele><time>2026-03-22T14:45:42Z</time></trkpt><trkpt lat="43.453466453814436" lon="10.628432903593586"><ele>392.0</ele><time>2026-03-22T14:45:43Z</time></trkpt><trkpt lat="43.45349768102587" lon="10.628582594667712"><ele>392.0</ele><time>2026-03-22T14:45:44Z</time></trkpt><trkpt lat="43.45350458261764" lon="10.628726998722952"><ele>392.0</ele><time>2026-03-22T14:45:45Z</time></trkpt><trkpt lat="43.45351671056366" lon="10.628844520651285"><ele>392.0</ele><time>2026-03-22T14:45:46Z</time></trkpt><trkpt lat="43.45353967196128" lon="10.628966079376415"><ele>390.99999999999994</ele><time>2026-03-22T14:45:47Z</time></trkpt><trkpt lat="43.45356329730035" lon="10.629072319306545"><ele>390.0</ele><time>2026-03-22T14:45:48Z</time></trkpt><trkpt lat="43.45357912045036" lon="10.629177907127636"><ele>389.0</ele><time>2026-03-22T14:45:49Z</time></trkpt><trkpt lat="43.45359064106601" lon="10.629290834580226"><ele>388.0</ele><time>2026-03-22T14:45:50Z</time></trkpt><trkpt lat="43.45361134929192" lon="10.629424736166127"><ele>386.99999999999994</ele><time>2026-03-22T14:45:51Z</time></trkpt><trkpt lat="43.45362805423513" lon="10.629532752078484"><ele>386.0</ele><time>2026-03-22T14:45:52Z</time></trkpt><trkpt lat="43.453643435962654" lon="10.62963221193001"><ele>384.49999999999994</ele><time>2026-03-22T14:45:53Z</time></trkpt><trkpt lat="43.45367234895374" lon="10.629741224190486"><ele>383.0</ele><time>2026-03-22T14:45:54Z</time></trkpt><trkpt lat="43.45369082497141" lon="10.629832063553376"><ele>381.5</ele><time>2026-03-22T14:45:55Z</time></trkpt><trkpt lat="43.45369371490949" lon="10.629935771421788"><ele>380.0</ele><time>2026-03-22T14:45:55.999Z</time></trkpt><trkpt lat="43.4537098100095" lon="10.630046236187042"><ele>378.5</ele><time>2026-03-22T14:45:56.999Z</time></trkpt><trkpt lat="43.45372893898257" lon="10.630159979311982"><ele>377.0</ele><time>2026-03-22T14:45:57.999Z</time></trkpt><trkpt lat="43.45376979043662" lon="10.630284098901027"><ele>376.40000000000003</ele><time>2026-03-22T14:45:58.999Z</time></trkpt><trkpt lat="43.45376645701263" lon="10.630411345353803"><ele>375.8</ele><time>2026-03-22T14:45:59.999Z</time></trkpt><trkpt lat="43.45379173974097" lon="10.630542530273193"><ele>375.2</ele><time>2026-03-22T14:46:00.999Z</time></trkpt><trkpt lat="43.453793947321024" lon="10.63069694405948"><ele>374.6</ele><time>2026-03-22T14:46:01.999Z</time></trkpt><trkpt lat="43.45378758919082" lon="10.630849939367108"><ele>374.0</ele><time>2026-03-22T14:46:02.999Z</time></trkpt><trkpt lat="43.45376974499626" lon="10.630991628061741"><ele>370.5</ele><time>2026-03-22T14:46:03.999Z</time></trkpt><trkpt lat="43.45375471906488" lon="10.631143235860685"><ele>367.0</ele><time>2026-03-22T14:46:04.999Z</time></trkpt><trkpt lat="43.45374088384791" lon="10.631293454642577"><ele>363.5</ele><time>2026-03-22T14:46:05.999Z</time></trkpt><trkpt lat="43.45372642359857" lon="10.631452708861922"><ele>360.0</ele><time>2026-03-22T14:46:06.999Z</time></trkpt><trkpt lat="43.45371305228766" lon="10.631612085093769"><ele>360.0</ele><time>2026-03-22T14:46:07.999Z</time></trkpt><trkpt lat="43.453700553766474" lon="10.631779523281743"><ele>360.0</ele><time>2026-03-22T14:46:08.999Z</time></trkpt><trkpt lat="43.453694849554466" lon="10.631946238116177"><ele>360.0</ele><time>2026-03-22T14:46:09.999Z</time></trkpt><trkpt lat="43.4537007903954" lon="10.632120598218842"><ele>360.0</ele><time>2026-03-22T14:46:10.999Z</time></trkpt><trkpt lat="43.45372259336462" lon="10.63230226649968"><ele>360.75</ele><time>2026-03-22T14:46:11.999Z</time></trkpt><trkpt lat="43.45376346979541" lon="10.632481126368996"><ele>361.5</ele><time>2026-03-22T14:46:12.999Z</time></trkpt><trkpt lat="43.45381391395807" lon="10.632649582896244"><ele>362.25</ele><time>2026-03-22T14:46:13.999Z</time></trkpt><trkpt lat="43.45386989430038" lon="10.63281247215628"><ele>363.0</ele><time>2026-03-22T14:46:14.999Z</time></trkpt><trkpt lat="43.4539297458366" lon="10.632978643478127"><ele>363.0</ele><time>2026-03-22T14:46:15.999Z</time></trkpt><trkpt lat="43.45398964090519" lon="10.633136534318396"><ele>363.0</ele><time>2026-03-22T14:46:16.999Z</time></trkpt><trkpt lat="43.454046374063296" lon="10.633289129638547"><ele>363.0</ele><time>2026-03-22T14:46:17.999Z</time></trkpt><trkpt lat="43.454102208288234" lon="10.633443795990141"><ele>363.0</ele><time>2026-03-22T14:46:18.999Z</time></trkpt><trkpt lat="43.45415584799542" lon="10.633594254784251"><ele>362.25</ele><time>2026-03-22T14:46:19.999Z</time></trkpt><trkpt lat="43.45420894649171" lon="10.633743195510153"><ele>361.5</ele><time>2026-03-22T14:46:20.999Z</time></trkpt><trkpt lat="43.45426365517925" lon="10.633896652834574"><ele>360.75</ele><time>2026-03-22T14:46:21.999Z</time></trkpt><trkpt lat="43.454318647533796" lon="10.634050905817286"><ele>360.0</ele><time>2026-03-22T14:46:22.999Z</time></trkpt><trkpt lat="43.454372152452834" lon="10.634208120595614"><ele>360.0</ele><time>2026-03-22T14:46:23.999Z</time></trkpt><trkpt lat="43.454416262419464" lon="10.634344584856361"><ele>360.0</ele><time>2026-03-22T14:46:24.999Z</time></trkpt><trkpt lat="43.45445415400067" lon="10.63449144579348"><ele>360.0</ele><time>2026-03-22T14:46:25.999Z</time></trkpt><trkpt lat="43.4544749410847" lon="10.634616538949514"><ele>360.0</ele><time>2026-03-22T14:46:26.999Z</time></trkpt><trkpt lat="43.45449196642023" lon="10.634749159502244"><ele>360.0</ele><time>2026-03-22T14:46:27.999Z</time></trkpt><trkpt lat="43.454503124107944" lon="10.634899544023645"><ele>359.2</ele><time>2026-03-22T14:46:28.999Z</time></trkpt><trkpt lat="43.45450701543422" lon="10.63503036691344"><ele>358.4</ele><time>2026-03-22T14:46:29.999Z</time></trkpt><trkpt lat="43.45450824315346" lon="10.635191053185677"><ele>357.6</ele><time>2026-03-22T14:46:30.999Z</time></trkpt><trkpt lat="43.45450838242671" lon="10.635353382281076"><ele>356.8</ele><time>2026-03-22T14:46:31.999Z</time></trkpt><trkpt lat="43.45450762956968" lon="10.63551633750101"><ele>356.0</ele><time>2026-03-22T14:46:32.999Z</time></trkpt><trkpt lat="43.45452274715508" lon="10.63570079821016"><ele>355.5</ele><time>2026-03-22T14:46:33.999Z</time></trkpt><trkpt lat="43.454521603140506" lon="10.635883916088611"><ele>355.0</ele><time>2026-03-22T14:46:34.999Z</time></trkpt><trkpt lat="43.4544968871901" lon="10.636070072082711"><ele>354.5</ele><time>2026-03-22T14:46:35.999Z</time></trkpt><trkpt lat="43.454477986441475" lon="10.636261432481808"><ele>354.0</ele><time>2026-03-22T14:46:36.999Z</time></trkpt><trkpt lat="43.45445478477686" lon="10.636457024554407"><ele>353.75</ele><time>2026-03-22T14:46:37.999Z</time></trkpt><trkpt lat="43.454430131830954" lon="10.636659974406754"><ele>353.5</ele><time>2026-03-22T14:46:38.999Z</time></trkpt><trkpt lat="43.45440497940133" lon="10.636859142077965"><ele>353.25</ele><time>2026-03-22T14:46:39.999Z</time></trkpt><trkpt lat="43.45438244394707" lon="10.637037310803958"><ele>353.0</ele><time>2026-03-22T14:46:40.999Z</time></trkpt><trkpt lat="43.45435928422387" lon="10.637219794706258"><ele>352.5</ele><time>2026-03-22T14:46:41.999Z</time></trkpt><trkpt lat="43.45433506103326" lon="10.637402577903801"><ele>352.0</ele><time>2026-03-22T14:46:42.999Z</time></trkpt><trkpt lat="43.45430980810014" lon="10.637593131338338"><ele>351.5</ele><time>2026-03-22T14:46:43.999Z</time></trkpt><trkpt lat="43.454288108394735" lon="10.63778337509137"><ele>351.0</ele><time>2026-03-22T14:46:44.999Z</time></trkpt><trkpt lat="43.454281550505904" lon="10.637978415730348"><ele>348.75</ele><time>2026-03-22T14:46:45.999Z</time></trkpt><trkpt lat="43.45424775962757" lon="10.638155055220054"><ele>346.5</ele><time>2026-03-22T14:46:46.999Z</time></trkpt><trkpt lat="43.454237149468696" lon="10.638351762438276"><ele>344.25</ele><time>2026-03-22T14:46:47.999Z</time></trkpt><trkpt lat="43.45426050875794" lon="10.638553182491508"><ele>342.0</ele><time>2026-03-22T14:46:48.999Z</time></trkpt><trkpt lat="43.454292849243785" lon="10.638741348370809"><ele>339.5</ele><time>2026-03-22T14:46:49.999Z</time></trkpt><trkpt lat="43.45432499547215" lon="10.638930430564418"><ele>337.0</ele><time>2026-03-22T14:46:50.999Z</time></trkpt><trkpt lat="43.45436209063945" lon="10.639075616857648"><ele>334.5</ele><time>2026-03-22T14:46:51.999Z</time></trkpt><trkpt lat="43.45441943377343" lon="10.639237193784352"><ele>332.0</ele><time>2026-03-22T14:46:52.999Z</time></trkpt><trkpt lat="43.45444624924727" lon="10.6394242820346"><ele>327.75</ele><time>2026-03-22T14:46:53.999Z</time></trkpt><trkpt lat="43.45449312098196" lon="10.639606341674675"><ele>323.5</ele><time>2026-03-22T14:46:54.999Z</time></trkpt><trkpt lat="43.45453569330382" lon="10.639790656449314"><ele>319.25</ele><time>2026-03-22T14:46:55.999Z</time></trkpt><trkpt lat="43.454567285595" lon="10.639950459075886"><ele>315.0</ele><time>2026-03-22T14:46:56.999Z</time></trkpt><trkpt lat="43.45458719117062" lon="10.640143795057497"><ele>315.0</ele><time>2026-03-22T14:46:57.999Z</time></trkpt><trkpt lat="43.454598224095314" lon="10.640343476113037"><ele>315.0</ele><time>2026-03-22T14:46:58.999Z</time></trkpt><trkpt lat="43.454618163985856" lon="10.640538550307513"><ele>315.0</ele><time>2026-03-22T14:46:59.999Z</time></trkpt><trkpt lat="43.45463902797291" lon="10.64073595181327"><ele>315.0</ele><time>2026-03-22T14:47:00.999Z</time></trkpt><trkpt lat="43.45465914198008" lon="10.640949963900898"><ele>313.0</ele><time>2026-03-22T14:47:01.999Z</time></trkpt><trkpt lat="43.45467898447954" lon="10.641161086894842"><ele>311.0</ele><time>2026-03-22T14:47:02.999Z</time></trkpt><trkpt lat="43.454697744414524" lon="10.641360691630632"><ele>309.0</ele><time>2026-03-22T14:47:03.999Z</time></trkpt><trkpt lat="43.454717414852595" lon="10.64156527917221"><ele>309.0</ele><time>2026-03-22T14:47:04.999Z</time></trkpt><trkpt lat="43.454737340983066" lon="10.64176545583815"><ele>309.0</ele><time>2026-03-22T14:47:05.999Z</time></trkpt><trkpt lat="43.45475624707598" lon="10.641961771509282"><ele>309.0</ele><time>2026-03-22T14:47:06.999Z</time></trkpt><trkpt lat="43.454773997471904" lon="10.642146235160057"><ele>309.0</ele><time>2026-03-22T14:47:07.999Z</time></trkpt><trkpt lat="43.45479206457762" lon="10.642333990079997"><ele>307.0</ele><time>2026-03-22T14:47:09Z</time></trkpt><trkpt lat="43.454810276211155" lon="10.642523246968365"><ele>305.0</ele><time>2026-03-22T14:47:10Z</time></trkpt><trkpt lat="43.45482802871577" lon="10.642707732500346"><ele>303.0</ele><time>2026-03-22T14:47:11Z</time></trkpt><trkpt lat="43.454860765702065" lon="10.642887034681555"><ele>301.0</ele><time>2026-03-22T14:47:12Z</time></trkpt><trkpt lat="43.45487392148473" lon="10.643071153291997"><ele>299.25</ele><time>2026-03-22T14:47:13Z</time></trkpt><trkpt lat="43.45486461715419" lon="10.643259088540745"><ele>297.5</ele><time>2026-03-22T14:47:14Z</time></trkpt><trkpt lat="43.45486764125085" lon="10.643426581547061"><ele>295.75</ele><time>2026-03-22T14:47:15Z</time></trkpt><trkpt lat="43.45486898553395" lon="10.643597734733975"><ele>294.0</ele><time>2026-03-22T14:47:16Z</time></trkpt><trkpt lat="43.454870253690395" lon="10.643759195422074"><ele>292.75</ele><time>2026-03-22T14:47:17Z</time></trkpt><trkpt lat="43.4548715820765" lon="10.643928324433407"><ele>291.5</ele><time>2026-03-22T14:47:18Z</time></trkpt><trkpt lat="43.45487284908931" lon="10.644089639477825"><ele>290.25</ele><time>2026-03-22T14:47:19Z</time></trkpt><trkpt lat="43.45487394934469" lon="10.644240689150147"><ele>289.0</ele><time>2026-03-22T14:47:20Z</time></trkpt><trkpt lat="43.45487286291535" lon="10.644381013300588"><ele>288.4</ele><time>2026-03-22T14:47:21Z</time></trkpt><trkpt lat="43.45486988029843" lon="10.644510212959823"><ele>287.79999999999995</ele><time>2026-03-22T14:47:22Z</time></trkpt><trkpt lat="43.454862544061626" lon="10.644621073532145"><ele>287.20000000000005</ele><time>2026-03-22T14:47:23Z</time></trkpt><trkpt lat="43.45482654092262" lon="10.644757528883773"><ele>286.6</ele><time>2026-03-22T14:47:25Z</time></trkpt><trkpt lat="43.45485177115211" lon="10.644920101520636"><ele>286.0</ele><time>2026-03-22T14:47:27Z</time></trkpt><trkpt lat="43.4548909132388" lon="10.645088077271211"><ele>286.0</ele><time>2026-03-22T14:47:29Z</time></trkpt><trkpt lat="43.45493415897896" lon="10.645183117720821"><ele>286.0</ele><time>2026-03-22T14:47:30Z</time></trkpt><trkpt lat="43.45501288866707" lon="10.645264592910753"><ele>286.0</ele><time>2026-03-22T14:47:31Z</time></trkpt><trkpt lat="43.45507923861792" lon="10.645357485636728"><ele>286.0</ele><time>2026-03-22T14:47:32Z</time></trkpt><trkpt lat="43.45513838188021" lon="10.645471101824604"><ele>286.0</ele><time>2026-03-22T14:47:33Z</time></trkpt><trkpt lat="43.455210262392626" lon="10.645551950000081"><ele>286.6</ele><time>2026-03-22T14:47:34Z</time></trkpt><trkpt lat="43.45529693026527" lon="10.645647252645366"><ele>287.20000000000005</ele><time>2026-03-22T14:47:35Z</time></trkpt><trkpt lat="43.455383271881374" lon="10.64575335780304"><ele>287.79999999999995</ele><time>2026-03-22T14:47:36Z</time></trkpt><trkpt lat="43.45546681573439" lon="10.64586096645513"><ele>288.4</ele><time>2026-03-22T14:47:37Z</time></trkpt><trkpt lat="43.45553274227985" lon="10.645972133093668"><ele>289.0</ele><time>2026-03-22T14:47:38Z</time></trkpt><trkpt lat="43.455601309135375" lon="10.64607401504988"><ele>289.8333333333333</ele><time>2026-03-22T14:47:39Z</time></trkpt><trkpt lat="43.455655049891334" lon="10.646184134792978"><ele>290.66666666666663</ele><time>2026-03-22T14:47:40Z</time></trkpt><trkpt lat="43.45569674018594" lon="10.646271424714017"><ele>291.5</ele><time>2026-03-22T14:47:41Z</time></trkpt><trkpt lat="43.45568964439526" lon="10.6463717947169"><ele>292.3333333333333</ele><time>2026-03-22T14:47:42Z</time></trkpt><trkpt lat="43.455686709580306" lon="10.646499029243687"><ele>293.1666666666667</ele><time>2026-03-22T14:47:43Z</time></trkpt><trkpt lat="43.45570790339602" lon="10.646590482461242"><ele>294.0</ele><time>2026-03-22T14:47:44Z</time></trkpt><trkpt lat="43.45574143250327" lon="10.64668703502226"><ele>294.0</ele><time>2026-03-22T14:47:45Z</time></trkpt><trkpt lat="43.45587586533216" lon="10.646775278223805"><ele>294.0</ele><time>2026-03-22T14:47:47Z</time></trkpt><trkpt lat="43.45594710435744" lon="10.646799643919573"><ele>294.0</ele><time>2026-03-22T14:47:48Z</time></trkpt><trkpt lat="43.456014154944334" lon="10.646843570595324"><ele>294.0</ele><time>2026-03-22T14:47:49Z</time></trkpt><trkpt lat="43.45600657732074" lon="10.64695490978448"><ele>294.0</ele><time>2026-03-22T14:47:50Z</time></trkpt><trkpt lat="43.45606853024846" lon="10.647086537007715"><ele>292.8</ele><time>2026-03-22T14:47:52Z</time></trkpt><trkpt lat="43.4561247796457" lon="10.647206047563714"><ele>291.59999999999997</ele><time>2026-03-22T14:47:54Z</time></trkpt><trkpt lat="43.4561753908453" lon="10.647313578914273"><ele>290.4</ele><time>2026-03-22T14:47:56Z</time></trkpt><trkpt lat="43.456229549875935" lon="10.647423757504576"><ele>289.2</ele><time>2026-03-22T14:47:58Z</time></trkpt><trkpt lat="43.45618955710715" lon="10.647547540864668"><ele>288.0</ele><time>2026-03-22T14:48:00Z</time></trkpt><trkpt lat="43.4561666904157" lon="10.647635039120686"><ele>288.0</ele><time>2026-03-22T14:48:01Z</time></trkpt><trkpt lat="43.456150163803855" lon="10.64773550696391"><ele>288.0</ele><time>2026-03-22T14:48:02Z</time></trkpt><trkpt lat="43.45613662167762" lon="10.647830843407466"><ele>288.0</ele><time>2026-03-22T14:48:02.999Z</time></trkpt><trkpt lat="43.456114773419856" lon="10.647935197468335"><ele>288.0</ele><time>2026-03-22T14:48:04.999Z</time></trkpt><trkpt lat="43.45613360145063" lon="10.64804321048789"><ele>288.0</ele><time>2026-03-22T14:48:06.999Z</time></trkpt><trkpt lat="43.45610956121016" lon="10.648165883585888"><ele>288.0</ele><time>2026-03-22T14:48:08.999Z</time></trkpt><trkpt lat="43.45609046237981" lon="10.648261734678865"><ele>287.3333333333333</ele><time>2026-03-22T14:48:10.999Z</time></trkpt><trkpt lat="43.45610512244607" lon="10.648350121897773"><ele>286.6666666666667</ele><time>2026-03-22T14:48:12.999Z</time></trkpt><trkpt lat="43.456086002953455" lon="10.648498178821937"><ele>286.0</ele><time>2026-03-22T14:48:14.999Z</time></trkpt><trkpt lat="43.456097363775505" lon="10.64863757319643"><ele>285.33333333333337</ele><time>2026-03-22T14:48:16.999Z</time></trkpt><trkpt lat="43.45604508673031" lon="10.648749337907006"><ele>284.6666666666667</ele><time>2026-03-22T14:48:18.999Z</time></trkpt><trkpt lat="43.45598506983644" lon="10.64878820034064"><ele>284.0</ele><time>2026-03-22T14:48:19.999Z</time></trkpt><trkpt lat="43.4559424070732" lon="10.648852006280949"><ele>281.1666666666667</ele><time>2026-03-22T14:48:20.999Z</time></trkpt><trkpt lat="43.45590578154979" lon="10.648969943830668"><ele>278.33333333333337</ele><time>2026-03-22T14:48:22.999Z</time></trkpt><trkpt lat="43.45599013012323" lon="10.649050470266847"><ele>275.5</ele><time>2026-03-22T14:48:26.999Z</time></trkpt><trkpt lat="43.45605737193764" lon="10.649037562014943"><ele>272.6666666666667</ele><time>2026-03-22T14:48:28.999Z</time></trkpt><trkpt lat="43.45612000804602" lon="10.648960604265103"><ele>269.8333333333333</ele><time>2026-03-22T14:48:30.999Z</time></trkpt><trkpt lat="43.45620032451142" lon="10.648885681034454"><ele>267.0</ele><time>2026-03-22T14:48:32.999Z</time></trkpt><trkpt lat="43.45628153909877" lon="10.648823215995408"><ele>265.3333333333333</ele><time>2026-03-22T14:48:34.999Z</time></trkpt><trkpt lat="43.45635321124119" lon="10.648782443177346"><ele>263.6666666666667</ele><time>2026-03-22T14:48:36.999Z</time></trkpt><trkpt lat="43.45644853109739" lon="10.648839110630815"><ele>262.0</ele><time>2026-03-22T14:48:39.999Z</time></trkpt><trkpt lat="43.45646111994165" lon="10.648934270034161"><ele>260.33333333333337</ele><time>2026-03-22T14:48:43.999Z</time></trkpt><trkpt lat="43.45642825562037" lon="10.649044627361457"><ele>258.6666666666667</ele><time>2026-03-22T14:48:52.999Z</time></trkpt><trkpt lat="43.45641438102952" lon="10.649138012452386"><ele>257.0</ele><time>2026-03-22T14:48:54.999Z</time></trkpt><trkpt lat="43.456409882701855" lon="10.649232195170214"><ele>257.0</ele><time>2026-03-22T14:48:56.999Z</time></trkpt><trkpt lat="43.45641207985191" lon="10.649339968529965"><ele>257.0</ele><time>2026-03-22T14:48:58.999Z</time></trkpt><trkpt lat="43.45641343025596" lon="10.649457674425506"><ele>257.0</ele><time>2026-03-22T14:49:00.999Z</time></trkpt><trkpt lat="43.4564128717701" lon="10.649589273997757"><ele>257.0</ele><time>2026-03-22T14:49:02.999Z</time></trkpt><trkpt lat="43.45640946054622" lon="10.649756606755652"><ele>257.0</ele><time>2026-03-22T14:49:04.999Z</time></trkpt><trkpt lat="43.45640330379846" lon="10.649845272252337"><ele>257.0</ele><time>2026-03-22T14:49:05.999Z</time></trkpt><trkpt lat="43.456337378417686" lon="10.649914651539412"><ele>255.0</ele><time>2026-03-22T14:49:06.999Z</time></trkpt><trkpt lat="43.456316980305715" lon="10.650071075877221"><ele>253.0</ele><time>2026-03-22T14:49:08.999Z</time></trkpt><trkpt lat="43.45631153089465" lon="10.65016041600342"><ele>251.0</ele><time>2026-03-22T14:49:09.999Z</time></trkpt><trkpt lat="43.456309053707955" lon="10.650302367945137"><ele>249.0</ele><time>2026-03-22T14:49:11.999Z</time></trkpt><trkpt lat="43.45629706875951" lon="10.650433471125206"><ele>247.0</ele><time>2026-03-22T14:49:13.999Z</time></trkpt><trkpt lat="43.45626387622946" lon="10.650558104417176"><ele>246.0</ele><time>2026-03-22T14:49:16Z</time></trkpt><trkpt lat="43.45622893694816" lon="10.650674231141432"><ele>245.0</ele><time>2026-03-22T14:49:18Z</time></trkpt><trkpt lat="43.45620194129532" lon="10.650806836349792"><ele>244.0</ele><time>2026-03-22T14:49:20Z</time></trkpt><trkpt lat="43.45619985149234" lon="10.650982897513819"><ele>243.0</ele><time>2026-03-22T14:49:22Z</time></trkpt><trkpt lat="43.45623083869613" lon="10.651080490947203"><ele>242.0</ele><time>2026-03-22T14:49:23Z</time></trkpt><trkpt lat="43.456295622608145" lon="10.651188399635549"><ele>238.50000000000003</ele><time>2026-03-22T14:49:25Z</time></trkpt><trkpt lat="43.45634474303651" lon="10.651322960933014"><ele>235.0</ele><time>2026-03-22T14:49:27Z</time></trkpt><trkpt lat="43.4563304492081" lon="10.651432038384124"><ele>231.5</ele><time>2026-03-22T14:49:30Z</time></trkpt><trkpt lat="43.45630330246137" lon="10.651518925039078"><ele>228.0</ele><time>2026-03-22T14:49:32Z</time></trkpt><trkpt lat="43.456303158483436" lon="10.651644535076567"><ele>224.50000000000003</ele><time>2026-03-22T14:49:35Z</time></trkpt><trkpt lat="43.456287750922634" lon="10.651748905461085"><ele>221.0</ele><time>2026-03-22T14:49:43Z</time></trkpt><trkpt lat="43.45634186502943" lon="10.651823199386671"><ele>221.00000000000003</ele><time>2026-03-22T14:49:45Z</time></trkpt><trkpt lat="43.456396525723925" lon="10.651941476174072"><ele>221.0</ele><time>2026-03-22T14:49:48Z</time></trkpt><trkpt lat="43.45638966156075" lon="10.652058041989978"><ele>221.0</ele><time>2026-03-22T14:49:51Z</time></trkpt><trkpt lat="43.45645395189215" lon="10.65209766722158"><ele>221.0</ele><time>2026-03-22T14:49:54Z</time></trkpt><trkpt lat="43.456516140461865" lon="10.652118678900418"><ele>221.00000000000003</ele><time>2026-03-22T14:50:16.999Z</time></trkpt><trkpt lat="43.45646177780657" lon="10.652205592412328"><ele>221.0</ele><time>2026-03-22T14:50:20.999Z</time></trkpt><trkpt lat="43.45644241701397" lon="10.652290793547708"><ele>218.2857142857143</ele><time>2026-03-22T14:50:23.999Z</time></trkpt><trkpt lat="43.4564293957309" lon="10.652377139375506"><ele>215.57142857142858</ele><time>2026-03-22T14:50:27.999Z</time></trkpt><trkpt lat="43.45646720118821" lon="10.652280726177398"><ele>212.85714285714286</ele><time>2026-03-22T14:52:54.999Z</time></trkpt><trkpt lat="43.456499043421694" lon="10.652180429384375"><ele>210.14285714285717</ele><time>2026-03-22T14:52:57.999Z</time></trkpt><trkpt lat="43.45652020871791" lon="10.652086007166963"><ele>207.42857142857142</ele><time>2026-03-22T14:53:03.999Z</time></trkpt><trkpt lat="43.45649528611545" lon="10.652169419340257"><ele>204.71428571428572</ele><time>2026-03-22T14:54:23.999Z</time></trkpt><trkpt lat="43.456439144412634" lon="10.652224849961186"><ele>202.0</ele><time>2026-03-22T14:54:25.999Z</time></trkpt><trkpt lat="43.45643075954739" lon="10.65233420432619"><ele>202.0</ele><time>2026-03-22T14:54:28.999Z</time></trkpt><trkpt lat="43.45639616539139" lon="10.652443849677052"><ele>202.0</ele><time>2026-03-22T14:54:46.999Z</time></trkpt><trkpt lat="43.456367323416245" lon="10.652527497920682"><ele>202.0</ele><time>2026-03-22T14:54:57.999Z</time></trkpt><trkpt lat="43.45641051402266" lon="10.652593500919018"><ele>202.0</ele><time>2026-03-22T14:55:24.999Z</time></trkpt><trkpt lat="43.45638229375297" lon="10.65268067099757"><ele>202.0</ele><time>2026-03-22T14:55:38Z</time></trkpt><trkpt lat="43.45630932353779" lon="10.652740883246702"><ele>202.0</ele><time>2026-03-22T14:55:41Z</time></trkpt><trkpt lat="43.4562553265849" lon="10.652798411558912"><ele>202.0</ele><time>2026-03-22T14:55:47Z</time></trkpt><trkpt lat="43.4562343166082" lon="10.652883847589678"><ele>199.16666666666666</ele><time>2026-03-22T14:55:58Z</time></trkpt><trkpt lat="43.456301031496544" lon="10.6529386137372"><ele>196.33333333333331</ele><time>2026-03-22T14:56:01Z</time></trkpt><trkpt lat="43.45637737174307" lon="10.65297321930893"><ele>193.5</ele><time>2026-03-22T14:56:08Z</time></trkpt><trkpt lat="43.45646463505388" lon="10.652992504705034"><ele>190.66666666666666</ele><time>2026-03-22T14:56:10Z</time></trkpt><trkpt lat="43.456542245729295" lon="10.652947722501741"><ele>187.83333333333331</ele><time>2026-03-22T14:56:12Z</time></trkpt><trkpt lat="43.456610432391216" lon="10.652914175971157"><ele>185.0</ele><time>2026-03-22T14:56:14Z</time></trkpt><trkpt lat="43.456681010060095" lon="10.652857454342781"><ele>185.0</ele><time>2026-03-22T14:56:16Z</time></trkpt><trkpt lat="43.4567571011608" lon="10.65281422226404"><ele>185.0</ele><time>2026-03-22T14:56:18Z</time></trkpt><trkpt lat="43.456828903161394" lon="10.652741413200696"><ele>185.0</ele><time>2026-03-22T14:56:20Z</time></trkpt><trkpt lat="43.45688626063297" lon="10.652687850909178"><ele>185.0</ele><time>2026-03-22T14:56:23Z</time></trkpt><trkpt lat="43.45686835413489" lon="10.652795821845917"><ele>185.0</ele><time>2026-03-22T14:56:28.999Z</time></trkpt><trkpt lat="43.45682961500583" lon="10.652875328419292"><ele>185.0</ele><time>2026-03-22T14:56:30.999Z</time></trkpt><trkpt lat="43.45677770875352" lon="10.652962137017632"><ele>185.0</ele><time>2026-03-22T14:56:32.999Z</time></trkpt><trkpt lat="43.45672978768953" lon="10.65304523165554"><ele>185.0</ele><time>2026-03-22T14:56:34.999Z</time></trkpt><trkpt lat="43.45667476078402" lon="10.653120234307847"><ele>185.0</ele><time>2026-03-22T14:56:36.999Z</time></trkpt><trkpt lat="43.456624833253464" lon="10.653209505993953"><ele>185.0</ele><time>2026-03-22T14:56:38.999Z</time></trkpt><trkpt lat="43.456580653024545" lon="10.653321902069267"><ele>185.0</ele><time>2026-03-22T14:56:40.999Z</time></trkpt><trkpt lat="43.45659369045677" lon="10.653453240654516"><ele>185.0</ele><time>2026-03-22T14:56:42.999Z</time></trkpt><trkpt lat="43.45661638492554" lon="10.653569002842987"><ele>183.0</ele><time>2026-03-22T14:56:44.999Z</time></trkpt><trkpt lat="43.45662863968829" lon="10.653701338324687"><ele>181.0</ele><time>2026-03-22T14:56:46.999Z</time></trkpt><trkpt lat="43.45662944048051" lon="10.653827156016444"><ele>179.0</ele><time>2026-03-22T14:56:48.999Z</time></trkpt><trkpt lat="43.4566443529399" lon="10.653949798564659"><ele>177.0</ele><time>2026-03-22T14:56:50.999Z</time></trkpt><trkpt lat="43.45660394586763" lon="10.654082055515369"><ele>175.0</ele><time>2026-03-22T14:56:52.999Z</time></trkpt><trkpt lat="43.45655822721657" lon="10.654234999831667"><ele>175.0</ele><time>2026-03-22T14:56:56.999Z</time></trkpt><trkpt lat="43.456507049691965" lon="10.65434023324461"><ele>175.0</ele><time>2026-03-22T14:56:59.999Z</time></trkpt><trkpt lat="43.456434089429045" lon="10.654412292720048"><ele>175.0</ele><time>2026-03-22T14:57:01.999Z</time></trkpt><trkpt lat="43.456382155592834" lon="10.65448592725636"><ele>175.0</ele><time>2026-03-22T14:57:02.999Z</time></trkpt><trkpt lat="43.4563020021016" lon="10.654608234353699"><ele>175.0</ele><time>2026-03-22T14:57:04.999Z</time></trkpt><trkpt lat="43.456213361639264" lon="10.654690703471427"><ele>174.2</ele><time>2026-03-22T14:57:06.999Z</time></trkpt><trkpt lat="43.45622378983511" lon="10.654820695465085"><ele>173.4</ele><time>2026-03-22T14:57:09.999Z</time></trkpt><trkpt lat="43.456253456573386" lon="10.654921205783658"><ele>172.60000000000002</ele><time>2026-03-22T14:57:11.999Z</time></trkpt><trkpt lat="43.45613440913793" lon="10.655007475990532"><ele>171.8</ele><time>2026-03-22T14:58:06Z</time></trkpt><trkpt lat="43.45620584608659" lon="10.655092124404787"><ele>171.0</ele><time>2026-03-22T14:58:21Z</time></trkpt><trkpt lat="43.45622682575928" lon="10.655212711925055"><ele>170.42857142857142</ele><time>2026-03-22T14:58:23Z</time></trkpt><trkpt lat="43.45622320106172" lon="10.655311132883051"><ele>169.85714285714286</ele><time>2026-03-22T14:58:25Z</time></trkpt><trkpt lat="43.45624241120758" lon="10.65541469413639"><ele>169.28571428571428</ele><time>2026-03-22T14:58:27Z</time></trkpt><trkpt lat="43.45631530809504" lon="10.655450278533642"><ele>168.71428571428572</ele><time>2026-03-22T14:58:29Z</time></trkpt><trkpt lat="43.45636469992795" lon="10.65552445391053"><ele>168.14285714285714</ele><time>2026-03-22T14:58:31Z</time></trkpt><trkpt lat="43.4564204921118" lon="10.655587414346211"><ele>167.57142857142856</ele><time>2026-03-22T14:58:32.999Z</time></trkpt><trkpt lat="43.45643651608223" lon="10.655675791508733"><ele>167.0</ele><time>2026-03-22T14:58:35.999Z</time></trkpt><trkpt lat="43.456440266462145" lon="10.655811648996579"><ele>166.83333333333331</ele><time>2026-03-22T14:58:39.999Z</time></trkpt><trkpt lat="43.45646540930978" lon="10.655898985761144"><ele>166.66666666666666</ele><time>2026-03-22T14:58:41.999Z</time></trkpt><trkpt lat="43.45646465942692" lon="10.656009637828632"><ele>166.5</ele><time>2026-03-22T14:58:44.999Z</time></trkpt><trkpt lat="43.45653919707998" lon="10.65607323207446"><ele>166.33333333333334</ele><time>2026-03-22T14:58:49.999Z</time></trkpt><trkpt lat="43.456592799958365" lon="10.656154448103413"><ele>166.16666666666669</ele><time>2026-03-22T14:58:52.999Z</time></trkpt><trkpt lat="43.456582550016655" lon="10.656249269771484"><ele>166.0</ele><time>2026-03-22T14:58:57.999Z</time></trkpt><trkpt lat="43.456626789920165" lon="10.656342070957557"><ele>165.66666666666669</ele><time>2026-03-22T14:58:59.999Z</time></trkpt><trkpt lat="43.4566948065954" lon="10.656358714352258"><ele>165.33333333333334</ele><time>2026-03-22T14:59:00.999Z</time></trkpt><trkpt lat="43.45675641227553" lon="10.656400965602032"><ele>165.0</ele><time>2026-03-22T14:59:01.999Z</time></trkpt><trkpt lat="43.4568205557493" lon="10.656460154517916"><ele>164.66666666666666</ele><time>2026-03-22T14:59:02.999Z</time></trkpt><trkpt lat="43.4568801021627" lon="10.656535872695343"><ele>164.33333333333331</ele><time>2026-03-22T14:59:03.999Z</time></trkpt><trkpt lat="43.4569395401609" lon="10.65663551179808"><ele>164.0</ele><time>2026-03-22T14:59:04.999Z</time></trkpt><trkpt lat="43.4569933219717" lon="10.656766051492799"><ele>164.0</ele><time>2026-03-22T14:59:05.999Z</time></trkpt><trkpt lat="43.457018165796406" lon="10.656914221771672"><ele>164.0</ele><time>2026-03-22T14:59:06.999Z</time></trkpt><trkpt lat="43.45699793055954" lon="10.657087212204587"><ele>164.0</ele><time>2026-03-22T14:59:07.999Z</time></trkpt><trkpt lat="43.45696586254405" lon="10.657278335215526"><ele>164.0</ele><time>2026-03-22T14:59:08.999Z</time></trkpt><trkpt lat="43.456942189188936" lon="10.65746261264832"><ele>163.66666666666666</ele><time>2026-03-22T14:59:09.999Z</time></trkpt><trkpt lat="43.456873019002956" lon="10.657661972012031"><ele>163.33333333333334</ele><time>2026-03-22T14:59:10.999Z</time></trkpt><trkpt lat="43.45682732683493" lon="10.657868489616268"><ele>163.0</ele><time>2026-03-22T14:59:11.999Z</time></trkpt><trkpt lat="43.45678730888532" lon="10.658079193344628"><ele>163.0</ele><time>2026-03-22T14:59:12.999Z</time></trkpt><trkpt lat="43.45676151137319" lon="10.65829617433117"><ele>163.0</ele><time>2026-03-22T14:59:13.999Z</time></trkpt><trkpt lat="43.45674262982256" lon="10.65851663715621"><ele>163.0</ele><time>2026-03-22T14:59:14.999Z</time></trkpt><trkpt lat="43.45671745215247" lon="10.658747032320436"><ele>163.0</ele><time>2026-03-22T14:59:15.999Z</time></trkpt><trkpt lat="43.45671258221423" lon="10.658987482949916"><ele>163.0</ele><time>2026-03-22T14:59:16.999Z</time></trkpt><trkpt lat="43.45670602559198" lon="10.659223778675395"><ele>163.0</ele><time>2026-03-22T14:59:17.999Z</time></trkpt><trkpt lat="43.456690754808086" lon="10.659464244408214"><ele>163.0</ele><time>2026-03-22T14:59:18.999Z</time></trkpt><trkpt lat="43.45667408682508" lon="10.659710104980668"><ele>163.0</ele><time>2026-03-22T14:59:19.999Z</time></trkpt><trkpt lat="43.456664813181554" lon="10.659958439303768"><ele>163.0</ele><time>2026-03-22T14:59:20.999Z</time></trkpt><trkpt lat="43.456664192330024" lon="10.66020653874176"><ele>163.33333333333334</ele><time>2026-03-22T14:59:21.999Z</time></trkpt><trkpt lat="43.45665080588653" lon="10.660455993974587"><ele>163.66666666666666</ele><time>2026-03-22T14:59:22.999Z</time></trkpt><trkpt lat="43.45664174397331" lon="10.660697022661495"><ele>164.0</ele><time>2026-03-22T14:59:23.999Z</time></trkpt><trkpt lat="43.45663245185098" lon="10.660940044324379"><ele>165.0</ele><time>2026-03-22T14:59:24.999Z</time></trkpt><trkpt lat="43.45662591927511" lon="10.661190244715261"><ele>166.0</ele><time>2026-03-22T14:59:25.999Z</time></trkpt><trkpt lat="43.4566222224958" lon="10.661445470008356"><ele>167.0</ele><time>2026-03-22T14:59:26.999Z</time></trkpt><trkpt lat="43.456608415843625" lon="10.661689282285492"><ele>167.0</ele><time>2026-03-22T14:59:27.999Z</time></trkpt><trkpt lat="43.456596829355135" lon="10.661930520614831"><ele>167.0</ele><time>2026-03-22T14:59:28.999Z</time></trkpt><trkpt lat="43.45658192417065" lon="10.662170941181888"><ele>167.0</ele><time>2026-03-22T14:59:29.999Z</time></trkpt><trkpt lat="43.45657544626716" lon="10.662411965259441"><ele>166.0</ele><time>2026-03-22T14:59:30.999Z</time></trkpt><trkpt lat="43.45656605758739" lon="10.662653059101945"><ele>165.0</ele><time>2026-03-22T14:59:31.999Z</time></trkpt><trkpt lat="43.456546931320425" lon="10.662882727060019"><ele>164.0</ele><time>2026-03-22T14:59:32.999Z</time></trkpt><trkpt lat="43.4565268909381" lon="10.66311817995715"><ele>161.66666666666666</ele><time>2026-03-22T14:59:33.999Z</time></trkpt><trkpt lat="43.45649702100309" lon="10.663343003682714"><ele>159.33333333333334</ele><time>2026-03-22T14:59:34.999Z</time></trkpt><trkpt lat="43.45644577406879" lon="10.663562783806464"><ele>157.0</ele><time>2026-03-22T14:59:35.999Z</time></trkpt><trkpt lat="43.45639197932354" lon="10.663773410755287"><ele>157.0</ele><time>2026-03-22T14:59:36.999Z</time></trkpt><trkpt lat="43.456335337360954" lon="10.66398713586772"><ele>157.0</ele><time>2026-03-22T14:59:37.999Z</time></trkpt><trkpt lat="43.45627713822234" lon="10.66419267994581"><ele>157.0</ele><time>2026-03-22T14:59:38.999Z</time></trkpt><trkpt lat="43.45621174190745" lon="10.664405111329618"><ele>153.66666666666669</ele><time>2026-03-22T14:59:39.999Z</time></trkpt><trkpt lat="43.4561674796591" lon="10.664619746272775"><ele>150.33333333333334</ele><time>2026-03-22T14:59:40.999Z</time></trkpt><trkpt lat="43.45613195421207" lon="10.664840459872838"><ele>147.0</ele><time>2026-03-22T14:59:41.999Z</time></trkpt><trkpt lat="43.45611830365735" lon="10.665048253994907"><ele>147.0</ele><time>2026-03-22T14:59:42.999Z</time></trkpt><trkpt lat="43.45614223097225" lon="10.665275656101096"><ele>147.0</ele><time>2026-03-22T14:59:43.999Z</time></trkpt><trkpt lat="43.45617254138325" lon="10.665498974456698"><ele>147.0</ele><time>2026-03-22T14:59:45Z</time></trkpt><trkpt lat="43.456197891773684" lon="10.665696790362762"><ele>147.0</ele><time>2026-03-22T14:59:46Z</time></trkpt><trkpt lat="43.456228163241434" lon="10.665902119320146"><ele>147.0</ele><time>2026-03-22T14:59:47Z</time></trkpt><trkpt lat="43.45626223471244" lon="10.666111718686931"><ele>147.0</ele><time>2026-03-22T14:59:48Z</time></trkpt><trkpt lat="43.45629537146357" lon="10.666318744625391"><ele>146.66666666666666</ele><time>2026-03-22T14:59:49Z</time></trkpt><trkpt lat="43.45634557565302" lon="10.666529832049049"><ele>146.33333333333331</ele><time>2026-03-22T14:59:50Z</time></trkpt><trkpt lat="43.45638734609823" lon="10.666730454057628"><ele>146.0</ele><time>2026-03-22T14:59:51Z</time></trkpt><trkpt lat="43.456424051111526" lon="10.666927553002743"><ele>145.0</ele><time>2026-03-22T14:59:52Z</time></trkpt><trkpt lat="43.45646170655202" lon="10.667131348433868"><ele>144.0</ele><time>2026-03-22T14:59:53Z</time></trkpt><trkpt lat="43.456515739080345" lon="10.667332452143222"><ele>143.0</ele><time>2026-03-22T14:59:54Z</time></trkpt><trkpt lat="43.45655724017809" lon="10.667530360116181"><ele>143.0</ele><time>2026-03-22T14:59:55Z</time></trkpt><trkpt lat="43.456600242678505" lon="10.66771683177869"><ele>143.0</ele><time>2026-03-22T14:59:56Z</time></trkpt><trkpt lat="43.45663709925161" lon="10.66789163867127"><ele>143.0</ele><time>2026-03-22T14:59:57Z</time></trkpt><trkpt lat="43.45666490371283" lon="10.66804706264194"><ele>143.0</ele><time>2026-03-22T14:59:58Z</time></trkpt><trkpt lat="43.456689021254284" lon="10.668179252046336"><ele>142.0</ele><time>2026-03-22T14:59:59Z</time></trkpt><trkpt lat="43.45669690718515" lon="10.668272087274763"><ele>142.0</ele><time>2026-03-22T15:00:00Z</time></trkpt><trkpt lat="43.45667432630118" lon="10.668385294405507"><ele>142.0</ele><time>2026-03-22T15:00:07Z</time></trkpt><trkpt lat="43.45664851587692" lon="10.668475046983202"><ele>142.0</ele><time>2026-03-22T15:00:10Z</time></trkpt><trkpt lat="43.45656840593387" lon="10.668457874835582"><ele>142.0</ele><time>2026-03-22T15:00:13Z</time></trkpt></trkseg></trk></gpx>